GFSCGP_prec_cthk_000.txt.gz
RH
25 31 31 31 33 36 37 34 31 36 37 34 37 33 35 36 36 36 36 35 37 40 44 50 51 54 59 70 77 76 82 81 74 68 71 74 75 77 78 76 77 72 67 64
33 33 34 33 31 35 39 36 38 36 32 33 37 37 40 40 40 39 41 42 47 54 52 56 61 66 74 72 67 67 68 68 69 72 76 76 75 74 75 77 74 70 63 60
30 31 30 33 36 33 37 38 36 33 30 27 34 40 44 45 42 40 44 47 54 59 59 61 61 60 58 61 63 61 62 64 68 71 72 72 73 73 71 66 63 58 55 52
30 28 27 23 23 25 27 37 36 33 28 32 35 52 49 47 45 44 50 53 57 57 58 56 53 48 46 50 51 53 59 63 65 66 66 69 68 63 59 56 54 51 47 44
30 29 30 28 26 22 27 25 25 23 25 27 38 51 54 51 51 51 57 57 58 57 52 48 48 46 46 48 50 52 55 58 61 60 57 53 50 49 48 47 46 49 53 55
31 28 26 25 25 25 24 25 30 31 32 42 45 50 57 55 55 58 65 61 61 54 48 48 49 48 50 50 51 53 53 51 52 52 52 50 48 48 47 48 50 54 56 54
30 28 24 25 27 26 25 31 48 50 54 56 49 60 62 60 62 62 64 58 56 57 62 61 55 52 52 53 58 58 60 60 56 54 51 50 48 48 51 52 55 64 65 72
40 45 29 28 33 31 30 32 48 56 69 62 54 61 57 58 59 64 57 62 64 66 60 60 63 61 60 60 57 55 56 59 59 57 58 58 59 59 57 64 62 73 66 69
47 39 26 22 27 32 29 29 29 40 46 46 50 50 52 54 59 63 72 69 62 62 58 65 68 67 64 59 56 59 63 63 62 60 63 64 65 61 66 60 44 43 41 47
39 32 27 29 28 25 23 25 32 37 41 49 50 52 58 56 58 57 58 54 58 63 69 71 70 67 59 61 64 64 64 62 63 63 60 57 52 48 42 36 39 49 54 59
35 29 34 34 33 29 29 29 30 32 41 48 58 50 45 51 51 52 52 55 63 74 76 73 71 67 64 65 63 62 62 60 59 56 47 37 37 39 42 41 41 51 57 77
33 33 41 29 26 24 25 29 31 41 42 52 56 48 44 50 52 57 60 63 68 79 78 73 71 68 67 65 63 64 60 55 50 41 36 37 38 39 44 43 41 50 57 68
29 33 42 40 36 29 29 27 32 36 40 42 52 44 45 53 56 61 63 65 69 73 76 75 68 67 62 57 55 55 54 49 38 32 31 28 26 26 29 44 41 45 65 76
29 32 31 39 31 28 25 26 31 35 48 46 48 40 48 52 55 59 61 65 67 74 77 71 66 63 60 59 56 52 45 36 36 33 30 27 24 21 23 36 47 63 73 72
30 31 30 27 29 28 27 27 29 31 35 42 39 43 50 53 56 59 62 66 71 75 74 71 67 64 61 55 49 40 38 38 36 32 28 25 18 19 24 34 40 48 57 59
31 35 31 28 33 34 28 28 29 29 30 34 43 50 51 55 60 66 70 72 73 72 71 68 66 61 55 47 41 41 40 37 33 29 29 25 20 20 22 27 36 49 52 64
33 37 34 38 42 37 36 30 29 31 35 35 42 48 54 59 63 66 69 71 72 74 72 70 65 56 49 44 44 43 38 34 32 33 28 23 20 21 26 33 45 56 63 76
39 40 41 40 39 37 34 29 30 39 40 41 46 51 56 61 64 70 73 74 74 72 69 64 57 51 46 46 45 42 36 35 32 29 26 24 23 25 30 43 55 79 84 86
34 40 47 42 47 31 30 33 34 34 46 46 51 56 57 59 63 69 72 70 69 67 64 60 51 48 48 47 45 39 37 33 34 29 28 26 28 30 38 52 59 65 70 73
43 41 40 51 38 35 32 34 34 34 42 47 47 51 54 58 69 70 69 70 70 67 64 54 50 48 48 46 42 39 38 39 35 31 27 29 32 40 47 58 65 70 73 81
49 48 48 53 49 40 32 37 39 48 39 44 46 50 54 59 63 64 67 70 70 68 60 50 49 51 51 46 41 41 40 37 32 27 32 36 38 46 55 62 68 74 84 88
42 48 52 55 55 49 32 38 42 37 40 46 52 55 59 64 65 67 72 72 69 62 51 51 53 52 46 42 39 34 31 29 28 32 37 38 44 52 60 67 77 81 82 68
40 37 44 43 41 34 36 38 41 44 46 52 57 61 66 66 72 74 73 70 66 53 55 57 53 42 37 33 29 28 28 29 31 34 42 47 50 55 61 69 71 60 57 57
39 40 44 45 39 42 45 47 53 53 56 62 64 63 68 73 76 74 72 70 59 57 55 46 38 32 30 27 26 28 28 30 32 40 53 57 55 54 56 58 55 50 57 58
39 44 44 47 48 52 52 52 53 58 63 66 67 76 75 75 75 74 71 65 56 53 43 36 33 31 29 26 23 24 26 31 36 51 63 65 61 58 55 56 57 55 55 56
42 45 51 50 49 49 47 52 59 62 63 67 73 74 78 79 77 74 66 56 52 42 36 35 34 31 27 23 22 25 30 36 44 54 66 72 71 68 59 55 55 54 54 53

GFSCGP_prec_cthk_003.txt.gz
RH
25 30 29 27 26 29 29 29 31 35 34 36 35 38 38 33 37 39 37 38 40 41 47 48 54 58 64 68 71 72 74 79 82 75 74 71 77 79 81 80 78 74 70 64
25 29 26 32 40 38 37 31 32 31 38 37 38 41 42 39 41 42 43 48 48 54 56 62 64 71 73 73 66 67 70 70 70 68 70 77 84 83 77 74 73 67 59 54
27 27 34 40 39 41 40 37 37 38 39 38 35 43 44 43 46 47 50 55 57 60 64 67 66 63 63 67 66 64 64 65 67 71 73 68 66 67 69 68 63 56 51 49
36 32 30 32 31 36 41 39 38 40 41 45 36 54 48 50 53 53 54 59 63 60 63 57 58 52 55 54 52 53 55 56 59 61 63 64 65 66 61 56 51 51 51 49
35 34 32 29 26 26 31 33 37 40 40 41 40 47 47 51 54 55 58 62 60 65 59 56 53 54 55 55 54 56 59 60 60 58 58 59 58 55 54 54 54 52 49 48
31 28 30 28 27 27 27 32 36 39 40 49 41 47 52 53 56 62 64 64 62 65 57 57 61 64 59 53 52 57 62 62 62 59 56 55 54 51 50 51 52 50 51 52
30 28 27 28 28 27 28 33 46 45 50 54 46 51 51 51 57 62 64 63 62 59 66 68 59 57 57 57 58 55 55 52 50 53 53 53 53 55 56 54 51 53 49 50
36 34 28 29 31 28 30 33 46 48 58 48 47 54 54 53 55 55 54 55 61 67 72 56 53 60 64 63 61 54 52 53 56 57 57 57 57 61 58 56 53 45 39 34
40 36 25 30 30 29 26 29 31 45 52 53 53 48 47 47 50 52 53 57 64 60 52 54 63 66 64 63 59 56 57 59 59 59 62 58 57 54 48 44 39 35 33 35
42 35 27 27 27 28 26 26 30 37 39 46 46 45 48 45 49 49 53 54 52 53 57 62 68 74 71 68 65 64 66 65 62 58 53 48 45 44 40 36 31 32 38 45
41 33 32 31 31 28 28 25 29 33 40 44 53 46 38 42 43 46 50 48 52 58 63 66 71 76 76 78 75 68 65 62 57 52 44 36 32 31 29 24 21 26 37 45
37 38 41 31 27 24 24 25 26 35 37 48 49 38 33 36 41 45 51 52 58 63 67 70 75 77 82 77 72 68 63 60 54 43 39 35 31 26 20 16 18 29 42 45
32 36 43 38 30 27 26 26 30 31 36 42 46 37 36 39 44 48 51 56 57 63 66 70 73 72 73 73 68 66 62 52 46 42 36 32 26 21 18 16 18 28 34 39
33 35 31 38 32 28 25 26 30 31 41 38 40 33 40 42 45 50 55 56 60 64 67 68 67 70 69 73 70 60 55 51 44 38 34 29 24 21 20 20 22 27 30 37
30 31 31 30 30 25 25 26 30 32 32 37 32 36 39 44 48 51 54 58 63 66 67 68 70 73 78 69 63 58 52 46 40 36 32 29 26 23 23 21 22 29 38 43
33 38 33 33 32 32 27 26 28 29 29 32 35 39 38 44 50 54 57 60 63 67 71 73 79 72 65 63 58 52 49 46 40 35 31 32 28 25 24 22 26 34 45 46
35 41 33 30 39 34 28 25 27 25 29 32 40 36 41 50 53 56 59 61 64 67 70 67 65 64 64 60 54 50 49 44 38 36 36 33 30 27 26 25 31 43 53 56
41 42 40 40 38 32 24 26 28 29 33 36 37 39 44 50 54 56 57 60 65 68 66 64 65 64 60 53 50 49 46 42 40 40 38 34 29 29 30 32 38 47 55 73
37 40 47 43 45 31 25 31 33 32 35 38 37 42 46 47 51 54 58 58 60 61 61 61 64 59 51 50 50 48 46 42 41 37 34 30 31 31 34 39 47 53 59 65
40 39 40 53 38 33 23 29 30 32 40 38 40 44 43 49 57 52 55 60 63 65 63 64 61 53 52 53 50 48 42 38 34 29 28 33 33 32 37 45 49 58 65 71
52 49 44 54 46 37 26 32 34 44 35 36 39 42 46 52 57 58 62 66 69 66 66 64 56 55 55 52 48 39 34 30 29 29 32 36 36 38 43 50 57 65 71 72
44 48 52 53 54 41 28 36 39 35 34 39 44 46 50 58 63 66 67 70 70 69 70 62 59 57 53 43 35 32 30 31 29 31 34 38 43 45 49 53 60 65 62 60
47 40 44 42 40 31 32 33 34 38 42 46 50 53 60 66 69 72 76 73 72 75 71 64 57 53 40 35 35 33 30 28 28 32 36 44 52 55 54 53 54 55 55 57
46 46 47 45 38 40 41 41 42 49 53 53 53 61 68 70 76 79 77 75 80 75 66 58 52 40 38 38 36 34 30 27 28 33 37 48 58 61 61 59 59 57 58 59
46 46 47 49 45 45 45 47 52 54 55 59 63 67 67 74 75 76 78 83 78 68 57 52 43 42 40 39 35 31 27 27 30 35 42 52 61 65 67 69 69 62 57 54
48 48 53 51 48 51 51 53 54 56 60 63 64 66 70 76 83 83 85 79 70 57 54 47 45 43 40 36 30 27 27 29 34 38 47 57 64 69 73 75 72 64 56 52

GFSCGP_prec_cthk_006.txt.gz
RH
36 35 35 31 28 23 21 28 35 33 29 36 42 42 41 37 36 40 43 46 47 48 51 54 56 61 63 66 70 74 79 87 84 75 73 70 72 84 90 79 73 68 66 65
28 33 32 32 30 28 29 32 37 36 36 37 44 43 40 38 36 36 37 43 50 51 53 53 59 65 70 71 71 73 67 65 68 71 70 73 70 64 62 62 62 61 54 48
22 29 30 32 30 40 41 32 35 39 40 40 42 44 40 40 40 43 45 49 53 54 60 64 68 69 66 63 56 54 56 57 58 58 59 59 59 59 59 58 53 49 48 49
30 33 33 34 40 41 42 40 37 45 46 51 44 56 44 45 46 48 53 55 56 58 55 59 56 54 50 47 52 58 57 54 56 58 61 62 62 58 54 52 51 52 53 54
28 31 32 35 32 30 37 36 40 43 44 46 47 53 46 48 50 53 55 56 57 54 57 59 60 60 59 61 55 54 52 55 56 57 56 54 51 52 53 54 54 55 55 51
31 33 34 31 30 27 28 36 42 45 47 51 41 44 47 48 46 52 56 59 60 58 55 57 59 64 67 59 57 58 61 58 52 52 52 54 56 58 57 55 52 52 51 46
34 33 30 29 30 28 31 35 47 49 53 51 41 43 39 41 47 55 59 60 61 55 56 63 70 58 58 60 60 62 61 58 55 55 59 60 60 59 56 54 53 50 44 36
38 36 28 28 28 29 30 35 47 47 55 46 42 49 44 43 47 51 55 55 54 55 58 64 60 52 57 62 66 68 66 64 62 59 58 57 55 54 51 48 42 37 32 28
35 31 26 30 32 32 31 35 36 49 52 53 51 42 43 45 46 45 46 48 51 56 56 50 53 54 56 59 63 66 67 68 64 58 54 53 50 45 39 35 31 25 21 18
37 37 30 33 34 32 30 30 32 39 38 44 44 42 43 38 39 41 43 45 49 50 50 52 53 54 56 60 66 65 72 69 65 61 60 51 47 42 34 28 23 19 15 20
43 42 33 30 31 33 30 27 29 32 39 42 50 41 33 35 38 41 43 45 49 52 53 55 57 60 64 66 70 74 74 68 67 60 51 47 42 35 28 23 20 17 18 28
47 45 47 32 32 29 27 25 25 32 29 46 46 34 30 32 36 38 42 47 51 54 57 59 63 68 70 75 76 68 72 73 60 55 50 45 38 32 27 23 20 18 20 27
41 43 50 37 31 27 25 28 28 29 36 40 45 32 29 30 33 38 44 48 53 56 59 62 68 69 69 68 68 77 70 59 58 55 50 41 35 32 28 24 21 19 23 33
36 38 34 36 30 29 27 28 28 28 39 37 37 25 31 34 36 40 45 50 54 59 61 64 65 66 66 70 77 66 60 59 60 54 46 40 36 34 28 23 22 23 29 33
34 36 35 35 33 28 24 23 29 29 29 33 28 29 27 33 37 42 47 51 56 61 62 64 65 66 74 76 67 61 60 60 54 49 44 41 37 32 26 25 26 25 28 30
35 38 35 36 36 34 27 25 26 27 27 31 31 30 30 33 37 42 46 50 56 61 63 64 68 75 70 61 59 60 59 54 52 48 43 41 35 30 26 27 27 30 35 42
32 40 32 31 38 33 28 23 25 25 25 27 32 26 32 34 36 40 45 48 55 61 63 64 64 63 61 60 61 58 54 54 51 46 42 37 34 29 28 29 32 34 40 48
35 38 38 42 37 33 21 24 26 26 27 28 29 30 33 34 38 42 45 49 55 60 63 62 63 66 65 59 56 56 55 54 50 42 39 36 32 31 30 31 34 39 45 52
37 35 43 41 43 30 23 29 31 32 28 30 32 35 36 38 42 40 43 49 57 62 62 64 68 66 59 56 57 57 56 51 41 38 34 33 33 33 32 32 38 43 50 59
42 38 37 47 37 34 26 27 29 29 36 29 32 37 38 40 47 39 46 52 61 64 64 68 68 64 62 59 58 56 50 41 37 35 35 33 34 36 35 38 45 50 55 62
53 50 43 53 44 35 25 29 31 40 32 30 32 34 39 43 42 46 51 58 65 68 71 70 70 69 65 61 56 51 41 39 38 34 30 31 36 36 41 44 50 54 57 59
47 49 52 52 52 37 27 33 37 33 31 33 36 41 44 47 53 53 59 64 69 74 72 75 79 74 63 56 51 43 41 39 35 30 29 29 31 37 46 50 54 51 54 54
47 43 46 45 43 36 36 38 38 39 41 41 43 47 54 58 60 64 65 65 75 73 77 85 80 66 59 54 46 43 42 38 31 29 26 27 32 41 50 53 56 59 61 61
43 42 43 42 37 40 40 40 41 44 46 49 55 60 61 64 69 72 74 72 78 82 92 81 67 63 57 49 46 43 39 32 29 25 26 31 37 46 55 58 63 67 69 67
45 44 45 46 41 41 42 43 46 49 53 57 58 61 64 68 73 78 81 85 89 95 80 69 67 61 52 48 44 40 33 28 24 26 31 37 44 50 58 63 68 74 77 65
43 44 50 50 43 45 45 49 51 53 55 57 60 64 69 73 77 87 92 92 94 79 72 70 63 53 49 44 40 33 28 25 27 28 35 44 49 56 61 68 76 81 67 58

GFSCGP_prec_cthk_009.txt.gz
RH
44 37 33 30 28 26 23 21 29 30 34 35 40 37 38 35 39 43 45 47 50 50 52 54 58 58 59 65 69 75 77 77 70 68 70 67 64 64 65 60 57 56 55 55
37 36 36 34 32 30 27 29 40 43 37 34 38 43 41 35 35 39 43 46 48 51 51 52 56 60 68 75 72 64 62 59 61 61 59 58 56 51 52 53 53 51 50 50
38 34 35 35 36 37 32 39 41 42 43 38 38 39 40 38 38 39 42 45 49 52 54 58 61 61 59 56 52 49 50 52 53 51 52 52 53 52 50 50 50 52 53 52
34 25 37 39 38 37 35 39 38 45 46 46 40 37 44 43 41 42 45 50 55 57 54 55 54 56 58 57 52 56 55 51 54 54 51 50 50 52 54 57 59 59 56 54
37 33 30 38 38 34 41 44 43 39 38 39 42 39 41 45 45 45 48 52 56 54 53 50 49 52 56 56 63 56 51 59 54 54 54 56 58 60 61 62 62 59 55 49
31 28 34 32 35 39 36 33 40 42 39 41 39 40 37 43 40 46 50 55 55 52 56 55 55 56 60 56 51 50 54 58 62 65 67 65 65 61 59 60 56 52 48 40
31 35 35 34 35 34 31 33 40 43 45 41 41 41 31 33 38 47 51 52 52 54 55 54 56 60 55 49 52 55 59 62 63 63 65 64 60 58 56 50 43 40 33 28
36 35 30 31 30 29 31 34 42 46 48 39 40 41 32 37 40 48 51 52 50 49 52 54 57 54 50 53 55 56 58 61 61 61 62 60 59 59 50 44 38 32 27 22
36 34 29 29 30 30 30 32 34 43 45 45 42 38 36 39 41 45 45 45 48 50 52 56 55 51 52 53 56 56 58 62 62 60 60 62 56 49 47 41 33 27 23 20
31 32 31 31 33 36 32 32 36 40 42 40 33 36 30 34 34 36 38 41 45 47 52 53 52 53 54 57 58 60 60 64 64 66 67 57 52 47 41 35 30 25 22 21
33 38 41 33 34 35 34 32 31 30 34 30 33 25 27 28 29 31 35 39 43 47 50 53 55 57 59 62 65 66 69 80 68 63 58 53 48 42 37 33 28 25 24 22
38 47 47 37 32 32 31 28 26 29 28 36 36 24 23 26 27 31 35 39 44 48 52 56 59 63 65 67 68 72 76 66 69 61 60 51 46 40 37 33 29 26 24 25
39 49 51 41 34 31 29 28 26 27 32 36 43 23 24 26 27 31 35 39 45 49 53 59 62 65 68 68 72 74 70 72 62 57 50 48 43 41 40 35 29 27 26 26
36 44 42 39 32 30 30 29 28 26 31 30 32 23 22 25 27 29 34 39 43 48 52 58 64 67 67 68 70 80 67 61 54 52 50 48 44 44 41 33 29 28 27 28
34 37 39 39 36 31 26 29 28 24 24 28 23 24 22 23 26 31 35 39 43 47 51 56 61 66 62 75 71 56 59 57 53 52 52 49 48 45 39 32 28 28 29 33
36 38 39 41 37 34 29 26 26 28 27 26 26 24 22 26 28 32 35 38 42 47 51 56 60 62 75 57 56 61 60 55 53 55 53 51 46 42 36 31 29 29 32 35
35 40 35 33 36 33 31 25 24 25 24 25 29 21 25 27 29 31 35 39 44 47 52 57 59 61 58 59 62 64 59 54 58 59 53 47 44 38 33 31 31 30 32 38
35 33 33 38 36 34 21 23 24 25 25 25 26 25 27 30 32 32 36 39 41 46 52 55 58 61 63 65 67 62 56 60 61 55 45 43 38 35 32 32 31 31 34 39
36 36 38 39 34 27 21 24 29 30 26 27 27 29 33 35 37 36 35 38 43 51 57 62 63 65 67 70 65 60 63 62 56 44 42 38 35 32 32 32 33 33 38 46
43 41 40 43 36 35 24 23 29 29 32 26 28 32 37 40 42 35 37 43 50 58 64 67 69 69 73 69 66 66 63 58 46 45 40 35 30 28 30 31 35 38 44 49
52 49 43 47 43 34 27 30 32 35 30 29 30 34 40 42 41 42 45 50 59 66 69 69 76 77 77 76 71 65 60 50 47 43 35 29 27 27 27 30 39 43 48 47
41 46 47 48 47 41 31 36 40 37 37 36 38 40 43 44 47 53 58 63 67 69 72 78 77 78 80 71 69 63 54 48 44 35 29 26 26 25 28 34 43 47 50 54
42 40 42 41 39 33 35 37 38 39 40 41 44 46 49 55 61 65 66 67 70 75 79 82 83 83 74 72 66 57 49 45 37 30 27 26 26 26 32 40 48 51 56 61
40 40 40 40 36 39 38 38 38 41 44 48 50 53 58 62 66 69 70 73 77 80 80 88 83 78 76 68 58 51 46 38 31 29 27 27 25 29 38 45 52 57 61 69
40 40 43 43 39 39 39 41 44 47 48 51 56 59 62 66 68 72 73 75 80 84 95 88 82 76 68 61 55 48 39 32 30 29 29 27 30 34 42 49 57 64 70 74
40 41 45 46 40 45 46 50 56 61 65 67 66 67 68 70 72 76 83 87 93 94 88 82 78 69 62 56 50 42 35 32 31 32 31 32 35 41 47 53 61 69 73 73

GFSCGP_prec_cthk_012.txt.gz
RH
42 38 35 35 32 30 26 26 28 28 24 22 30 33 37 41 44 45 44 43 46 48 50 51 53 55 57 60 65 69 77 76 73 70 65 59 56 56 57 55 48 48 50 51
44 40 35 35 29 27 24 26 38 36 35 34 35 38 39 36 37 42 44 45 47 46 47 51 54 57 60 66 73 76 73 67 66 60 57 55 55 54 48 48 50 54 57 58
42 38 40 36 33 33 31 35 38 40 38 34 34 35 35 34 32 35 37 40 42 44 47 53 60 65 65 65 65 64 63 59 54 52 50 54 50 48 53 57 61 60 59 59
40 36 38 37 37 35 37 33 37 40 40 38 36 36 34 36 39 34 35 38 42 49 57 59 56 53 52 52 55 54 54 55 49 48 48 51 57 62 66 69 68 67 62 57
36 31 30 35 38 36 39 33 33 33 35 38 37 34 45 37 39 42 40 41 46 53 58 53 52 53 53 51 52 51 51 48 47 49 54 59 62 66 68 67 65 63 58 52
39 38 36 32 34 37 37 34 41 41 40 39 35 33 37 37 35 39 41 42 48 54 53 50 53 55 55 54 50 48 48 49 52 58 60 60 60 63 65 61 53 49 47 45
39 39 35 32 37 34 38 36 38 36 40 38 34 32 26 31 30 35 40 45 49 52 50 54 57 58 54 53 53 51 55 55 57 59 60 60 59 60 60 49 46 45 39 35
37 37 31 34 36 35 37 35 35 38 40 32 36 28 28 29 31 39 44 47 48 50 50 51 55 57 55 56 54 56 58 58 57 57 61 67 63 57 56 48 45 41 34 32
32 34 32 32 33 32 31 31 32 37 40 36 29 30 29 30 33 37 42 44 46 45 48 51 53 57 57 55 56 57 59 61 58 64 72 79 64 58 48 44 42 35 33 32
32 35 31 30 30 30 29 28 32 33 41 37 27 26 24 27 30 33 37 39 41 43 48 52 54 58 56 57 59 60 61 64 67 72 77 61 56 52 46 39 37 35 34 34
26 29 33 32 29 32 34 31 30 31 32 25 21 18 19 23 25 28 30 35 39 42 46 49 52 55 58 61 61 63 66 68 69 74 67 55 53 49 38 40 41 40 36 34
29 35 42 40 33 30 32 31 27 24 26 30 32 18 17 20 22 26 29 33 38 42 45 48 50 55 59 61 62 66 66 68 72 74 64 51 47 43 42 45 44 41 36 34
29 34 42 40 37 32 30 28 24 24 26 27 37 18 18 19 20 23 30 33 37 40 43 46 49 53 58 62 64 66 67 75 76 53 50 51 47 43 48 49 45 40 37 35
30 33 41 45 38 34 32 27 24 21 26 22 23 17 18 18 19 21 25 30 35 41 43 46 49 54 58 62 63 67 72 67 51 51 53 50 46 49 51 49 44 38 35 33
34 33 37 40 38 33 28 26 25 23 23 23 16 18 15 18 19 21 25 30 34 39 42 46 49 54 57 59 61 68 65 53 52 55 54 50 50 53 51 48 42 36 33 34
36 38 36 39 36 34 30 25 24 23 23 21 19 18 20 21 22 23 25 29 34 37 41 46 51 53 57 59 64 65 57 55 58 56 53 53 55 53 50 46 38 33 34 37
38 38 35 34 37 36 39 26 22 22 22 23 24 22 25 25 26 26 29 30 33 37 41 44 48 55 60 62 62 64 62 60 59 55 57 59 54 51 46 39 35 39 35 39
38 35 35 38 36 51 21 22 22 23 23 23 24 26 27 28 30 31 32 33 35 36 40 45 52 58 62 62 69 66 63 62 60 62 65 54 52 47 39 35 35 37 37 41
36 35 41 48 33 24 17 19 21 24 21 23 24 25 28 31 33 33 34 34 37 41 48 54 59 64 65 68 69 69 72 68 68 71 56 53 48 40 34 31 34 37 40 40
41 38 39 44 53 56 25 24 29 28 27 25 25 27 32 34 39 38 39 40 43 47 53 59 65 69 68 68 74 81 73 69 73 59 53 48 40 35 33 32 31 38 40 41
46 47 49 44 50 32 26 27 29 32 31 29 31 33 36 40 41 42 42 48 53 57 63 66 70 69 71 81 82 74 73 73 63 56 50 40 36 35 33 30 33 37 41 43
39 43 49 44 53 50 28 33 37 35 34 34 37 40 41 43 46 50 53 59 64 67 69 73 73 73 86 89 83 79 74 66 57 51 43 38 36 34 32 32 36 40 43 48
38 36 37 35 35 31 32 33 35 36 36 38 40 45 47 50 53 56 62 66 72 74 76 77 79 91 92 85 81 76 69 59 53 46 40 40 41 38 35 34 40 44 47 52
35 35 37 36 32 33 34 36 37 38 39 42 45 47 51 56 64 66 69 72 75 75 81 83 91 94 88 88 77 70 63 55 48 47 45 45 39 30 31 37 42 45 52 58
37 38 38 37 34 36 35 38 41 45 49 54 61 67 70 71 71 72 71 71 75 78 85 92 97 94 83 78 72 67 60 53 50 46 43 43 38 34 36 37 40 48 55 61
35 38 40 39 37 39 43 51 57 62 66 70 72 73 73 74 73 74 78 82 85 90 95 97 94 89 77 75 70 63 55 51 46 44 46 45 40 39 36 38 42 49 56 62

GFSCGP_prec_cthk_015.txt.gz
RH
48 47 45 43 41 37 33 28 25 27 22 24 29 34 26 37 44 46 52 56 53 52 53 55 60 62 66 68 70 65 73 81 86 80 75 65 57 52 51 49 46 47 50 52
47 50 44 40 36 32 30 29 32 31 22 28 28 37 34 37 43 44 47 49 52 52 51 54 58 61 64 69 71 72 76 82 79 76 63 61 56 53 51 49 51 55 57 59
55 45 36 36 33 33 33 27 42 35 34 27 38 44 35 34 37 40 45 50 54 54 52 56 59 63 66 70 71 68 69 69 66 61 57 52 50 50 52 54 54 58 63 63
53 44 40 37 39 38 41 33 40 35 40 37 30 33 46 31 29 32 33 41 46 51 52 58 61 62 64 63 60 58 56 57 55 51 50 53 58 61 58 60 61 64 63 62
51 38 39 40 48 31 52 40 32 33 35 48 38 32 50 48 33 33 38 41 42 43 50 55 58 54 56 57 57 54 52 49 45 48 51 52 56 60 62 63 63 62 58 56
51 36 33 45 30 34 32 34 31 31 40 43 33 43 36 54 42 37 37 42 44 45 46 52 52 51 53 54 52 49 49 49 48 50 52 56 60 60 65 70 66 62 48 44
44 40 37 34 35 29 31 40 44 39 41 40 43 38 31 39 48 44 36 37 43 43 44 47 46 48 53 54 51 50 51 51 51 54 57 56 59 63 68 80 61 46 45 43
39 46 33 31 34 46 36 42 43 43 40 32 43 36 30 32 30 26 38 41 43 43 43 45 44 47 51 54 53 52 54 53 54 56 56 58 65 71 78 66 44 43 39 34
41 48 45 34 32 32 44 36 37 44 40 35 25 28 35 29 24 28 39 39 42 41 42 44 46 49 51 55 55 55 55 53 55 59 63 65 65 65 62 54 50 40 36 34
42 45 38 32 30 28 29 40 34 30 40 40 31 34 28 33 23 27 36 36 39 41 42 41 45 47 50 53 57 57 54 54 59 66 65 63 64 67 63 48 40 40 38 39
36 34 44 33 29 36 36 27 27 35 44 40 28 28 29 16 22 23 28 35 34 36 39 42 44 44 47 51 54 55 55 60 63 67 67 64 60 60 48 41 43 43 42 48
25 35 44 39 36 29 33 39 39 33 34 29 32 21 19 16 17 22 24 30 32 35 38 43 43 45 47 50 52 55 59 63 66 72 66 57 59 51 45 48 50 48 53 48
28 28 40 40 33 31 26 26 28 29 30 25 37 24 23 18 17 18 23 27 31 34 38 42 42 45 48 50 53 55 61 62 68 69 60 61 58 51 53 53 55 60 54 47
29 28 35 42 51 45 38 29 29 26 27 24 23 20 21 21 20 20 22 24 30 33 39 41 43 46 50 52 55 59 61 65 68 64 63 59 55 55 54 58 65 60 52 46
34 34 34 35 41 41 34 32 29 25 22 26 21 20 18 20 20 21 24 24 27 33 35 39 43 47 51 53 56 60 61 66 68 65 61 58 57 58 63 65 63 56 50 44
39 39 36 35 33 35 34 29 24 24 22 23 21 21 20 22 23 22 25 26 28 33 37 41 43 47 50 52 55 60 66 68 71 63 61 62 63 67 67 61 57 52 47 48
45 42 41 36 36 35 39 29 25 24 24 23 24 23 28 29 26 25 28 30 31 33 36 38 42 48 52 54 56 64 69 72 68 68 68 68 72 70 62 57 51 48 50 54
44 41 41 38 40 52 22 23 22 24 23 25 26 25 27 28 29 30 29 31 32 34 38 42 47 50 55 58 61 69 72 71 76 69 75 80 75 62 57 52 45 49 52 50
40 39 42 52 34 27 23 20 21 23 21 23 26 25 27 30 28 29 36 37 38 41 41 45 50 56 63 64 68 71 73 76 72 84 79 77 65 60 54 48 46 49 46 48
40 41 40 40 54 57 31 27 25 26 26 28 26 28 29 30 37 38 43 42 40 42 47 52 58 64 68 70 72 73 76 83 83 80 83 72 63 54 51 55 52 49 50 49
44 47 49 46 51 36 27 25 25 29 35 32 29 32 33 35 38 42 41 41 46 52 58 62 69 75 76 74 76 83 84 87 85 85 73 67 58 55 59 49 47 50 48 50
39 42 49 46 55 48 26 28 31 38 32 34 33 36 39 40 41 45 46 47 54 62 69 72 75 74 74 80 88 90 90 86 87 77 66 62 62 60 55 52 48 54 50 53
40 36 40 34 39 36 29 30 34 32 32 34 37 38 42 44 46 51 59 62 66 70 70 69 70 77 83 88 92 91 93 87 75 71 66 66 61 58 57 52 48 47 52 53
36 33 34 33 32 34 35 33 33 35 37 38 40 45 50 57 66 69 70 67 67 64 63 73 79 86 92 94 95 87 82 81 73 67 63 58 62 61 49 47 41 48 51 47
38 37 37 37 32 35 36 41 39 40 45 50 58 63 65 68 69 73 73 67 69 71 78 84 90 95 95 94 87 85 82 75 69 64 61 64 58 54 51 45 42 43 43 48
40 38 41 41 41 37 40 44 45 51 58 62 64 67 65 68 70 71 72 76 82 86 88 92 92 93 92 91 87 81 75 69 65 62 59 58 55 51 48 43 39 39 42 47

GFSCGP_prec_cthk_018.txt.gz
RH
41 45 48 49 47 40 41 35 36 34 33 33 26 40 36 26 43 52 47 68 43 48 49 48 50 52 57 64 62 63 65 73 73 76 80 76 63 54 49 42 41 41 44 46
41 49 51 48 44 42 36 36 31 31 24 22 27 35 24 29 35 42 47 43 60 52 52 49 49 52 56 63 64 68 69 69 69 72 70 56 54 50 43 42 44 46 48 50
52 49 47 41 42 36 34 34 38 34 21 18 39 33 35 27 35 44 45 46 49 52 50 52 54 56 59 62 64 63 66 65 59 60 53 55 48 46 46 48 50 53 54 56
57 49 43 40 36 35 43 43 41 43 39 38 38 41 41 53 37 33 37 37 39 49 49 51 55 55 60 63 65 64 60 59 56 55 50 46 47 51 53 54 54 60 63 68
51 51 40 39 48 45 46 40 39 41 35 44 52 44 48 46 42 33 33 36 40 46 45 48 52 53 61 64 61 59 54 52 52 49 48 49 49 53 55 57 61 62 67 68
48 48 51 55 39 33 36 29 34 32 34 55 49 54 56 57 50 55 45 48 44 41 44 49 49 51 53 53 52 50 50 50 49 48 49 47 49 50 51 56 58 66 68 61
44 31 31 33 34 28 21 32 42 62 60 44 38 46 50 44 56 57 54 47 43 42 43 45 45 47 49 50 48 47 48 50 49 47 48 49 52 51 55 60 60 58 57 53
57 55 41 29 30 46 49 29 47 80 83 53 47 40 37 37 43 40 55 50 40 43 45 45 43 44 45 47 47 48 49 49 49 48 49 51 54 62 61 58 52 49 44 42
63 60 62 44 36 27 35 40 42 50 63 48 34 23 30 33 38 35 40 39 38 41 42 42 42 43 44 48 49 50 50 50 50 51 51 56 60 62 63 53 47 49 50 38
66 78 53 43 33 26 24 35 39 33 37 34 26 34 41 43 34 21 29 36 37 39 40 38 39 40 42 45 49 50 52 51 50 52 57 62 66 68 62 51 50 52 47 41
36 53 51 39 33 24 34 30 27 29 45 56 45 34 35 32 23 19 24 36 36 34 34 34 36 38 42 45 47 50 51 49 50 56 61 65 66 64 58 54 56 52 45 45
27 30 41 35 37 29 37 48 39 49 32 43 43 27 24 22 15 16 20 28 34 32 34 35 36 38 41 44 46 49 51 50 53 58 64 66 66 66 62 57 56 50 51 58
31 28 35 37 51 33 26 23 29 44 42 41 50 29 24 22 20 19 19 22 32 35 36 38 39 39 40 44 49 51 53 55 58 63 66 69 68 71 69 65 57 55 62 64
28 30 29 41 39 51 55 35 28 31 45 37 29 22 30 25 25 23 22 22 27 33 36 42 46 45 47 49 50 53 54 58 61 67 74 70 72 67 70 60 55 67 72 64
29 30 31 33 39 52 54 45 39 35 31 34 26 26 27 25 28 27 26 27 25 29 41 44 52 53 51 49 52 56 58 61 64 73 71 74 73 73 64 65 71 76 69 60
37 42 38 37 34 37 37 39 36 31 32 32 25 28 27 28 27 26 26 27 29 28 32 38 43 50 53 54 57 59 57 58 67 76 74 78 74 73 76 79 71 65 64 60
50 53 50 43 37 36 38 31 28 27 28 27 29 25 25 28 30 30 28 28 30 29 30 36 44 49 53 53 55 57 60 65 71 73 77 76 77 81 84 71 73 67 63 65
58 56 50 50 45 50 25 24 24 25 25 25 26 28 32 30 32 31 29 28 31 38 38 41 41 44 48 53 58 62 64 70 75 76 78 81 86 85 77 78 67 59 70 67
45 47 52 61 44 30 28 26 23 24 24 25 25 25 28 30 29 29 33 37 40 39 39 40 41 47 54 61 67 70 75 77 76 78 81 89 86 85 76 70 66 74 64 65
42 47 50 47 55 56 36 31 27 25 29 28 27 29 29 29 36 37 40 39 39 39 40 48 51 59 67 71 75 74 74 76 81 87 89 90 88 83 69 70 71 67 66 62
47 49 54 52 57 46 33 30 27 31 37 34 32 30 30 34 37 39 39 39 40 43 50 58 67 70 72 68 70 77 80 81 91 89 95 91 81 73 77 71 69 66 60 62
40 47 53 52 62 56 29 28 31 41 36 31 32 33 34 37 36 37 40 49 50 58 64 63 65 66 67 73 78 82 85 94 97 94 89 84 78 77 74 71 68 61 54 49
42 38 45 40 43 36 32 31 31 32 32 33 34 35 37 39 42 50 58 65 62 67 63 62 64 75 80 83 86 91 98 97 95 94 86 79 76 70 68 64 51 45 45 46
37 36 38 37 29 34 36 35 34 35 37 39 38 41 48 52 61 64 65 65 63 63 62 75 77 80 84 87 89 89 92 91 92 88 80 72 69 66 57 51 44 40 38 41
40 37 35 35 34 35 38 41 43 38 40 43 47 55 58 60 61 63 64 68 67 72 75 76 81 86 88 90 91 91 91 89 82 74 69 63 58 52 47 43 43 38 38 40
38 38 41 44 42 39 43 45 42 45 46 49 55 57 59 60 62 65 68 74 77 80 82 85 88 86 86 85 82 78 76 72 66 58 53 51 45 42 41 40 39 40 40 45

GFSCGP_prec_cthk_021.txt.gz
RH
35 42 50 46 50 45 44 41 42 38 39 31 37 36 43 42 35 44 48 55 43 42 37 39 42 49 49 56 54 55 63 64 57 58 57 63 65 61 51 42 36 35 38 44
47 49 46 46 48 48 44 45 40 36 37 27 38 38 31 36 35 48 48 52 41 47 41 38 40 46 47 45 51 58 64 64 60 59 60 61 57 48 41 37 38 41 44 47
48 45 51 49 45 45 44 46 38 35 31 16 27 34 35 34 37 52 51 43 42 43 38 39 39 44 46 48 54 64 60 59 60 61 59 54 50 45 41 40 42 46 48 51
51 45 46 49 46 40 41 44 43 41 37 27 32 40 44 44 45 43 44 45 49 49 46 43 42 45 46 51 57 60 61 59 60 59 53 51 48 46 44 43 46 48 50 49
52 50 46 47 46 40 44 41 41 40 45 52 47 45 44 50 43 45 51 47 47 46 43 44 46 49 51 51 51 55 56 59 54 52 54 52 51 46 46 48 49 52 51 52
48 46 45 42 41 41 33 35 35 42 45 56 40 46 53 44 45 43 46 46 43 48 51 51 49 53 53 52 53 52 55 51 50 53 52 49 46 48 49 52 57 59 62 58
45 46 50 46 38 32 36 30 45 45 59 55 50 54 51 46 46 39 35 34 39 43 47 47 50 56 51 50 55 56 51 50 52 52 51 51 51 54 57 58 61 63 65 53
50 52 48 53 44 47 49 34 52 59 78 59 59 64 50 40 41 44 39 43 41 39 44 46 46 47 50 49 51 50 48 47 48 49 52 56 58 59 60 63 66 63 56 47
51 55 49 54 46 49 39 47 47 65 69 72 58 42 45 46 45 49 44 41 35 39 43 41 44 43 43 45 44 45 44 43 46 50 55 59 61 62 66 68 65 60 53 50
51 55 56 61 51 42 30 40 50 54 54 43 30 41 53 53 50 38 32 34 39 39 38 38 37 35 36 38 41 43 44 45 48 52 58 61 65 66 69 67 71 69 57 63
53 56 56 58 56 41 33 32 27 30 44 54 56 45 40 37 34 31 36 37 37 34 35 35 34 32 31 33 37 44 46 47 51 55 60 62 66 71 69 70 72 62 64 56
61 56 53 44 39 35 31 37 52 56 38 50 50 36 30 30 29 29 26 30 33 35 35 34 34 33 34 36 38 43 47 51 53 56 60 67 73 74 70 73 74 67 63 58
38 37 45 39 39 41 41 32 37 44 48 48 50 37 25 23 26 26 24 25 30 35 37 37 37 36 36 39 43 48 51 53 53 57 63 69 72 70 73 74 70 70 61 69
35 31 32 36 25 39 47 45 37 33 49 45 45 33 22 26 31 29 27 26 27 32 36 41 44 44 46 48 51 56 60 60 58 57 59 67 68 71 74 75 76 71 71 74
31 29 26 27 29 38 44 46 57 44 37 43 36 34 25 33 33 32 31 31 31 33 40 44 45 53 58 58 63 65 64 63 59 57 61 66 67 72 74 76 79 80 78 71
29 33 29 29 29 36 40 46 46 46 38 36 34 34 30 33 31 30 31 32 34 35 35 33 44 48 49 59 60 65 61 60 60 64 71 73 70 69 79 83 85 83 77 76
42 42 44 45 41 35 35 25 30 30 37 36 33 31 31 34 31 30 30 31 32 32 30 32 36 43 47 48 49 50 55 61 67 73 76 75 75 79 85 90 91 86 76 79
53 56 59 60 49 42 27 25 27 28 30 30 31 32 31 32 33 33 33 33 33 32 34 37 38 41 42 44 49 59 66 72 74 76 75 78 81 85 90 95 88 75 81 78
64 60 64 57 54 38 28 29 28 27 30 28 28 29 30 32 33 35 35 33 34 36 36 37 36 36 45 55 66 71 74 74 74 75 78 83 87 91 95 89 82 87 78 78
43 47 49 55 55 48 38 32 29 28 37 31 30 31 31 29 36 38 37 37 36 36 37 39 41 49 59 64 67 68 69 73 78 82 84 89 92 95 90 86 88 79 76 70
49 52 55 60 58 49 37 32 29 34 36 33 31 32 31 33 35 36 37 37 36 35 43 53 58 62 64 65 69 78 82 82 85 89 90 96 96 93 91 86 80 74 68 54
41 49 51 56 60 54 30 28 29 35 32 32 32 31 32 32 34 35 38 39 44 52 58 60 61 65 70 77 82 86 86 92 92 95 95 96 95 91 84 77 69 61 51 46
42 37 41 40 42 32 28 29 32 32 31 32 33 35 35 35 40 45 48 53 56 57 60 63 66 69 76 84 86 88 92 94 95 92 88 82 76 73 69 63 58 47 43 40
36 35 40 38 35 34 31 33 33 33 34 35 36 35 37 42 47 54 58 58 59 59 63 65 71 77 78 80 83 81 81 77 72 71 67 64 58 57 58 51 44 40 38 39
38 37 38 36 32 37 39 41 41 41 41 40 41 41 45 49 54 57 60 60 60 64 69 74 77 78 76 75 73 68 63 57 54 51 48 47 45 36 33 32 31 35 40 43
38 39 39 43 38 38 42 42 43 43 44 45 48 49 53 55 59 61 62 66 73 77 80 78 74 72 68 63 57 50 45 42 40 38 34 31 29 27 30 33 36 42 47 49

GFSCGP_prec_cthk_024.txt.gz
RH
36 39 44 42 50 49 48 47 42 42 42 44 43 47 47 47 42 40 49 50 45 43 44 40 41 45 48 54 51 55 62 64 63 63 59 55 50 50 48 42 38 35 33 34
43 46 47 52 52 49 53 46 45 39 35 39 41 42 47 50 41 41 37 47 49 50 46 43 39 39 42 48 47 56 63 62 61 59 57 55 55 56 51 42 39 37 37 41
43 41 46 52 53 50 48 47 44 40 34 38 37 40 51 48 46 51 44 38 38 35 38 42 41 39 41 46 49 68 63 63 59 59 60 60 60 58 49 44 41 40 44 48
46 42 45 52 49 46 45 41 41 38 39 34 25 40 40 41 45 51 52 46 36 36 38 40 41 42 43 49 66 61 64 61 62 64 60 60 55 50 48 47 46 47 51 54
50 46 45 50 47 44 42 43 44 43 44 38 38 40 42 42 46 46 51 49 49 37 37 40 39 43 54 61 63 63 59 58 64 61 61 55 53 53 52 52 52 54 57 60
46 48 45 50 49 45 43 41 47 47 50 58 52 51 45 48 44 43 46 49 47 47 46 46 48 54 63 65 71 62 58 61 63 63 58 54 55 55 55 58 61 64 66 68
47 46 44 44 45 43 39 34 47 48 62 63 54 50 45 44 43 42 42 42 41 47 51 52 54 56 67 65 61 51 51 57 60 57 54 57 60 63 65 66 68 71 69 71
49 53 51 44 46 41 45 46 45 44 61 52 51 46 34 44 42 43 39 42 45 46 49 51 51 59 58 58 53 53 51 54 53 53 56 63 66 67 68 71 74 73 73 74
50 55 50 44 44 45 51 49 45 59 65 63 57 47 37 40 41 36 40 32 34 37 39 44 45 50 54 52 51 50 48 51 51 56 59 64 68 71 72 75 74 73 74 77
40 52 51 51 46 49 45 47 54 61 65 64 39 35 42 38 42 43 38 33 31 33 35 40 42 40 39 39 41 41 45 49 54 59 62 65 67 70 73 73 79 83 78 70
45 50 50 47 46 51 45 38 41 50 59 53 53 43 38 39 31 31 28 27 26 27 30 32 33 32 31 35 37 38 40 44 49 54 60 66 71 72 75 82 77 72 70 75
44 51 65 52 46 40 40 36 38 51 41 55 52 39 35 36 36 33 30 29 25 27 29 31 31 31 33 34 34 34 38 44 48 55 61 63 66 70 71 69 68 69 75 74
49 58 64 58 47 46 42 43 43 45 60 54 52 44 31 28 28 31 29 28 28 29 31 35 38 37 37 37 39 42 41 51 65 68 68 67 65 63 62 63 68 71 70 70
53 51 42 42 36 38 42 43 47 50 51 50 49 38 35 29 27 29 28 27 29 32 36 40 42 40 40 44 50 50 54 64 74 73 65 61 62 63 66 68 68 69 71 74
55 50 43 36 29 28 30 34 36 46 52 50 35 39 35 27 28 28 29 28 28 32 37 41 42 44 43 49 51 57 70 76 74 63 59 63 68 69 68 69 70 74 76 79
49 50 46 39 35 29 28 35 32 42 53 52 44 39 36 35 30 28 29 33 34 36 37 39 42 42 43 47 53 64 63 61 59 59 65 71 72 69 69 73 75 77 79 85
44 46 44 39 34 31 39 25 30 33 49 45 46 42 40 38 36 35 36 39 40 40 38 36 34 32 35 41 47 48 50 57 62 68 71 71 69 72 75 75 76 79 85 89
48 51 53 52 43 51 34 26 24 27 29 32 33 35 34 37 38 38 38 38 38 38 38 37 35 35 34 36 42 49 56 64 70 72 68 71 75 74 72 74 78 83 87 92
56 73 72 62 62 49 34 30 27 30 37 34 33 34 35 37 36 38 38 38 38 38 37 36 34 33 35 40 50 59 65 69 71 75 79 76 75 78 78 93 97 93 92 82
59 64 71 76 63 54 36 32 31 32 43 36 34 34 33 32 40 40 38 38 38 37 35 35 35 40 48 54 57 60 66 75 79 81 79 80 91 97 91 91 96 90 75 69
49 55 56 64 57 45 34 36 32 35 35 36 34 34 32 32 33 33 34 34 33 32 34 41 50 56 58 58 60 65 73 79 82 84 90 92 93 91 86 85 81 75 63 57
41 50 55 61 63 48 34 33 33 32 33 31 31 31 32 31 32 32 33 34 38 42 49 54 56 55 55 59 64 74 85 90 90 91 91 89 86 83 80 71 63 53 47 45
38 35 40 40 39 31 28 28 27 28 29 30 32 33 33 31 32 34 38 42 47 51 54 56 55 56 63 71 77 82 85 87 85 81 75 70 62 55 51 44 43 43 33 25
36 34 38 36 32 33 31 30 29 28 30 33 34 34 34 34 37 41 46 50 53 55 57 58 61 69 75 78 80 79 77 71 66 59 51 46 42 40 39 36 29 26 26 30
34 36 37 39 39 37 36 34 34 35 36 37 39 40 43 46 48 51 52 54 57 60 62 69 76 79 77 75 71 64 56 51 49 43 37 33 31 28 24 24 25 26 31 36
33 34 37 39 34 36 39 40 41 41 43 44 45 48 53 55 56 58 60 62 67 74 80 82 79 75 70 64 56 52 49 41 31 28 26 24 24 24 25 27 28 34 40 47

GFSCGP_prec_cthk_027.txt.gz
RH
33 33 39 48 47 46 45 44 47 44 41 46 47 49 52 50 50 50 58 58 52 39 38 41 41 40 46 43 40 44 56 58 58 56 56 57 57 57 54 51 48 41 38 35
41 43 41 45 47 51 51 51 48 40 34 36 38 43 51 50 47 47 47 52 48 45 41 38 38 40 40 41 43 49 60 57 60 54 57 59 61 59 56 56 52 45 41 39
39 41 45 44 46 51 51 49 43 42 37 38 34 39 47 44 51 54 55 46 44 36 34 38 40 41 43 44 48 59 65 65 67 60 63 67 70 67 60 59 56 49 45 44
43 41 45 48 52 47 46 43 40 39 34 37 32 34 36 41 43 46 49 53 47 34 32 37 43 46 47 52 61 68 70 73 71 67 66 78 73 67 61 61 55 51 50 50
42 44 45 46 48 47 46 44 43 40 45 48 43 39 34 39 49 46 45 50 58 54 40 39 44 48 52 61 68 75 74 73 68 64 71 75 70 63 60 59 55 53 55 58
45 42 43 47 46 45 44 47 48 49 49 55 45 48 43 40 41 42 43 47 47 50 50 49 51 54 60 65 69 80 68 64 61 59 70 69 62 61 58 58 57 61 63 65
44 43 44 45 47 45 42 44 45 52 60 58 54 52 41 36 37 37 40 40 40 44 48 50 55 59 61 67 75 76 60 56 59 56 61 57 58 62 62 65 67 68 69 70
47 48 45 45 49 48 47 44 51 43 59 51 50 45 42 33 41 41 38 33 37 45 47 47 55 61 61 64 77 66 57 60 56 54 54 55 59 65 69 72 75 72 73 71
51 49 48 49 48 47 44 44 45 60 63 60 48 45 35 34 35 40 36 35 32 31 36 40 47 48 54 63 66 55 49 49 46 50 54 57 60 68 70 74 77 78 76 74
42 47 52 52 47 43 43 46 50 58 62 59 49 43 34 39 41 42 39 35 29 27 31 36 38 40 47 53 44 40 40 40 43 46 49 54 61 67 71 74 76 74 76 78
40 36 44 50 47 46 48 52 53 47 58 61 64 45 28 35 27 27 29 29 27 27 25 28 29 32 37 36 34 34 36 38 40 42 47 57 68 70 72 73 73 71 73 71
37 39 48 43 45 47 52 51 55 57 41 61 57 40 29 36 33 31 29 29 29 26 23 22 27 34 38 37 39 39 41 45 47 51 64 74 78 78 76 73 67 68 70 72
40 40 48 44 48 47 46 44 45 44 48 49 57 50 31 37 28 26 27 25 25 26 29 32 33 36 41 45 47 47 56 56 63 78 81 80 81 76 75 68 67 71 72 73
42 44 43 52 47 51 50 47 45 50 62 49 46 34 33 31 31 29 25 25 26 27 30 33 35 39 51 50 52 57 65 67 74 80 76 80 70 76 70 69 72 72 71 76
46 50 48 53 44 40 38 43 47 41 42 45 38 45 35 32 35 30 28 27 27 29 32 36 40 44 48 50 53 59 66 70 70 64 64 66 72 69 70 72 70 73 77 77
48 56 57 61 51 46 42 34 32 35 33 37 40 47 36 33 35 33 29 30 32 33 35 38 41 44 43 43 48 50 57 56 57 54 58 66 70 72 73 72 76 77 77 77
50 56 55 51 51 44 45 33 31 26 27 32 39 41 42 43 40 37 34 33 35 35 37 38 39 38 37 38 41 42 46 48 50 58 67 72 72 74 75 77 78 82 82 90
53 55 57 58 49 53 30 28 27 27 24 23 28 32 37 39 40 40 36 36 37 38 37 35 36 36 36 35 34 33 37 46 55 63 67 71 74 76 78 82 84 83 89 93
56 57 57 54 62 55 41 36 35 32 29 27 29 33 35 36 35 37 37 36 35 34 34 35 34 34 33 30 33 38 48 57 62 67 69 74 74 80 88 84 86 87 90 90
58 57 57 64 68 71 53 47 40 36 42 32 33 36 36 35 40 38 35 34 34 34 34 35 34 33 33 37 44 51 55 57 61 65 71 79 87 87 88 90 91 89 87 85
60 61 63 65 65 53 41 40 36 41 34 34 37 37 38 37 35 35 34 34 34 33 32 35 38 41 44 48 50 53 56 60 67 75 80 84 89 91 91 88 84 81 74 61
51 62 59 55 54 46 32 35 35 33 36 38 38 35 34 34 33 34 33 33 34 36 39 43 45 46 47 47 49 55 64 74 80 87 89 88 86 84 81 74 62 53 45 39
49 38 37 37 36 30 29 30 31 33 32 31 31 32 32 33 32 32 34 38 42 46 49 50 50 50 52 56 62 68 78 84 85 84 84 77 68 60 50 43 39 35 32 29
42 32 33 32 29 29 28 27 27 27 28 29 31 32 34 32 34 38 42 46 50 53 54 56 57 59 66 75 78 77 76 74 71 64 57 52 46 39 33 28 26 25 24 26
32 32 34 33 32 32 30 29 30 29 30 31 34 36 37 39 43 48 53 55 58 60 63 65 68 74 78 77 73 70 68 63 57 51 46 38 31 25 22 22 24 26 28 33
31 30 34 36 32 32 33 34 33 33 36 38 40 42 46 50 54 58 61 64 68 72 72 74 77 78 75 70 69 67 62 53 44 37 32 27 23 23 25 27 28 33 37 42

GFSCGP_prec_cthk_030.txt.gz
RH
35 38 37 38 45 45 47 44 45 47 45 46 46 47 50 58 59 57 69 58 43 42 44 45 43 42 44 47 46 52 61 58 59 56 56 61 61 60 60 60 57 57 50 45
42 43 39 41 45 47 45 45 47 47 45 40 41 44 43 50 55 49 53 58 44 43 44 45 44 44 43 40 43 48 60 62 65 62 61 64 66 65 64 63 59 56 54 45
44 43 43 37 45 50 48 49 50 48 39 41 38 37 44 42 50 53 53 52 44 44 40 41 41 39 40 41 41 50 58 61 66 68 62 60 66 68 71 71 59 57 55 47
42 43 43 38 44 51 51 48 49 46 43 41 43 42 37 39 49 49 52 51 46 35 36 41 45 47 45 48 51 54 59 61 66 67 66 59 68 75 79 76 60 60 59 52
43 46 44 42 44 45 47 45 44 42 42 43 45 42 36 37 44 47 45 50 51 51 45 44 48 54 53 51 53 62 74 74 74 68 68 61 72 84 80 77 69 64 62 56
41 45 48 44 44 41 43 43 44 44 44 50 46 45 40 40 39 44 47 48 50 51 44 43 48 54 56 56 57 72 88 70 74 72 69 64 66 75 74 70 69 65 66 62
41 44 45 46 46 43 42 44 48 44 56 53 50 50 39 35 35 37 42 44 44 42 42 46 47 49 56 55 58 66 86 84 73 74 74 64 62 69 69 70 67 68 70 73
45 46 46 45 48 47 44 44 51 42 56 49 50 45 30 35 34 35 38 38 37 36 35 39 44 44 50 53 55 65 83 79 67 68 62 55 56 65 67 70 73 77 77 80
47 45 47 49 49 50 49 49 45 58 65 63 48 37 28 32 38 39 39 38 37 39 38 33 36 39 45 43 52 58 70 63 52 53 49 49 58 59 65 77 74 73 78 79
43 46 50 52 54 52 48 48 52 56 55 57 51 46 37 28 38 41 38 37 33 27 27 30 33 36 35 39 43 53 51 42 45 39 40 44 49 54 64 66 79 82 81 76
42 44 45 51 52 49 50 46 46 51 59 61 59 44 40 27 31 34 38 36 30 27 25 27 29 32 31 32 30 37 34 34 33 37 42 50 67 74 75 84 84 77 76 77
34 43 50 42 47 48 44 45 49 59 54 68 62 40 33 29 31 37 32 29 29 31 28 25 23 24 25 30 34 38 45 45 48 58 65 76 79 75 76 75 76 73 73 72
40 45 52 43 41 46 46 46 48 52 57 57 55 38 31 43 33 29 28 29 26 27 29 28 26 27 30 36 43 55 60 69 65 70 74 76 80 75 71 69 76 76 71 71
42 46 41 39 33 42 49 48 51 52 60 48 47 37 36 34 34 31 28 26 27 26 26 28 28 30 36 42 56 65 62 62 61 67 73 77 76 65 67 72 74 72 71 74
43 46 46 43 43 47 44 43 49 47 47 47 35 38 35 33 37 38 30 28 26 29 29 30 32 36 41 48 54 56 53 52 54 61 69 72 68 65 71 77 79 75 74 80
46 49 47 50 53 51 51 38 35 35 32 35 36 32 27 30 41 38 36 35 34 33 34 35 37 39 43 45 46 44 42 45 51 55 58 62 64 69 76 81 79 77 79 84
48 51 55 62 62 60 58 40 36 33 28 29 32 27 27 29 37 45 46 42 39 39 38 37 39 39 38 38 34 35 37 39 43 47 53 57 68 79 85 87 83 81 85 91
51 46 57 68 64 63 35 33 31 32 27 26 26 25 26 26 33 39 42 40 41 40 38 38 38 37 34 32 33 33 33 34 37 45 55 64 74 80 85 82 83 88 92 95
50 59 67 65 62 47 38 31 33 44 35 30 27 28 28 30 32 37 39 39 40 39 38 36 34 33 34 33 31 32 37 43 50 56 61 66 74 76 81 84 91 94 95 97
49 57 68 67 65 56 39 35 48 49 45 36 33 34 35 36 40 41 39 38 36 35 34 34 33 33 32 34 39 42 46 49 52 55 61 68 74 81 86 91 89 89 88 89
61 69 73 77 68 54 41 35 37 44 34 32 34 35 37 37 36 37 38 37 35 34 33 32 34 36 40 43 45 44 45 47 53 62 70 77 81 86 89 89 86 84 86 80
55 68 74 72 65 56 38 33 33 30 27 29 33 34 36 37 36 34 33 32 31 31 33 37 41 45 47 47 48 49 53 59 65 73 80 82 83 85 84 78 69 61 53 42
54 48 54 48 49 43 31 23 27 28 31 32 34 36 34 31 31 31 31 31 32 35 40 45 48 50 53 55 58 62 68 72 75 72 71 71 69 64 56 50 44 34 27 23
54 45 47 44 44 32 25 24 25 26 28 29 28 27 29 29 30 31 32 35 41 45 48 51 54 59 63 66 67 70 72 69 66 65 63 60 54 46 38 34 31 26 23 24
56 49 49 44 37 28 25 25 26 27 28 28 28 29 29 31 34 36 39 45 50 54 57 61 66 69 69 70 71 70 66 66 64 60 53 46 41 36 32 31 29 27 30 34
62 52 55 51 25 25 23 25 27 28 29 29 30 34 36 38 41 45 50 56 61 64 69 71 73 74 73 73 69 67 67 62 55 49 46 42 37 35 33 28 25 26 26 27

GFSCGP_prec_cthk_033.txt.gz
RH
32 31 32 31 37 44 44 45 47 45 49 50 49 48 54 60 62 66 59 45 42 40 40 41 43 45 50 55 60 63 64 62 57 55 59 60 63 69 69 63 58 55 54 52
35 33 29 33 38 40 41 44 46 46 45 45 45 47 45 51 54 57 64 52 41 41 44 42 43 46 47 47 48 58 65 61 61 62 61 61 66 67 66 63 64 62 56 54
38 33 33 38 45 46 41 44 49 47 45 42 36 40 45 44 48 56 59 60 52 47 39 41 39 39 38 39 41 49 59 63 63 64 64 65 65 73 75 71 72 77 70 60
37 37 38 39 41 47 48 42 48 49 45 39 37 35 35 40 46 49 54 53 44 44 42 41 39 38 37 39 48 53 60 65 66 71 75 69 67 67 75 85 88 82 76 74
35 37 38 39 43 51 51 48 50 48 45 46 43 38 38 35 40 43 48 50 53 42 38 39 44 48 49 53 56 60 66 72 76 82 83 82 76 67 75 83 86 79 75 76
37 39 39 38 40 46 51 49 48 49 47 47 45 44 36 32 33 38 42 47 51 54 50 46 47 52 54 58 62 66 68 75 82 85 80 79 76 70 67 69 73 72 73 73
34 38 39 42 41 43 48 49 50 43 50 46 48 47 39 36 33 34 36 41 46 50 52 49 50 50 54 58 64 68 71 79 80 76 81 78 74 69 65 64 68 77 78 83
34 39 40 41 40 43 46 48 51 47 46 39 48 44 33 30 32 37 35 36 40 40 42 40 39 47 51 52 57 63 70 76 80 79 79 66 62 60 60 63 71 73 81 82
41 39 41 43 44 44 47 50 47 55 61 54 42 38 31 29 28 38 41 43 41 40 36 36 38 42 45 48 55 58 62 71 81 80 58 56 58 57 58 68 77 81 81 80
37 42 43 46 47 50 51 51 55 55 53 53 45 43 34 33 29 34 36 36 39 39 30 28 30 33 36 40 44 49 56 60 62 53 49 45 48 51 62 76 76 82 86 82
35 41 46 48 50 48 53 53 53 50 51 49 50 42 37 32 31 32 34 41 38 34 31 27 25 26 30 34 36 39 39 41 40 43 50 55 59 66 78 83 86 88 91 84
35 43 52 44 46 47 47 48 49 52 48 53 54 44 40 30 33 31 30 30 34 34 34 35 31 26 25 25 28 29 30 38 51 61 65 69 73 77 83 85 84 88 82 68
35 42 45 45 44 47 49 48 48 48 51 53 58 42 29 27 29 38 32 30 30 28 30 29 30 30 29 30 32 34 40 52 74 77 81 74 71 74 81 81 87 81 69 72
35 40 38 36 34 39 43 43 52 52 54 51 47 36 30 36 36 31 30 27 24 23 26 28 31 33 36 38 43 49 54 62 65 67 63 57 60 68 72 76 75 68 71 78
41 43 45 39 37 41 39 41 48 48 47 49 42 42 35 26 25 24 30 34 33 26 28 32 33 34 36 38 42 47 50 52 54 52 51 53 56 64 60 67 67 76 83 82
48 45 46 44 45 47 48 43 46 47 43 34 32 30 25 24 24 24 31 36 40 37 36 37 38 38 38 40 43 45 45 42 41 40 44 48 53 56 58 62 74 80 80 88
55 54 52 51 51 53 51 46 47 51 43 34 35 26 25 26 28 27 27 41 44 47 43 41 40 38 38 38 38 37 36 35 35 36 36 39 46 54 61 66 74 79 81 91
57 57 58 63 57 59 43 48 47 41 33 32 34 31 24 24 28 30 30 30 37 44 43 40 38 38 37 36 36 36 34 34 32 33 40 47 52 57 62 68 74 81 85 90
57 58 64 69 56 38 36 38 37 41 29 34 46 44 36 31 31 31 30 31 34 38 38 37 37 36 35 33 33 31 31 34 40 45 48 51 55 60 66 74 79 83 91 96
57 57 61 67 61 53 37 35 38 42 34 32 44 44 41 37 36 35 37 38 38 39 39 37 35 33 32 30 32 34 38 42 43 45 48 54 59 66 73 78 81 84 88 90
64 62 59 62 62 51 41 42 42 46 28 28 35 33 37 38 35 36 37 39 40 38 35 33 31 31 33 35 39 41 44 46 49 53 57 62 65 68 72 77 80 81 79 72
61 66 68 61 62 56 46 46 40 32 24 25 32 32 37 37 37 36 39 38 37 34 32 32 33 36 40 43 46 49 51 55 59 64 66 66 68 71 70 64 60 53 46 39
70 61 60 54 49 46 43 35 34 27 20 25 30 35 36 38 39 38 37 36 33 33 33 36 39 43 48 52 54 57 62 65 67 66 61 59 59 57 53 46 42 39 36 34
68 64 59 57 50 43 38 35 36 23 21 24 29 33 36 36 35 34 33 34 34 36 39 44 49 53 57 59 60 63 65 64 62 58 57 56 53 48 45 44 43 40 37 35
69 65 57 58 53 42 38 36 30 21 22 24 27 30 32 32 34 34 36 38 40 43 48 54 58 62 64 67 68 66 65 64 60 57 54 52 49 47 43 40 37 33 31 29
69 63 61 60 46 47 45 30 26 21 24 26 26 30 32 34 35 38 41 44 47 51 57 62 66 67 71 73 71 68 67 62 58 56 53 50 47 44 42 39 35 32 28 23

GFSCGP_prec_cthk_036.txt.gz
RH
27 28 28 30 29 38 40 43 46 48 48 54 49 50 54 58 64 59 50 47 44 40 44 43 47 51 58 59 62 64 66 66 66 59 53 51 58 59 60 66 62 58 54 52
29 27 27 26 29 32 36 41 46 42 44 48 45 43 43 51 52 62 55 45 43 42 42 44 48 52 54 57 63 67 71 74 70 65 57 64 67 67 71 66 62 60 58 60
31 31 27 30 35 36 37 43 43 42 43 47 42 40 40 41 47 51 57 51 43 42 41 44 48 51 50 49 53 60 68 71 69 70 68 68 69 70 73 73 70 70 72 76
32 31 31 34 38 40 45 40 41 44 44 43 37 39 34 36 40 45 47 48 41 42 43 44 45 43 41 43 47 50 57 64 71 72 73 74 69 69 73 78 82 85 87 88
31 31 35 35 37 40 47 45 44 45 47 45 42 37 40 34 31 38 44 42 44 37 36 37 37 40 42 44 48 50 53 58 65 71 73 77 77 75 79 76 74 73 81 85
39 31 36 37 38 42 44 44 46 48 48 48 42 39 40 37 31 34 38 45 45 46 39 36 39 46 47 49 52 53 54 58 69 79 81 88 82 84 83 84 79 70 70 79
35 35 35 37 37 42 43 46 50 50 51 49 43 40 40 36 31 30 30 38 43 46 49 51 53 46 47 52 57 60 64 70 80 80 86 87 84 86 87 84 74 68 67 79
35 40 34 37 40 43 43 47 50 54 47 42 44 39 39 33 29 25 29 32 35 45 50 50 53 56 57 55 64 68 68 70 85 67 85 82 81 75 68 64 63 65 72 85
35 38 35 38 41 43 46 45 47 51 51 46 43 38 31 29 28 26 32 36 33 42 45 46 50 50 52 53 57 64 69 71 71 85 84 64 61 54 56 60 60 70 80 89
34 40 36 42 45 46 48 47 48 48 55 53 45 41 39 37 32 28 29 34 39 42 44 46 44 46 51 53 53 55 60 64 64 64 70 57 50 52 57 65 70 81 88 89
33 36 47 42 44 46 48 47 47 51 51 50 47 42 37 38 35 34 32 34 35 32 35 37 33 31 34 39 45 48 49 51 54 53 51 46 56 67 72 75 79 82 88 91
32 37 45 44 46 47 49 47 49 52 50 47 49 38 36 38 38 33 36 32 32 38 41 41 41 39 32 32 37 42 41 43 47 48 47 59 73 79 78 66 68 81 86 88
35 37 44 43 43 44 45 44 44 47 48 46 55 41 34 30 27 30 35 33 30 30 31 32 31 37 39 37 34 37 41 41 44 52 63 73 74 75 64 58 65 76 78 79
35 35 35 42 38 43 48 44 47 49 52 46 47 40 40 43 34 34 34 33 35 30 28 29 29 32 34 37 38 38 38 42 52 64 67 65 62 60 62 63 64 74 78 79
38 38 36 35 36 37 37 38 39 40 39 47 46 43 38 37 40 36 23 21 27 31 34 33 34 39 42 42 43 45 48 54 58 61 61 59 56 55 61 66 67 66 67 71
41 40 38 37 36 40 41 35 38 38 38 39 38 40 29 27 28 27 23 20 29 34 35 40 40 44 49 51 52 53 53 55 58 55 54 51 46 47 51 50 54 60 63 68
46 43 45 43 45 46 47 38 37 36 37 39 42 37 31 32 29 25 28 30 26 39 43 45 50 51 50 49 49 46 46 45 44 43 42 40 41 40 43 48 54 57 64 67
55 46 48 49 57 64 34 37 40 42 43 44 41 30 28 31 35 28 26 30 32 31 40 46 49 50 47 45 43 42 40 38 38 37 37 38 41 47 51 55 59 62 67 72
61 58 59 65 52 38 39 37 38 45 39 39 29 30 32 44 45 38 31 31 31 33 33 35 39 42 42 41 38 35 34 33 33 34 37 41 43 47 52 57 62 67 72 77
66 64 65 63 55 53 35 36 33 35 29 36 33 25 29 38 38 36 35 34 35 36 39 41 41 40 37 35 34 31 31 33 35 38 41 46 51 55 60 62 66 67 68 71
69 68 68 62 62 43 35 37 44 50 29 42 31 22 29 33 31 35 39 40 40 41 41 41 39 35 34 32 31 33 36 39 43 47 51 54 56 57 59 62 62 61 60 57
69 66 65 62 69 56 37 39 40 40 45 32 29 21 27 30 33 37 40 41 42 43 42 38 36 33 33 35 37 40 43 48 50 53 57 57 57 56 54 53 50 46 44 41
80 65 59 53 48 42 42 37 41 46 40 34 29 21 28 31 34 37 39 40 42 41 39 37 35 36 39 42 44 47 50 54 57 57 56 51 50 50 47 45 44 47 46 45
55 62 71 65 50 51 48 44 44 44 38 35 28 21 27 31 34 36 38 39 39 37 35 36 38 41 44 48 51 52 56 58 57 54 52 50 49 48 47 46 44 45 44 42
48 60 70 65 58 55 52 52 47 43 39 35 27 23 27 32 33 34 35 36 37 37 38 40 43 46 50 54 55 56 59 60 59 56 52 51 51 48 45 44 44 43 40 35
48 50 61 58 60 61 57 55 51 44 40 28 24 24 27 31 33 35 35 37 38 41 43 47 50 52 56 58 59 60 63 62 59 55 54 51 49 47 47 46 48 42 35 31

GFSCGP_prec_cthk_039.txt.gz
RH
29 33 35 36 38 37 44 38 40 50 54 47 55 49 68 55 51 55 45 38 38 46 51 49 51 55 56 59 59 59 61 69 67 62 58 57 62 68 79 83 87 78 71 61
36 35 32 42 31 31 41 40 38 41 34 35 45 42 48 55 47 53 51 40 39 41 48 46 49 53 57 58 60 62 65 66 70 64 56 55 55 66 72 74 82 72 65 63
34 40 37 31 27 30 42 41 40 40 47 36 38 38 40 50 44 49 53 47 40 37 39 40 44 52 53 57 58 61 66 65 71 68 67 63 66 68 71 76 75 70 71 75
33 37 31 26 35 38 42 39 44 40 39 44 41 45 48 46 40 43 48 50 43 41 40 39 41 49 47 49 52 55 60 63 70 73 79 74 72 72 74 82 84 82 81 85
35 34 33 31 38 44 48 53 41 42 45 45 38 36 45 38 38 42 41 46 44 45 41 40 39 41 42 41 42 46 51 59 66 68 75 79 77 79 74 76 79 83 80 77
35 37 33 36 40 43 46 50 47 42 46 48 42 39 44 45 37 40 46 43 48 44 46 40 40 39 37 40 41 46 50 51 59 65 66 78 87 85 88 91 82 82 83 80
32 39 30 36 43 39 43 50 54 49 52 45 43 38 37 43 39 37 39 48 49 44 47 50 53 49 49 45 44 51 56 59 57 69 77 72 73 86 86 87 91 86 82 73
39 40 33 31 35 46 40 49 54 87 55 46 48 34 36 39 37 31 30 31 37 51 47 46 51 56 60 62 65 60 61 66 79 81 79 71 78 77 79 79 90 80 74 67
41 41 39 36 33 40 52 49 47 57 50 46 43 38 32 29 28 30 31 31 32 35 53 50 53 55 61 67 70 69 70 75 78 69 79 73 74 57 58 58 65 67 66 69
42 46 39 39 35 37 42 57 52 51 56 59 41 41 38 41 37 34 32 33 38 43 44 49 54 60 60 62 67 72 73 73 71 72 66 79 64 51 52 57 67 71 76 80
42 38 46 44 36 40 40 47 51 53 52 58 58 42 47 41 37 36 41 35 35 40 47 49 50 50 51 55 58 58 64 70 67 62 64 62 53 52 50 65 73 73 63 60
39 42 47 47 40 35 52 44 51 57 54 54 50 43 46 38 37 38 36 38 34 34 41 42 41 40 38 41 44 48 56 61 63 59 57 58 60 52 61 72 75 67 59 60
38 43 50 48 52 44 46 56 55 54 54 59 75 46 48 37 32 33 29 36 35 32 32 36 41 46 48 46 46 50 52 56 57 59 56 57 52 67 73 77 80 70 65 72
40 42 40 44 41 50 44 38 46 48 56 52 50 47 51 47 46 47 45 45 33 32 34 38 38 34 35 38 39 44 48 51 56 57 57 62 62 69 77 73 65 66 72 71
45 48 45 40 42 44 45 47 47 47 49 52 45 49 50 47 46 45 52 48 32 26 30 34 39 38 37 41 45 46 45 47 48 54 62 67 65 64 61 62 64 65 67 72
41 51 47 42 43 44 42 41 40 40 41 44 43 42 44 47 40 37 31 31 27 22 26 34 44 47 43 46 49 49 51 54 61 64 65 61 58 58 61 59 55 56 56 57
54 53 48 47 44 48 47 38 42 41 41 43 46 38 45 45 45 39 31 31 28 26 26 35 40 44 49 52 56 59 62 62 61 56 56 54 52 49 46 45 44 47 52 57
65 61 56 54 51 61 35 39 38 38 36 42 40 40 41 48 43 31 27 31 32 30 32 34 42 47 52 55 58 58 54 53 52 49 46 43 42 41 39 42 46 48 53 57
67 69 61 65 54 43 32 37 43 41 36 40 45 48 47 44 38 34 32 42 44 39 32 35 38 42 46 51 53 53 50 47 43 40 38 36 34 37 41 44 48 53 56 60
75 76 73 64 57 56 32 41 41 41 35 40 47 44 37 34 32 24 34 38 38 40 39 34 35 35 38 40 44 45 42 38 35 33 33 37 40 43 47 49 53 56 57 57
91 87 76 72 64 45 38 45 49 52 29 45 44 41 36 30 25 28 31 34 33 35 36 35 36 39 41 42 41 38 35 33 33 36 40 43 45 48 52 52 53 53 52 53
92 80 74 68 70 64 43 43 42 33 33 47 42 39 32 31 25 24 29 32 35 36 39 40 40 41 43 40 37 34 34 36 41 44 45 48 50 51 52 51 49 47 48 48
67 80 75 61 59 48 47 44 44 44 39 44 45 40 33 33 24 25 29 34 37 39 40 41 42 40 39 37 35 37 40 43 44 47 49 50 50 53 52 51 50 50 49 46
60 59 71 73 64 57 54 47 49 49 47 45 44 43 35 33 26 26 31 35 37 40 41 40 39 38 37 37 39 43 46 48 49 51 53 54 54 53 51 49 48 47 48 46
53 55 54 53 56 60 63 59 57 58 56 51 45 43 37 33 25 28 33 35 38 39 39 40 38 38 39 41 45 48 51 53 54 56 58 57 54 54 53 52 49 46 46 43
53 53 58 56 43 53 59 71 66 62 56 55 52 45 39 29 27 29 34 36 36 37 38 39 40 42 45 49 53 56 58 60 61 61 60 58 55 54 55 54 52 49 46 43

GFSCGP_prec_cthk_042.txt.gz
RH
28 27 24 28 32 33 38 43 47 50 45 42 51 67 72 66 55 46 43 30 28 34 46 44 49 48 46 50 53 50 58 63 66 64 63 59 59 60 54 73 83 73 74 77
32 32 33 31 35 33 35 36 40 38 44 36 33 40 59 60 54 39 41 39 33 38 43 41 43 50 51 48 47 53 52 54 58 54 50 52 52 53 58 64 70 77 78 70
33 34 44 38 32 30 27 30 37 42 49 44 34 36 41 58 60 51 41 46 42 37 37 40 38 44 51 50 49 51 55 59 56 52 48 51 50 50 54 59 67 82 78 83
37 38 42 36 29 25 28 30 41 46 47 39 47 46 40 54 53 52 39 40 41 44 37 36 39 42 46 50 49 50 50 52 55 56 63 64 57 59 59 67 76 80 76 78
36 44 36 35 24 26 36 42 43 41 37 43 44 42 33 40 46 58 47 42 44 41 43 40 37 36 41 43 44 44 47 49 52 61 62 70 67 70 74 73 67 76 81 80
39 46 44 38 28 32 43 44 52 44 34 46 42 40 48 47 47 47 50 53 51 46 46 48 43 42 37 37 37 41 43 47 55 55 65 70 78 76 75 88 87 84 77 80
40 42 47 37 34 34 37 43 46 50 53 49 43 41 40 43 41 45 42 43 44 47 49 47 51 49 47 45 42 45 48 50 54 59 75 80 76 83 79 77 88 93 89 84
44 50 42 37 36 40 37 39 47 73 83 63 55 44 34 35 38 40 33 32 40 48 48 48 46 49 53 55 52 52 51 55 59 63 68 77 66 71 71 65 67 76 77 79
48 49 43 43 34 38 45 41 40 69 81 80 73 43 34 32 35 29 29 31 31 34 48 45 51 43 47 55 57 55 60 60 61 63 61 68 66 63 69 52 53 56 57 67
45 55 46 49 44 32 35 49 52 54 70 74 45 38 39 42 41 40 32 32 36 35 32 40 62 66 54 50 54 57 58 59 65 68 68 69 62 60 69 52 48 49 62 73
46 51 52 51 48 41 36 37 47 51 54 61 53 45 52 54 43 42 36 35 34 33 36 36 39 47 55 63 75 73 65 65 69 74 74 73 68 64 60 52 50 52 66 72
44 48 52 57 50 42 37 36 37 60 51 57 64 46 47 50 47 43 36 32 36 33 33 37 36 41 47 56 64 60 64 69 69 67 64 78 75 70 54 60 58 69 71 75
48 50 61 53 58 51 40 38 52 43 51 54 73 56 44 40 35 36 29 30 32 30 29 33 37 38 38 39 43 60 61 60 69 66 76 78 76 65 65 65 72 68 74 68
51 52 49 56 48 53 49 45 48 54 59 53 59 50 44 47 44 41 48 39 37 35 34 28 35 34 32 36 39 45 47 48 57 64 69 73 69 66 60 66 69 67 65 64
55 59 54 49 48 46 53 50 40 53 61 56 50 47 34 38 46 50 57 50 46 41 37 34 33 43 40 37 33 36 40 42 52 58 69 64 58 70 74 71 68 64 65 67
55 59 58 55 54 48 49 47 50 42 36 35 41 44 45 44 45 47 51 45 38 32 33 31 27 38 38 41 43 42 43 48 50 54 55 58 68 70 72 68 63 64 63 57
59 56 63 62 54 55 50 46 45 47 48 43 45 43 41 37 44 48 46 40 36 33 27 29 27 38 38 43 44 46 45 46 52 56 60 65 67 62 59 55 51 48 47 46
63 61 62 73 69 63 39 43 38 42 41 39 39 39 42 41 40 44 47 46 40 32 31 34 43 44 41 41 45 49 54 56 60 65 65 60 57 52 47 43 42 41 44 46
79 75 79 74 62 50 40 42 42 39 36 34 41 39 44 42 42 42 42 42 34 33 33 39 45 47 43 40 45 50 54 54 55 58 55 51 46 41 38 36 38 43 47 51
84 77 88 82 72 69 49 39 36 43 44 39 48 43 42 44 55 50 43 34 27 26 33 38 40 43 43 42 41 45 48 50 49 46 47 42 37 35 37 41 44 47 52 55
87 87 91 85 82 65 46 40 39 51 46 47 52 50 40 50 50 40 31 28 25 29 34 35 35 38 41 39 38 38 39 41 45 43 38 35 36 39 42 44 48 49 51 53
85 96 95 85 82 77 53 53 50 51 40 51 41 48 54 46 42 35 30 29 25 28 32 35 37 37 38 39 39 40 43 43 39 36 36 39 42 44 47 48 47 48 52 53
71 71 82 88 74 65 67 57 56 53 49 50 51 62 55 43 39 37 35 32 25 29 34 38 41 41 42 43 44 44 42 39 36 36 39 42 44 46 47 48 49 55 58 55
42 58 77 74 66 67 82 72 59 61 62 54 59 62 49 49 45 43 41 35 27 31 35 39 42 45 46 45 45 42 41 38 39 41 43 45 47 48 49 52 55 58 56 53
35 53 61 74 62 62 66 67 67 67 69 65 61 62 57 52 45 46 44 34 30 33 37 41 43 46 48 48 47 46 45 44 45 47 49 52 52 51 53 57 55 55 55 55
41 39 54 62 52 58 61 64 64 66 60 60 64 65 59 56 54 49 43 34 34 38 40 43 46 46 47 50 51 50 49 50 53 55 58 58 57 58 62 60 57 58 59 60

GFSCGP_prec_cthk_045.txt.gz
RH
38 35 28 23 22 28 32 33 39 44 49 50 53 52 48 55 59 47 43 42 33 39 47 44 44 47 49 49 51 57 66 65 63 64 66 72 72 69 69 67 64 68 62 68
41 38 25 27 29 28 36 35 37 42 56 50 45 48 51 54 58 53 45 40 35 33 39 37 39 41 42 45 47 49 53 54 58 57 57 61 61 63 60 62 71 77 76 78
42 32 30 38 38 34 31 32 32 38 46 44 45 44 58 57 57 58 47 36 36 33 32 35 34 35 40 39 43 44 44 46 49 52 55 55 54 55 52 49 53 65 73 72
43 35 37 41 44 38 29 26 28 39 42 45 43 45 59 55 58 56 54 39 38 38 36 36 32 33 37 36 34 36 39 41 41 42 44 48 49 51 51 51 51 52 60 68
40 37 39 43 39 34 27 27 32 34 40 39 38 46 49 57 61 57 57 51 40 37 38 36 34 30 34 34 33 32 34 36 37 37 41 49 48 50 52 59 67 75 73 74
42 39 38 41 38 33 26 33 38 41 46 49 32 50 51 57 56 64 56 52 49 39 39 41 39 37 36 35 33 32 36 41 44 46 46 57 65 64 65 65 68 83 85 82
43 42 42 45 48 35 32 39 52 54 57 48 46 48 40 47 45 47 38 42 40 41 38 40 42 43 42 41 39 40 42 43 48 50 54 60 67 70 74 65 68 73 85 89
50 50 41 41 45 35 31 37 53 60 71 60 56 57 49 45 41 38 38 41 40 42 45 44 42 40 42 41 44 41 43 43 45 51 55 60 61 68 66 66 61 53 60 73
50 45 41 42 46 39 37 44 43 61 66 71 63 55 50 43 44 40 40 39 42 38 40 43 44 44 49 48 51 52 52 51 51 47 49 54 60 62 60 66 67 52 53 57
48 53 44 47 46 39 37 43 54 58 73 83 64 67 56 49 46 39 39 34 33 35 38 40 46 50 57 58 52 61 71 62 55 58 58 57 62 62 66 62 70 59 53 53
47 51 52 51 52 46 41 42 44 62 63 77 67 59 55 52 45 46 40 34 32 28 35 37 44 48 57 56 60 51 61 70 82 87 72 74 73 65 71 62 72 59 60 57
47 52 55 52 53 52 50 42 38 57 56 66 68 56 49 44 46 45 43 37 34 27 24 29 35 45 51 50 47 51 55 55 56 70 74 71 75 87 92 82 81 64 66 64
50 50 59 53 52 55 53 48 43 42 44 58 74 52 52 51 47 49 47 44 38 32 30 29 28 33 37 44 46 53 59 55 56 74 83 74 86 91 88 83 75 64 67 73
57 52 47 50 49 57 57 49 47 43 54 49 59 49 38 49 55 50 48 45 40 42 35 33 30 27 23 26 32 41 46 57 66 72 73 61 59 67 73 70 64 67 75 71
69 58 51 46 46 53 58 57 48 44 42 53 52 51 42 41 45 45 44 46 45 48 42 40 35 32 31 25 29 34 40 44 46 46 46 46 51 61 59 55 62 69 69 69
75 62 58 58 53 51 54 53 52 48 52 54 51 52 50 40 42 48 45 51 44 48 46 41 36 34 32 30 25 26 30 37 41 41 41 47 52 55 57 62 69 72 71 62
86 75 68 59 60 57 62 47 50 51 54 53 50 44 39 44 43 49 45 43 47 46 44 36 33 29 25 27 30 29 34 36 41 41 41 45 51 55 61 66 70 66 65 61
93 87 76 73 69 80 43 43 47 49 47 48 48 50 46 44 43 43 43 47 41 46 39 40 34 34 34 33 42 43 46 42 43 45 48 49 55 67 68 65 60 51 44 42
90 97 93 78 71 57 51 47 47 48 46 45 43 44 42 42 43 45 42 46 49 50 47 48 38 35 31 34 41 45 48 47 47 48 53 60 62 60 56 50 46 41 39 41
79 95 98 90 78 68 50 50 44 46 43 39 42 41 45 39 43 47 47 46 46 46 41 39 31 28 33 39 41 44 47 47 50 56 56 55 51 48 45 42 37 35 38 42
79 92 98 96 93 74 64 52 49 52 41 37 42 40 46 46 52 46 48 49 52 51 41 30 28 30 34 37 38 41 45 49 47 44 45 45 44 44 40 37 37 40 44 48
69 79 94 97 94 87 68 59 55 57 48 54 54 49 46 53 50 47 45 55 52 45 36 30 28 29 33 35 38 40 42 43 44 43 46 48 46 43 39 39 42 46 49 50
75 61 67 72 91 78 72 70 69 70 66 61 58 57 52 60 55 56 54 48 46 40 37 33 30 32 36 38 39 39 40 41 43 45 46 47 43 40 41 42 45 48 50 50
49 52 53 57 52 62 67 67 69 71 68 67 77 60 66 61 53 53 53 43 42 41 41 38 36 36 39 41 41 42 43 45 45 46 46 43 41 42 43 45 49 51 54 56
52 50 44 45 44 51 64 65 68 72 73 76 70 64 66 59 55 55 52 50 47 46 45 42 41 42 44 45 47 48 50 50 50 50 47 45 45 46 50 54 58 59 60 64
54 47 52 50 41 47 58 57 64 70 76 80 72 68 66 63 58 57 58 59 56 53 48 44 46 47 50 52 54 57 58 57 55 54 54 54 55 56 60 63 64 65 68 67

GFSCGP_prec_cthk_048.txt.gz
RH
39 38 42 32 24 23 28 34 35 36 40 51 50 45 42 47 53 58 49 47 36 38 38 41 41 42 43 47 56 64 81 87 85 83 84 85 81 79 90 89 79 74 72 66
43 40 39 29 26 25 32 34 34 37 40 50 53 50 48 46 49 55 51 40 40 34 37 32 36 37 40 41 47 57 64 64 66 64 68 73 75 74 79 73 69 63 64 66
42 42 36 33 35 37 34 33 33 36 36 41 45 48 49 45 51 55 54 38 41 36 29 31 31 34 37 41 42 45 47 47 47 53 55 59 64 67 64 64 67 67 64 65
45 42 37 35 40 40 39 33 35 31 35 41 42 45 45 45 48 52 57 52 43 38 34 34 29 30 33 34 36 37 38 37 39 45 46 48 48 48 46 50 53 58 63 69
43 43 41 40 39 43 37 38 35 30 34 37 35 45 41 47 53 54 54 56 48 41 41 39 34 31 30 31 34 35 36 36 39 43 49 50 51 53 53 56 57 61 65 64
43 41 40 37 39 44 38 39 32 37 40 45 39 42 39 53 48 48 51 51 51 46 46 43 41 38 35 36 35 33 37 41 42 46 50 53 56 58 58 56 56 57 66 70
39 39 41 39 42 42 43 45 45 50 54 51 46 45 38 39 41 43 46 43 43 43 46 46 44 43 40 38 38 40 39 42 46 50 52 54 59 61 60 59 55 54 62 83
43 48 41 40 44 44 45 44 48 55 60 49 48 43 34 40 41 44 45 41 38 40 41 46 49 48 45 44 40 41 41 40 43 46 49 54 57 60 63 65 66 60 60 64
46 43 37 41 46 46 47 46 36 58 60 63 50 43 37 39 43 42 38 41 41 41 38 40 44 49 53 58 50 42 44 42 41 47 52 56 62 62 67 67 71 71 58 62
41 47 43 44 47 46 47 44 47 59 64 60 51 52 56 47 41 37 37 43 41 41 36 35 41 44 49 56 64 62 60 54 51 51 53 55 59 66 67 75 68 68 72 62
42 47 45 49 48 48 50 47 46 54 61 64 57 50 49 49 46 44 45 40 42 39 34 32 35 40 42 50 56 59 70 68 68 67 68 63 66 70 72 80 84 80 85 75
41 47 49 45 47 50 50 48 46 56 60 57 64 50 51 45 46 46 43 45 42 38 35 33 31 34 37 40 45 45 51 59 60 63 66 71 70 76 81 78 91 95 95 80
59 51 58 50 48 49 53 53 48 49 53 61 64 52 45 51 45 45 43 42 43 42 35 32 35 32 32 39 40 40 39 40 45 63 67 74 72 83 80 76 91 79 67 79
70 61 54 48 45 49 53 53 52 50 61 54 54 39 39 51 45 49 47 47 47 43 42 40 36 40 34 31 36 36 34 35 40 50 53 69 77 68 67 76 86 72 64 68
86 76 68 55 52 50 49 51 54 54 52 53 45 48 37 40 46 43 42 46 47 44 43 42 39 43 38 39 39 38 36 33 35 40 45 50 52 53 70 68 66 62 62 73
82 94 82 59 56 53 52 51 51 53 53 53 51 48 41 45 50 48 47 45 42 47 44 40 38 44 47 38 32 25 26 24 30 37 44 51 57 64 68 65 64 64 65 72
84 96 97 71 61 62 64 40 50 55 56 56 60 53 44 44 41 49 46 42 45 43 39 41 43 40 41 39 34 27 26 27 38 41 48 58 63 62 61 61 61 64 70 74
87 85 97 90 76 76 42 47 47 49 54 56 53 49 49 45 42 42 40 39 37 45 44 36 39 43 39 42 38 32 31 32 44 49 53 55 56 57 59 59 66 70 70 74
77 83 86 98 96 73 55 51 50 54 49 50 51 52 51 44 42 44 41 41 39 43 46 41 42 42 44 45 39 34 30 39 46 46 52 56 58 64 66 70 74 76 74 63
73 75 72 81 96 97 60 55 54 56 57 52 53 52 50 48 47 46 43 41 38 40 46 45 47 45 44 44 41 32 33 38 41 42 48 52 55 60 67 68 64 56 52 49
66 69 70 82 92 79 64 71 61 68 59 62 62 55 51 50 47 45 41 42 38 46 50 43 48 50 50 44 36 34 37 41 43 45 47 51 55 58 54 47 46 45 46 45
69 73 71 78 85 68 82 78 68 68 70 63 62 57 53 52 50 49 46 42 47 52 49 47 48 48 49 39 36 37 40 43 45 44 47 52 49 44 43 44 45 46 43 39
73 58 68 74 62 54 65 76 73 68 72 66 65 59 54 51 53 57 56 55 51 50 49 47 50 54 49 41 39 41 43 43 45 50 48 45 45 47 49 50 50 47 46 48
51 62 72 74 58 55 52 55 67 70 72 74 68 61 57 58 62 63 61 56 56 60 58 59 53 48 46 43 41 43 44 46 50 49 48 48 49 52 56 57 55 54 54 55
67 68 64 64 53 56 43 44 52 57 68 69 74 68 64 67 65 66 68 68 65 62 64 58 54 47 47 45 44 47 50 51 50 50 50 52 55 57 59 60 62 62 63 64
73 83 88 80 77 67 46 43 50 48 54 59 66 73 71 68 71 76 73 72 68 67 65 64 63 56 53 54 50 49 52 55 55 56 58 60 61 63 64 64 68 72 76 79

GFSCGP_prec_cthk_051.txt.gz
RH
36 42 44 45 38 30 26 32 38 35 37 38 43 48 44 43 49 54 52 37 28 25 29 34 38 41 44 51 64 83 92 98 96 91 91 89 88 92 93 89 90 88 87 84
40 39 45 42 38 34 28 34 36 34 36 46 46 46 44 45 46 49 52 41 35 23 25 27 30 36 39 46 54 65 85 90 87 89 94 95 95 97 95 90 88 90 87 81
42 40 44 41 37 35 30 33 37 37 36 42 42 43 42 44 46 51 50 46 35 32 21 24 26 32 37 35 37 49 58 63 68 75 84 87 95 96 89 81 80 79 78 73
43 40 44 43 40 35 37 35 39 37 37 41 40 45 37 40 45 49 47 48 41 32 28 25 22 28 31 32 34 37 43 49 53 59 65 70 76 74 72 68 71 76 73 68
43 43 43 45 40 42 40 43 43 42 38 39 40 44 35 40 44 47 48 52 50 35 34 31 27 24 25 27 30 32 34 38 43 47 51 56 57 58 61 60 64 65 67 66
43 44 45 43 40 44 42 46 46 43 41 45 38 44 42 36 35 41 44 46 50 43 39 36 33 32 30 31 31 30 31 32 34 40 48 50 51 54 56 61 67 70 68 67
42 42 43 43 42 43 46 47 53 50 49 48 40 52 42 33 29 33 39 41 43 43 40 40 38 39 36 32 33 35 36 35 35 39 45 49 52 54 56 58 58 58 62 67
44 47 41 42 40 41 47 47 57 56 58 42 48 51 37 32 30 29 34 37 41 44 44 43 41 42 43 41 37 38 38 38 39 41 44 45 51 54 57 65 58 53 50 52
44 42 39 39 41 42 47 51 46 59 67 61 45 41 31 31 31 31 34 37 35 38 40 40 43 47 48 51 56 46 39 40 42 45 47 50 52 53 58 58 61 63 60 51
36 43 40 39 41 43 46 50 56 61 67 63 48 46 38 33 42 38 35 36 35 36 39 38 38 42 48 53 59 65 57 51 50 48 47 50 55 52 56 59 62 62 71 69
37 41 39 43 44 45 48 52 54 56 61 55 53 44 35 40 42 42 40 37 36 37 36 34 31 32 38 47 58 61 63 66 71 64 62 62 60 62 59 58 65 71 77 84
48 45 45 40 42 44 48 54 55 61 61 62 58 42 37 42 43 45 44 42 39 33 37 34 32 33 32 32 39 52 55 58 61 62 67 70 66 69 69 69 75 84 86 88
59 54 52 47 48 48 48 52 55 55 59 59 60 47 37 41 42 44 44 44 39 36 34 37 36 34 36 35 33 36 46 46 48 50 54 61 66 72 74 77 80 85 86 88
59 65 67 63 54 54 54 53 56 55 62 58 50 45 37 39 38 36 37 39 44 40 40 43 40 35 36 38 38 33 36 36 40 43 42 50 59 65 69 79 72 73 82 75
69 75 73 71 63 63 56 54 55 55 55 60 51 51 40 41 37 32 32 37 43 46 46 43 41 40 36 38 42 37 33 29 33 36 35 33 44 56 67 74 65 71 79 74
79 75 73 70 70 64 61 50 49 53 58 58 59 56 48 42 41 40 38 38 39 40 37 44 40 36 39 37 44 42 38 30 29 30 25 29 34 47 58 65 68 75 74 72
71 84 88 79 78 83 61 53 56 56 55 58 63 60 56 48 45 43 41 44 39 39 41 41 44 43 40 38 45 46 45 47 38 33 28 31 42 50 57 61 71 73 69 69
80 83 82 79 80 96 63 60 57 57 54 56 56 57 60 55 44 41 42 39 42 41 40 40 42 40 41 38 44 45 48 51 48 38 31 35 49 55 60 64 62 64 68 69
58 68 80 76 75 71 55 70 73 80 64 59 52 52 54 55 47 41 43 42 41 39 41 38 39 42 40 39 39 42 45 48 44 35 34 40 48 53 61 65 65 64 67 74
58 61 68 69 68 75 53 56 56 69 69 63 63 55 51 55 55 47 45 46 46 46 41 42 45 44 41 41 44 50 49 47 43 38 37 41 49 56 60 64 69 74 80 84
65 70 72 70 74 62 51 50 54 70 73 78 71 62 57 53 53 53 47 44 46 44 44 43 44 48 44 49 51 51 51 54 48 46 43 45 48 54 60 62 67 75 77 79
65 72 72 75 76 63 45 54 60 72 76 75 75 74 64 56 52 50 49 50 48 45 46 42 46 49 48 51 50 53 56 56 53 52 53 52 51 52 58 65 71 72 65 60
61 58 68 71 72 52 47 49 50 59 70 82 79 77 71 63 59 56 54 56 55 53 52 53 52 52 55 56 55 56 60 62 55 54 58 58 56 58 62 61 57 56 59 61
49 52 62 70 44 59 58 55 57 55 66 68 74 75 73 71 69 61 59 60 57 58 60 64 62 62 63 64 64 66 61 56 54 53 58 62 63 61 57 55 56 59 61 64
64 63 62 54 53 66 62 64 59 61 68 64 71 74 75 71 73 72 68 64 65 62 66 69 71 72 71 72 69 66 61 60 59 58 59 64 66 66 64 64 64 67 69 72
68 67 71 72 72 76 78 76 66 67 62 59 66 65 67 75 73 75 74 74 72 70 72 74 77 77 78 77 74 72 71 69 69 68 67 68 68 69 70 70 71 74 77 78

GFSCGP_prec_cthk_054.txt.gz
RH
42 39 38 43 44 42 36 34 29 31 33 34 32 36 37 40 46 50 52 48 37 32 35 34 38 40 41 44 56 75 87 89 99 95 97 93 91 80 77 76 77 79 82 81
43 37 38 44 47 42 41 38 34 30 34 38 35 35 36 39 42 45 49 46 40 37 29 31 30 33 36 41 48 75 88 94 97 97 97 93 87 81 85 90 88 89 84 87
42 40 39 45 50 45 42 39 32 32 39 40 38 32 33 33 41 41 45 41 40 37 31 26 26 29 31 34 40 54 77 86 88 93 94 93 93 90 86 98 93 90 88 90
42 42 41 42 46 47 44 39 31 36 43 46 40 44 32 30 35 39 42 42 40 36 32 26 25 27 29 30 32 41 51 59 64 77 76 84 95 88 88 98 96 90 88 91
43 42 43 44 47 44 43 38 35 43 48 47 43 40 29 32 33 35 37 42 44 36 33 32 26 22 24 25 27 31 38 43 50 59 61 70 84 91 87 88 88 81 79 78
45 46 45 42 45 44 44 47 49 50 52 57 45 41 32 28 29 30 34 40 42 39 33 34 30 30 28 26 26 27 34 41 46 49 50 54 64 66 71 74 74 73 70 71
47 48 48 45 48 48 45 51 60 59 66 62 45 48 33 27 27 29 33 36 38 39 35 36 34 31 30 28 28 31 36 37 40 45 49 51 54 56 57 64 65 64 62 64
49 49 46 46 47 49 49 51 62 65 68 53 53 55 38 28 28 28 32 35 38 37 35 36 37 36 35 32 31 31 32 38 39 41 45 50 56 57 58 59 60 57 59 61
49 49 43 43 43 46 51 53 49 64 69 71 57 49 38 25 24 27 27 31 37 37 37 33 37 38 39 39 40 43 36 35 38 42 45 47 48 51 53 54 55 58 52 50
37 45 43 43 46 47 49 49 58 64 70 71 60 56 44 30 26 31 31 32 36 36 35 36 36 36 39 42 47 50 57 42 38 39 43 47 48 50 54 51 51 54 56 61
34 36 36 41 48 50 50 51 53 57 65 64 62 53 42 33 36 32 40 36 37 38 38 39 35 31 32 39 42 50 55 58 58 56 53 49 52 54 56 61 64 58 59 61
50 46 43 36 40 46 49 53 55 63 61 67 65 53 42 39 41 43 35 40 38 35 38 39 38 34 31 32 33 35 40 48 56 61 62 63 67 68 67 64 68 68 65 69
56 65 58 51 45 47 48 48 48 55 58 60 66 58 44 43 42 45 50 47 45 41 38 36 35 35 35 35 35 33 33 38 48 52 56 61 64 70 67 69 72 73 74 76
59 64 69 66 66 67 63 54 50 50 58 59 60 56 49 49 45 43 46 48 45 43 38 36 36 39 37 38 37 36 33 32 38 40 43 44 42 44 52 70 76 72 75 76
67 68 72 73 67 66 63 62 57 56 57 58 55 60 56 53 52 47 42 39 34 36 42 41 39 43 43 40 38 38 42 40 33 31 30 26 28 32 36 42 60 73 75 85
65 76 74 71 63 58 62 66 62 59 58 55 55 54 54 52 53 53 47 45 37 34 34 44 44 39 38 35 35 41 44 41 35 38 35 32 32 27 28 35 42 56 68 83
70 71 75 71 71 60 59 59 60 60 60 59 58 55 54 52 54 54 55 53 48 41 41 43 44 43 41 39 38 38 44 49 44 43 41 40 38 31 28 35 46 52 62 74
69 78 81 81 77 78 52 63 60 64 62 60 57 58 56 55 52 51 55 53 49 48 42 38 41 45 48 46 39 41 42 44 48 47 46 45 42 35 34 40 50 57 62 71
53 73 77 75 77 58 50 53 62 60 57 55 55 62 63 56 52 44 49 54 52 48 46 42 42 45 45 46 44 41 41 44 48 52 54 51 50 42 41 47 55 60 63 71
51 58 63 65 72 65 39 42 42 46 46 54 58 64 69 64 58 52 48 53 54 51 46 46 43 43 42 44 48 48 46 46 50 61 63 60 55 47 49 48 54 60 65 69
62 66 69 73 77 55 36 42 42 54 39 46 56 68 74 73 67 64 57 50 51 54 52 50 48 47 47 47 48 52 52 52 55 59 63 65 69 57 52 51 49 50 57 60
68 70 71 69 74 60 39 48 53 57 48 53 56 59 72 75 70 68 63 56 52 54 53 50 48 47 46 48 50 55 57 60 61 61 70 69 69 67 57 53 55 53 56 60
65 60 63 58 47 39 53 59 61 56 50 51 52 55 68 81 77 72 66 61 58 54 54 55 53 51 52 52 56 59 60 61 67 69 74 76 70 59 56 55 59 60 67 70
61 61 61 57 47 48 54 56 63 66 63 57 58 63 73 79 79 75 74 68 66 63 64 66 66 64 65 62 59 66 73 74 78 77 76 70 66 63 66 65 68 71 75 77
63 61 59 53 51 47 51 55 53 65 67 68 67 76 78 77 80 84 80 76 73 72 74 71 72 77 74 74 72 78 80 80 78 78 78 77 78 78 76 80 79 77 73 73
75 74 72 65 63 66 61 63 63 73 83 85 85 82 82 78 80 77 80 80 80 78 79 79 80 87 81 87 83 82 81 81 79 78 80 83 83 84 85 84 85 85 85 88

GFSCGP_prec_cthk_057.txt.gz
RH
52 49 42 37 39 41 40 37 34 30 35 31 30 31 30 35 43 43 46 50 50 42 30 30 33 36 39 43 49 60 77 80 81 80 91 86 93 90 90 87 86 83 82 84
52 49 46 42 41 38 41 41 38 33 34 34 31 32 30 30 37 39 42 47 48 43 38 27 27 32 35 37 40 64 86 89 82 85 88 89 87 93 94 87 81 84 83 84
47 47 45 46 44 40 44 44 44 38 34 37 36 35 30 30 33 35 38 44 45 40 37 29 26 27 33 34 38 57 78 81 90 95 99 97 93 93 91 90 88 89 86 87
44 42 44 46 45 42 45 48 42 39 35 35 38 39 36 29 27 30 32 39 44 44 34 30 26 25 29 29 31 40 57 73 80 91 96 95 92 90 88 93 90 85 88 90
47 45 43 44 44 45 43 49 47 41 37 41 40 39 34 31 25 26 27 35 39 42 34 31 27 26 26 27 28 32 39 48 59 70 78 81 85 92 95 92 84 89 90 92
51 47 44 40 43 44 45 48 46 47 47 48 41 40 35 31 24 23 25 32 38 39 39 31 31 29 29 27 27 29 32 38 43 51 60 64 71 86 95 89 86 90 88 88
55 51 49 46 46 48 47 47 50 54 57 48 49 48 36 30 24 24 25 31 36 39 41 31 32 30 29 27 27 29 35 37 39 42 49 51 60 68 78 80 78 82 81 76
51 57 53 50 49 48 49 48 53 62 60 51 56 52 37 33 28 28 27 30 34 37 38 35 32 33 33 30 27 27 30 36 37 38 42 47 53 56 62 69 66 70 74 73
40 43 51 52 53 53 57 55 49 58 69 64 53 48 39 36 32 25 26 26 32 36 39 39 39 36 36 34 33 32 32 33 35 37 40 43 47 51 53 58 64 63 66 66
42 42 46 49 52 55 53 53 58 60 60 62 57 55 43 39 37 26 27 25 29 35 40 39 39 39 38 39 40 40 43 44 39 39 38 41 44 47 50 54 54 55 61 65
35 38 46 54 54 54 57 55 55 54 58 58 58 52 45 43 36 31 30 34 32 31 37 40 41 42 42 41 41 43 46 54 51 42 41 44 50 50 51 55 61 66 68 64
34 32 39 46 53 52 56 56 54 61 63 67 64 53 45 44 43 39 37 35 39 37 40 43 44 40 37 33 34 36 39 40 48 55 52 50 50 53 49 54 57 62 64 70
67 59 55 50 47 53 54 55 54 58 59 60 65 56 48 47 49 44 38 43 43 44 42 44 46 43 42 37 35 38 37 37 41 46 50 50 51 52 57 60 67 66 68 68
67 74 70 64 62 62 63 59 60 56 59 55 58 56 52 46 50 51 51 44 44 45 45 45 47 43 40 37 38 38 40 40 38 41 45 49 49 48 48 50 50 57 66 71
71 70 67 68 68 70 64 62 62 62 58 60 58 58 54 49 50 51 52 51 46 41 40 38 38 42 40 43 42 41 42 42 43 42 42 39 40 40 39 37 39 44 50 52
61 75 70 66 61 62 60 57 57 61 58 58 58 58 57 55 49 50 54 55 53 50 44 37 31 33 39 41 43 44 44 44 44 46 39 34 35 36 35 35 31 34 39 44
62 72 69 61 62 58 52 52 56 59 61 62 63 57 54 58 57 54 55 54 56 56 52 50 44 42 42 40 40 41 40 41 44 45 45 47 49 48 46 45 40 37 37 43
54 66 67 70 74 62 49 56 56 57 56 61 59 55 54 56 58 57 57 58 57 57 57 55 51 46 45 44 42 42 44 41 42 45 47 48 49 51 54 53 50 44 45 47
44 60 82 77 70 52 45 53 61 58 49 52 49 48 51 51 48 58 59 58 57 55 56 55 53 48 43 43 49 49 44 41 42 43 44 51 54 55 55 56 55 53 47 49
49 52 75 81 76 65 44 44 47 43 42 43 48 49 48 53 54 56 60 56 52 54 55 54 55 50 47 48 49 48 48 46 45 46 47 49 56 63 66 62 66 66 56 55
66 61 63 69 66 55 43 42 44 41 37 38 41 50 50 57 59 57 66 64 58 55 54 53 53 55 53 50 50 49 49 50 51 51 55 57 61 66 71 74 74 72 69 62
65 65 67 65 71 61 44 54 49 50 42 43 43 48 52 52 56 59 64 73 68 63 60 59 56 55 56 54 55 54 52 55 57 61 66 69 71 70 72 78 81 77 71 64
68 58 59 56 52 47 56 55 53 54 51 50 48 48 50 51 59 63 65 76 74 74 70 68 67 61 62 60 60 61 60 61 64 67 73 74 73 72 80 78 74 66 62 61
59 55 58 54 49 50 51 56 57 59 55 52 55 55 58 61 64 66 69 74 83 83 80 76 75 73 71 67 65 68 70 72 73 74 75 75 80 82 82 78 74 74 78 82
57 59 59 58 54 53 55 55 57 59 56 55 58 63 68 74 75 76 75 75 84 89 88 85 84 84 83 85 82 81 80 83 83 82 80 82 83 81 80 80 83 87 89 91
70 69 68 63 68 69 64 61 63 62 60 59 57 63 71 78 82 91 84 82 83 88 94 94 91 88 89 87 92 92 91 89 89 88 86 86 84 86 86 88 88 91 96 95

GFSCGP_prec_cthk_060.txt.gz
RH
51 51 43 39 39 37 36 36 36 33 34 32 33 30 27 29 30 36 39 40 44 46 40 27 25 30 33 33 37 44 57 69 75 79 79 86 93 95 95 92 97 91 89 89
57 54 49 48 46 43 39 38 37 37 39 32 30 30 28 31 29 33 40 40 42 45 40 32 25 26 31 33 34 42 66 82 89 81 82 83 90 94 96 95 94 94 90 89
53 52 52 55 48 47 42 40 41 42 40 34 32 30 31 31 29 31 38 37 39 43 41 32 25 24 29 32 29 43 67 83 89 79 80 93 92 88 95 95 91 89 87 88
52 49 53 54 50 48 44 43 44 47 44 35 34 33 33 34 32 28 32 35 37 41 40 35 28 23 26 29 29 35 53 70 80 85 79 86 89 89 89 94 93 89 86 87
61 56 48 49 47 48 46 45 46 51 44 39 33 34 30 31 30 28 25 32 34 37 39 36 30 26 24 27 28 30 37 51 59 68 76 83 98 93 94 91 93 94 86 84
61 59 53 47 44 47 48 49 49 49 49 46 39 37 30 31 31 24 24 28 30 35 39 39 31 29 26 27 28 31 35 38 42 48 57 65 76 80 88 91 94 90 89 88
50 57 62 49 45 49 49 47 52 51 54 46 42 40 35 35 33 25 24 27 31 34 38 42 31 31 27 27 28 29 33 39 40 42 46 52 60 64 75 88 92 88 90 91
47 53 61 58 49 49 48 47 46 55 53 45 51 45 38 38 33 30 25 26 29 34 36 39 37 33 31 30 29 26 27 35 40 42 44 48 52 55 61 72 81 82 78 74
50 54 57 62 56 49 51 52 49 51 58 55 53 48 38 38 37 34 26 25 27 32 37 39 39 38 40 36 30 27 28 33 39 41 43 45 49 49 51 57 59 64 66 63
48 49 45 48 61 61 56 56 58 57 60 62 50 52 43 38 41 40 35 28 27 28 36 41 41 39 42 43 39 33 34 39 40 45 46 44 46 48 50 51 51 53 56 56
52 58 62 48 54 59 64 60 57 57 56 56 55 52 45 42 46 44 39 35 34 34 40 41 42 43 40 46 45 41 39 42 45 47 44 47 49 53 57 58 55 56 59 58
40 54 61 58 51 52 56 58 58 61 62 59 59 53 46 45 44 44 41 37 42 41 39 43 43 45 45 47 45 44 42 43 45 50 45 43 47 50 52 58 58 61 60 63
66 43 47 44 45 50 58 58 57 60 60 64 65 56 49 46 43 46 46 45 47 49 48 48 49 50 46 45 44 41 41 41 45 46 50 47 44 44 42 48 54 57 63 64
77 72 44 45 41 52 59 64 64 59 62 60 56 56 52 48 48 47 47 45 47 50 52 53 51 50 51 50 47 46 43 44 46 45 47 48 45 45 48 49 48 49 54 55
78 79 74 68 60 58 58 61 59 61 62 63 58 56 52 50 49 49 47 49 49 48 49 49 50 51 50 52 50 48 49 46 45 46 47 43 46 50 51 50 50 50 49 52
63 75 75 66 68 71 68 62 59 56 58 58 58 58 57 51 50 50 49 49 51 52 50 50 53 49 47 44 46 48 48 46 48 46 44 49 50 49 48 51 50 47 46 48
68 72 69 67 65 60 53 50 56 63 60 60 62 62 54 49 48 50 51 53 54 54 53 50 48 45 45 44 42 46 49 52 48 50 50 47 46 47 48 48 52 51 51 51
62 75 77 67 71 65 51 47 51 55 54 54 51 50 49 49 48 49 51 53 54 55 56 53 54 52 51 46 42 44 47 50 49 50 51 49 47 49 54 56 57 59 60 60
53 68 73 75 65 47 40 47 55 57 57 55 51 49 49 50 45 47 50 51 52 52 52 54 54 53 56 54 49 49 47 47 49 50 51 51 52 52 53 50 48 53 57 62
52 55 65 73 67 55 42 47 49 45 47 48 48 46 44 43 51 53 50 48 52 53 51 51 55 55 54 56 54 50 48 48 51 54 53 52 54 57 58 60 62 61 63 71
57 57 53 60 61 46 43 51 49 47 54 48 44 46 47 51 54 51 52 56 55 57 61 55 53 54 53 56 58 56 55 54 54 55 57 57 58 61 64 65 68 69 71 71
65 58 61 61 67 63 42 41 43 56 49 48 49 48 49 49 51 53 50 49 55 60 64 70 65 59 58 57 61 64 61 56 56 55 55 59 61 66 69 73 74 80 79 80
72 60 61 56 58 55 59 60 58 55 54 55 54 53 51 51 52 56 55 54 53 60 63 72 77 75 70 69 67 63 65 68 68 66 66 69 73 75 77 83 84 82 84 80
57 61 62 61 56 59 63 61 53 50 54 55 52 49 49 49 51 56 60 64 60 61 69 76 82 79 84 81 78 77 78 78 77 79 78 80 82 82 80 83 85 86 85 89
64 60 54 54 53 58 57 57 54 57 56 54 51 50 49 49 49 56 64 72 72 70 79 80 82 91 97 94 89 85 84 81 79 82 84 84 84 84 85 85 88 88 87 90
66 63 63 62 67 63 67 65 64 59 55 55 55 53 52 52 51 54 62 74 85 84 91 88 85 87 92 99 98 94 89 88 90 93 91 88 89 89 90 90 93 95 92 90

GFSCGP_prec_cthk_063.txt.gz
RH
40 51 48 41 40 39 39 40 38 37 36 35 35 36 38 33 36 34 36 36 39 42 43 41 31 25 26 32 32 33 39 50 63 73 74 82 91 96 96 92 91 91 92 93
56 46 48 52 50 46 43 39 38 38 36 35 36 31 33 32 30 35 38 40 40 39 44 41 34 29 28 32 31 31 38 60 75 83 81 80 81 92 97 93 95 90 88 88
69 58 60 54 55 52 49 45 42 41 40 38 39 33 29 31 30 34 30 29 38 40 42 42 36 30 26 31 30 29 34 59 75 92 84 83 84 86 95 94 92 89 91 95
74 67 66 63 57 59 52 47 43 44 42 41 41 33 31 30 32 34 33 28 31 36 38 42 38 31 26 25 27 30 33 52 73 82 87 78 78 85 90 87 94 92 92 89
75 61 56 63 62 62 55 52 48 47 43 45 46 37 32 31 35 33 32 30 33 33 34 38 40 31 28 27 26 27 35 43 55 73 72 76 82 86 90 91 93 95 90 92
69 67 65 59 54 59 55 54 53 52 46 50 49 44 35 36 33 37 31 29 29 34 32 35 42 32 27 27 27 28 31 40 42 48 57 63 72 81 89 93 93 94 93 91
74 68 66 65 58 59 51 54 57 57 53 46 45 45 40 39 35 35 34 28 31 32 32 34 42 36 27 26 26 26 29 34 40 43 45 51 58 65 70 78 86 93 93 93
68 70 69 65 63 56 54 54 54 58 55 45 42 44 42 43 40 36 30 30 31 35 30 33 40 41 31 25 25 26 27 30 36 40 43 46 51 56 62 70 78 88 90 90
58 50 55 58 66 60 54 53 53 53 64 57 49 46 42 44 40 38 36 39 36 31 32 33 41 40 36 30 27 27 27 28 31 38 42 43 47 50 52 57 66 75 78 80
58 57 53 60 64 66 61 57 55 56 62 64 53 57 46 42 43 45 41 45 39 32 34 34 41 41 41 38 34 31 31 30 33 39 44 45 45 47 50 53 55 60 64 69
60 63 59 57 60 63 65 61 62 55 55 59 59 51 48 46 51 50 52 48 44 33 32 33 39 46 45 44 40 38 35 33 35 37 41 45 45 47 51 57 58 56 57 56
54 61 60 71 58 57 62 63 62 65 74 58 61 56 54 51 51 49 47 49 50 41 37 41 42 47 47 47 45 44 39 37 37 40 40 40 42 46 47 51 54 58 61 60
67 53 62 66 74 58 58 64 67 65 65 77 74 57 56 54 51 51 53 55 54 49 44 45 49 49 49 51 52 50 47 43 42 41 41 42 41 39 43 45 47 53 60 62
67 68 57 53 57 54 55 60 63 60 69 66 69 64 61 57 53 53 55 54 50 50 49 51 54 53 55 53 53 52 51 49 47 44 43 44 44 45 43 44 44 45 49 51
79 82 82 65 66 57 53 59 57 63 63 69 66 62 56 55 54 54 54 56 54 55 57 56 58 58 59 59 57 58 56 54 51 50 46 43 47 48 51 52 50 49 50 48
77 85 97 78 70 70 64 58 58 59 61 63 61 60 59 62 52 51 55 55 57 57 58 61 59 58 58 57 56 58 59 58 58 55 48 49 47 48 51 55 56 54 53 51
76 75 90 93 74 67 71 62 62 63 60 60 62 62 64 56 53 52 51 54 57 57 56 59 59 59 60 59 56 55 56 55 54 52 50 50 50 51 51 50 51 52 53 56
74 75 71 79 79 89 60 53 56 60 63 62 62 59 60 57 50 45 53 49 48 50 55 57 59 63 62 59 58 57 54 54 55 54 53 54 54 55 55 51 49 51 53 52
67 71 80 81 68 56 53 51 57 62 65 63 59 52 51 50 48 55 60 51 47 43 44 51 55 59 60 63 62 55 53 53 55 57 60 59 60 61 62 54 51 50 55 58
64 65 75 73 71 71 59 58 51 53 65 69 58 56 54 50 52 72 75 64 53 47 46 45 47 48 48 49 53 58 60 64 60 56 61 63 65 65 67 65 64 58 59 61
60 60 62 69 67 59 60 64 53 46 61 70 61 60 53 48 56 49 52 48 44 45 45 45 48 50 54 53 52 57 61 63 59 61 61 61 63 66 70 71 70 67 66 66
60 63 58 56 57 59 57 50 48 60 59 60 62 52 48 47 51 49 50 48 47 43 41 44 46 53 59 63 62 57 55 57 60 61 65 63 65 67 71 75 76 76 77 79
65 51 55 47 50 62 66 69 72 70 63 55 52 52 51 51 51 49 48 48 47 47 49 50 47 49 56 65 71 73 66 61 65 68 71 71 72 74 75 77 78 81 85 88
85 67 65 59 73 74 74 68 67 62 57 52 51 52 50 49 47 45 44 45 45 47 50 56 58 55 53 63 78 85 82 79 77 80 81 81 82 83 82 85 88 92 95 96
83 74 74 76 82 65 69 70 62 54 51 50 48 48 48 49 49 48 47 46 46 47 50 53 61 66 62 60 68 88 87 87 87 89 89 89 88 91 92 95 94 94 97 98
72 75 67 72 78 76 80 70 60 57 56 56 52 50 50 50 52 52 51 51 49 50 54 63 70 80 79 74 75 76 91 98 99 95 93 94 96 100 98 98 98 98 99 99

GFSCGP_prec_cthk_066.txt.gz
RH
67 69 57 57 47 43 36 34 43 40 34 37 37 36 34 37 37 37 40 39 38 41 43 43 42 34 30 29 30 31 34 38 43 59 64 68 65 73 84 91 95 95 94 82
75 79 67 58 50 43 37 42 45 45 43 40 38 35 36 35 38 36 38 38 41 44 43 42 42 36 31 26 27 30 30 36 47 66 77 78 70 74 78 87 92 92 91 86
82 73 62 62 57 55 46 45 47 44 41 40 37 36 36 34 29 31 30 34 39 45 42 41 40 38 32 30 26 28 29 38 55 70 82 79 72 73 77 83 88 87 85 86
88 85 75 74 65 55 51 47 46 47 48 45 41 41 41 37 32 30 30 32 31 29 39 39 38 38 35 30 25 28 28 34 54 70 79 81 73 73 75 80 85 89 87 87
94 85 84 86 77 64 61 62 62 56 50 46 41 42 41 34 35 33 32 33 35 34 33 36 37 38 35 31 30 26 28 35 43 56 70 74 75 74 77 78 82 87 88 87
76 80 89 84 77 76 71 72 69 61 55 52 41 43 42 39 37 35 36 37 32 33 34 35 37 39 38 30 29 30 27 31 41 45 51 60 64 68 77 82 85 89 89 85
71 74 77 69 73 67 68 79 73 69 62 54 44 44 39 41 39 39 40 34 30 30 32 34 38 39 40 30 27 29 28 28 35 43 45 49 56 60 63 70 78 83 86 85
80 81 78 69 71 76 65 73 72 82 70 53 45 44 36 42 41 39 36 33 32 36 33 34 37 38 41 35 28 29 29 29 31 37 43 45 50 54 56 61 68 77 83 88
65 76 66 68 72 76 72 78 59 62 69 71 55 44 42 45 42 38 37 37 35 37 36 32 33 36 42 38 31 29 31 30 30 33 40 45 44 47 51 55 61 69 80 89
50 65 64 59 65 72 70 65 71 64 79 78 57 50 48 46 47 43 42 43 45 41 41 33 34 36 42 40 37 33 34 33 31 34 40 47 47 47 47 52 54 57 65 74
53 56 62 65 60 67 71 69 74 71 64 72 69 63 56 49 48 50 50 50 47 48 38 40 39 39 42 46 42 39 38 37 36 35 37 40 44 49 49 52 54 58 61 62
67 54 56 64 65 71 67 72 69 80 72 62 64 64 57 58 55 55 54 57 56 56 42 43 42 41 44 51 49 45 42 41 39 39 38 40 41 42 45 54 52 54 57 62
60 54 54 55 66 66 73 68 74 77 88 90 76 57 60 56 57 54 55 55 56 56 50 49 51 52 51 54 56 52 49 49 46 44 42 42 40 42 44 44 45 48 50 54
70 60 57 53 67 82 71 68 72 74 88 85 85 68 74 65 63 58 54 57 58 58 56 56 61 62 60 59 58 57 55 54 53 52 49 46 45 44 44 46 45 46 49 51
85 91 72 63 65 66 60 65 68 91 87 85 77 74 72 75 68 61 58 56 58 62 61 61 56 54 60 68 62 57 56 57 57 57 52 50 50 50 47 46 47 48 48 50
81 94 81 69 62 76 64 71 64 68 63 60 66 73 70 69 68 62 61 60 63 68 64 61 64 63 62 63 58 58 63 60 59 58 57 58 56 54 50 49 51 53 54 55
79 80 84 82 85 78 70 64 71 72 74 68 81 78 75 72 61 66 63 57 61 62 65 67 62 66 70 65 63 60 59 59 65 61 58 60 58 57 54 54 55 52 54 58
63 79 92 90 96 91 62 59 58 55 53 59 66 69 62 68 65 69 67 60 57 59 61 63 65 64 63 65 65 64 62 60 60 62 64 61 62 61 61 60 59 59 62 62
49 62 89 97 89 84 69 59 64 64 71 72 82 65 61 61 64 75 71 57 54 49 48 51 53 53 55 58 60 61 64 65 64 61 59 67 61 62 64 65 65 65 67 68
40 49 74 81 94 83 62 61 58 63 77 71 67 64 57 62 72 74 73 70 62 59 55 49 42 39 39 45 53 59 61 62 60 60 61 63 65 68 65 67 67 68 69 75
55 55 67 78 89 73 63 67 61 66 76 67 70 75 78 70 66 70 67 60 52 52 48 45 40 40 42 41 43 45 50 54 57 59 60 62 66 70 69 68 70 72 73 71
69 71 65 65 74 76 73 71 70 74 70 70 69 63 59 53 52 52 50 46 45 44 41 42 41 41 40 40 40 43 45 52 59 59 60 61 65 69 71 73 73 76 77 80
85 63 64 49 50 69 67 71 73 72 67 68 62 60 57 56 54 48 48 47 42 38 36 37 37 39 42 43 42 40 41 47 54 65 68 65 66 69 74 74 78 83 85 89
77 68 64 62 40 55 67 60 66 65 64 68 71 69 62 56 51 50 47 44 41 40 40 39 39 40 41 43 47 53 50 47 54 60 71 77 77 76 77 81 85 90 92 94
96 75 61 77 79 84 92 89 89 75 72 69 65 56 49 46 45 47 46 45 46 47 46 46 45 45 49 53 55 57 61 60 57 62 71 84 83 86 89 91 94 94 95 97
88 92 87 94 96 97 92 89 80 73 70 62 56 53 50 50 49 50 52 52 53 53 52 52 51 52 52 54 55 59 68 76 74 68 75 83 91 97 97 98 97 96 96 95

GFSCGP_prec_cthk_069.txt.gz
RH
42 55 57 61 67 67 61 55 44 31 29 41 42 39 35 38 39 42 38 37 37 39 41 36 36 34 33 25 24 26 31 32 38 41 54 63 67 64 73 79 88 93 90 88
54 64 64 66 70 69 64 57 43 31 36 52 46 42 39 39 39 38 36 36 36 42 41 36 37 35 33 28 23 26 27 30 37 51 63 70 73 71 69 79 88 94 94 91
57 69 73 73 78 73 65 58 44 37 46 54 48 47 41 36 37 36 34 35 35 40 40 37 36 36 34 31 22 23 27 30 38 57 67 73 75 71 73 76 84 91 94 95
64 73 80 75 74 73 74 61 52 45 51 61 52 52 42 39 43 38 36 32 33 38 40 35 35 36 32 32 25 24 28 31 37 52 62 71 67 68 71 76 81 87 93 96
59 77 87 83 70 75 79 71 59 55 63 64 51 50 38 39 40 37 35 33 34 34 37 34 33 35 34 30 26 24 28 30 37 45 51 65 70 68 69 72 78 85 91 88
58 68 81 80 76 81 77 78 65 59 64 73 52 51 38 37 37 37 37 35 35 33 37 33 34 36 36 32 27 24 29 28 33 42 47 50 57 62 66 74 82 84 88 88
45 61 71 82 86 82 81 91 88 74 69 72 46 49 37 37 41 42 38 35 39 36 37 36 34 36 36 34 27 25 28 27 30 37 42 46 49 52 59 61 68 79 84 84
46 63 66 77 77 75 78 87 87 92 93 70 51 53 37 40 44 45 42 39 39 36 36 38 34 33 34 36 33 25 27 28 28 33 40 45 46 49 50 52 58 65 75 78
45 57 64 80 72 74 85 83 74 94 83 85 66 52 44 45 45 45 42 41 42 39 38 40 36 31 32 34 36 29 27 30 29 30 36 44 49 48 47 49 51 55 63 77
44 49 55 71 75 75 88 82 94 98 96 93 67 64 53 54 47 44 45 44 42 43 43 43 40 33 31 34 38 34 32 32 30 33 38 42 47 47 48 51 50 51 54 66
61 53 58 65 74 74 81 95 96 94 85 85 90 77 67 58 55 53 53 50 49 49 47 44 42 39 37 39 40 41 38 36 37 37 38 41 44 46 51 49 52 56 58 58
71 70 67 56 69 77 76 79 89 97 93 76 78 77 69 63 60 57 58 57 50 48 47 43 45 49 44 42 43 46 43 41 41 41 40 40 42 44 45 47 48 50 53 57
62 73 71 57 61 73 79 78 80 90 91 94 94 75 71 73 67 62 62 63 59 59 55 58 62 64 52 46 49 49 49 48 47 47 44 44 43 45 46 46 47 48 47 48
49 53 68 70 74 83 86 83 83 89 98 93 89 84 81 79 80 70 67 68 67 65 63 63 63 65 73 73 68 58 56 56 53 52 51 51 50 49 47 49 49 50 50 51
49 57 65 71 61 69 83 88 81 89 92 97 84 83 82 83 80 79 74 67 67 66 67 69 68 66 69 76 79 77 73 68 61 53 51 51 52 54 55 55 54 55 52 51
60 63 69 74 76 73 76 79 68 74 85 94 89 85 86 81 85 86 78 74 69 67 67 71 69 70 68 66 69 75 74 75 75 67 64 58 58 59 58 61 62 60 54 56
66 64 70 81 84 74 70 74 71 75 89 87 92 85 82 88 88 84 76 73 70 67 62 64 69 64 65 71 70 65 65 65 64 68 72 75 73 65 61 58 60 60 60 59
59 65 67 85 87 87 57 57 63 75 79 79 80 88 86 86 90 83 74 69 67 63 58 57 59 64 65 60 63 67 68 67 66 67 68 72 75 72 72 67 64 62 64 64
38 54 67 83 94 77 64 63 61 82 92 83 83 82 87 88 88 81 77 71 68 63 55 54 56 60 62 60 60 58 62 65 67 67 64 64 65 70 72 72 72 69 68 69
35 42 55 70 80 96 74 72 68 72 93 85 84 83 85 84 86 85 77 70 66 63 61 59 55 49 51 53 50 48 45 49 54 61 66 66 64 62 63 68 72 75 76 76
75 55 56 57 70 73 74 75 74 87 92 86 88 87 84 82 82 81 76 64 58 53 49 47 45 48 46 43 41 39 39 38 41 46 50 57 63 64 61 60 62 70 78 83
95 86 73 69 68 68 58 72 86 88 85 86 86 83 83 77 79 78 72 59 52 49 47 44 41 38 37 37 39 41 42 43 42 42 43 44 46 53 59 61 64 70 75 81
98 79 83 70 49 48 56 67 82 87 83 81 80 77 72 69 63 60 57 53 47 45 43 40 35 35 34 34 33 36 39 42 43 42 40 40 46 51 56 65 68 73 79 84
86 87 88 76 62 59 80 85 79 78 74 76 74 68 65 60 55 52 52 50 47 45 40 36 35 35 36 36 37 38 41 42 42 43 45 42 45 50 53 61 71 77 83 88
92 97 82 80 95 84 88 90 83 80 77 71 67 64 60 59 57 57 53 46 45 43 42 42 42 42 42 41 41 43 43 44 45 48 51 53 54 59 63 63 66 71 88 88
99 96 90 95 98 96 96 87 85 82 84 83 79 73 68 65 56 51 48 47 47 49 49 49 49 49 50 52 52 52 51 53 55 56 56 59 61 66 70 75 76 75 81 90

GFSCGP_prec_cthk_072.txt.gz
RH
27 32 34 34 41 52 59 60 60 54 52 44 37 33 27 32 35 36 35 37 37 37 39 44 42 39 38 37 27 19 23 28 29 32 44 53 60 64 68 79 85 90 91 93
37 40 38 40 43 57 61 64 64 56 53 47 39 37 34 35 34 37 35 39 38 41 44 45 42 39 38 37 31 21 21 25 27 37 51 61 71 71 71 73 79 85 91 92
42 41 46 48 53 62 62 67 69 64 57 47 41 42 39 36 35 35 36 37 39 39 41 43 41 39 38 37 32 23 19 25 28 39 54 65 72 76 72 73 77 86 92 97
48 46 51 57 63 73 68 69 75 74 64 54 54 60 42 37 35 36 39 38 38 39 39 41 41 39 38 37 34 26 22 25 30 39 50 61 66 68 70 76 78 89 92 95
43 49 55 62 66 73 75 77 78 76 71 60 60 61 45 41 36 35 35 37 36 35 37 40 41 39 37 39 34 27 23 24 28 36 45 56 62 64 66 71 76 81 91 96
41 43 54 56 66 81 77 87 82 76 73 72 56 63 47 42 34 34 37 36 35 35 37 39 41 42 38 42 38 29 24 24 27 31 41 45 55 58 65 69 75 79 88 96
38 42 48 58 67 81 82 92 90 87 85 75 45 59 43 41 41 40 39 38 35 32 35 40 40 40 40 41 40 30 25 25 26 29 36 42 45 50 54 57 68 80 87 93
38 45 53 60 67 81 85 95 97 92 90 80 52 55 45 42 44 41 43 37 34 36 34 37 39 38 38 40 41 33 25 26 26 27 34 40 46 43 45 48 52 58 71 85
42 47 48 59 69 77 89 94 85 95 91 89 64 52 40 46 49 48 44 39 36 37 37 38 41 39 37 36 40 39 29 26 27 26 33 40 44 46 45 45 47 52 60 72
53 49 42 59 73 81 84 86 94 97 97 96 68 62 64 55 59 50 49 45 44 47 45 42 40 39 35 34 42 42 34 28 29 29 33 41 42 44 45 48 50 52 57 62
64 59 56 61 79 83 93 96 96 93 90 98 91 90 70 70 70 60 56 51 48 46 43 42 45 46 43 41 43 45 41 36 34 34 32 37 41 46 49 49 51 55 59 61
64 69 76 57 62 69 82 91 96 99 92 89 96 92 85 85 73 69 63 58 54 49 47 50 53 54 57 51 52 49 49 44 41 39 38 37 39 43 45 50 52 55 54 59
58 72 78 63 64 76 78 83 91 94 95 98 98 88 92 93 83 77 74 69 65 61 58 58 58 60 64 64 65 64 63 62 56 50 47 42 41 43 47 46 49 50 52 52
50 56 63 69 73 79 94 85 87 93 98 85 88 87 93 94 93 85 82 77 70 70 71 70 71 71 73 71 68 70 71 68 66 63 62 60 56 53 51 48 50 52 53 53
54 55 59 61 52 60 73 79 88 93 82 90 79 88 86 94 95 93 88 83 77 73 72 78 84 81 78 80 84 80 79 79 75 69 67 67 66 67 67 66 64 60 57 57
64 62 58 54 52 59 63 72 83 91 92 92 89 88 91 94 96 94 91 84 81 79 77 74 78 76 75 76 78 83 85 83 82 79 77 74 69 69 70 70 70 68 67 67
62 61 65 63 58 66 72 73 75 84 88 87 96 90 95 96 93 93 91 89 84 80 81 79 82 77 74 75 72 73 74 76 78 80 79 80 77 76 74 74 74 73 74 74
54 58 62 67 60 70 67 71 68 72 85 92 93 92 95 92 92 92 89 88 87 83 77 75 73 69 70 68 66 65 69 71 72 70 70 70 71 73 76 77 78 78 77 76
39 47 55 57 59 50 63 72 74 81 94 91 92 92 94 91 93 93 92 89 85 80 74 69 65 60 57 57 57 61 62 61 57 60 65 68 69 68 69 72 73 75 78 79
51 46 49 57 62 61 73 76 72 79 92 96 91 92 90 93 94 96 92 86 82 79 74 69 62 54 49 48 50 51 54 54 55 56 55 55 59 65 69 68 65 66 69 76
62 68 58 57 61 45 57 64 82 90 95 93 91 91 89 90 88 91 91 85 75 65 57 54 51 48 46 45 44 43 43 45 49 49 47 43 42 44 47 51 57 62 63 65
75 80 80 72 64 58 38 71 72 95 96 93 94 92 92 93 94 92 89 82 72 66 59 55 49 46 44 41 38 36 36 38 39 41 41 38 37 38 40 43 45 49 55 57
94 94 93 76 60 68 54 66 85 82 96 97 94 92 92 94 95 88 76 66 64 60 56 51 46 43 41 38 37 38 38 38 36 37 36 36 36 38 40 41 45 50 54 58
90 94 98 91 77 67 65 78 89 85 85 91 93 91 90 85 83 75 68 63 56 51 49 46 46 43 41 40 40 39 39 37 37 37 38 38 39 39 40 41 44 49 56 60
95 94 95 96 98 87 80 81 95 95 92 91 86 80 77 75 71 67 62 58 57 53 49 47 47 46 44 43 42 42 42 42 42 42 43 42 41 41 44 46 49 52 55 61
96 93 98 97 95 97 94 88 94 94 92 88 83 79 73 74 74 68 66 61 55 52 52 51 49 47 47 46 46 46 46 45 45 46 46 47 48 49 50 50 54 57 60 63

GFSCGP_prec_cthk_075.txt.gz
RH
22 26 28 29 33 34 39 45 45 42 45 55 50 42 34 33 28 23 24 25 29 33 33 38 43 44 47 43 38 32 22 18 23 24 30 41 48 56 61 88 98 97 98 96
30 32 29 32 34 37 40 44 48 50 54 58 55 44 40 37 28 26 27 28 31 36 37 40 45 47 43 39 38 33 26 17 19 26 31 44 55 65 69 79 95 93 94 93
35 31 37 41 44 45 46 49 55 61 61 60 57 50 40 30 28 34 32 30 37 39 37 42 44 48 45 38 39 34 28 19 22 27 33 46 59 72 73 71 82 93 92 93
42 37 39 45 49 52 57 51 54 68 71 68 62 62 44 33 36 38 36 35 36 39 39 39 41 48 46 40 41 35 30 22 24 27 33 47 57 68 73 69 74 80 87 95
44 45 47 49 48 52 59 59 72 76 79 79 72 73 46 35 39 40 39 35 34 35 36 39 43 46 49 41 42 36 32 25 24 28 33 44 53 60 64 70 74 77 84 93
41 42 43 44 51 55 59 70 80 83 86 91 70 70 53 40 40 40 41 39 39 39 38 38 44 50 51 48 44 39 33 27 25 28 32 40 46 57 64 66 70 73 80 88
41 40 38 44 53 60 64 80 90 94 96 81 60 66 49 41 43 43 45 42 41 41 38 40 42 46 50 49 46 42 34 27 25 28 32 36 43 46 52 57 61 70 78 83
46 37 47 51 55 64 68 78 89 90 88 72 62 67 50 40 46 50 48 44 41 40 39 36 39 41 48 54 48 44 35 27 25 27 31 36 40 45 47 48 52 60 77 88
44 43 46 49 52 64 80 88 85 99 94 92 75 65 51 47 48 53 51 46 41 41 39 40 40 39 45 51 47 45 41 32 27 27 29 36 38 41 44 45 48 53 59 68
53 55 46 48 58 67 80 85 97 98 95 95 75 68 69 64 59 55 51 50 51 44 44 43 43 44 51 50 47 46 46 37 30 29 31 35 40 41 43 43 45 48 53 57
62 60 62 58 67 75 87 92 97 93 91 95 91 93 79 79 69 62 58 58 60 49 48 49 52 56 58 55 51 54 52 44 39 37 38 39 42 45 46 45 47 49 53 59
72 76 78 65 56 63 74 82 97 99 95 92 96 86 87 84 78 70 70 71 68 60 56 57 59 61 63 63 57 59 58 53 47 46 44 43 41 44 47 51 53 53 53 56
74 77 73 68 66 67 82 85 91 95 95 97 96 89 91 89 89 88 88 83 76 72 66 63 63 66 67 70 69 69 66 64 58 55 53 50 48 45 47 49 50 52 54 56
69 69 70 72 77 81 89 87 92 96 98 95 92 91 94 95 94 95 91 91 85 79 76 71 70 70 72 76 79 78 75 70 69 63 62 62 59 57 56 56 56 56 56 56
69 62 67 61 59 64 63 74 86 96 96 98 81 87 86 92 93 95 97 91 85 85 86 82 79 79 81 83 86 89 86 82 78 76 75 73 72 71 68 66 66 66 66 65
71 65 67 61 49 54 52 45 57 66 83 89 92 87 87 90 92 97 97 95 88 83 84 84 83 85 87 88 91 90 89 85 83 82 81 80 79 78 78 75 74 74 73 73
59 65 69 62 51 48 47 47 52 63 73 80 83 82 88 94 92 97 97 95 94 93 86 80 78 78 79 82 83 83 85 83 82 80 81 81 80 79 81 80 77 79 79 80
57 62 66 63 51 53 32 49 62 65 71 77 85 87 94 94 94 98 98 97 96 90 83 82 82 78 77 73 72 70 71 72 71 71 71 72 74 76 78 77 77 79 81 84
50 58 66 59 57 34 34 57 76 83 86 81 91 94 95 97 96 98 97 98 97 95 93 89 81 79 73 68 65 65 62 59 58 57 58 59 60 64 66 66 69 72 73 77
59 57 58 60 60 55 44 43 61 70 87 81 90 96 97 95 95 99 98 97 92 89 85 80 74 69 64 60 57 55 51 49 48 48 46 48 51 53 53 56 59 63 64 66
66 67 63 66 63 50 24 36 59 76 89 88 90 96 97 95 97 99 98 97 90 82 77 71 66 63 60 56 51 47 44 42 42 43 44 43 43 46 46 45 45 45 46 46
67 75 75 72 77 66 38 30 56 74 77 86 96 93 94 95 97 96 95 92 88 81 74 70 63 57 52 48 48 46 43 41 39 37 35 35 35 35 35 36 37 39 42 43
77 78 81 79 71 68 63 53 53 76 81 91 98 98 98 98 97 98 97 91 83 75 71 68 62 57 56 55 51 47 44 43 41 40 38 37 38 36 35 35 35 36 38 39
86 87 88 92 82 75 65 57 54 74 89 91 92 97 98 98 97 91 86 79 74 72 69 63 59 52 48 46 46 48 46 42 41 40 39 39 38 38 39 39 40 40 41 42
92 86 86 86 85 84 84 74 68 90 94 93 94 96 93 85 84 83 79 73 68 64 62 58 53 50 48 49 48 45 43 45 44 43 42 41 40 40 40 41 43 45 48 50
93 89 87 87 87 93 93 88 79 94 97 97 93 89 87 84 84 79 73 72 69 65 59 56 57 56 55 54 52 50 49 49 48 45 45 45 44 44 45 46 48 49 51 53

GFSCGP_prec_cthk_078.txt.gz
RH
24 26 26 23 23 24 29 33 36 34 35 42 41 38 36 36 38 32 28 24 24 25 28 33 34 41 42 41 42 46 39 32 27 26 27 31 37 45 55 61 70 89 97 98
28 30 24 25 27 29 31 35 37 35 36 42 45 40 41 41 41 35 30 26 24 24 29 31 32 42 43 41 43 44 40 32 26 25 29 32 39 50 60 70 71 90 99 99
30 28 32 31 37 39 42 44 43 43 42 43 46 40 42 43 44 37 33 27 24 25 27 32 36 42 43 41 43 41 41 33 26 26 30 32 41 56 69 75 76 95 98 99
41 32 34 39 40 44 50 46 50 50 56 55 56 60 46 47 46 44 39 28 27 29 32 38 42 43 42 43 45 42 41 34 27 25 29 33 44 58 71 77 74 81 90 93
41 45 46 44 41 44 48 50 56 59 64 66 67 77 51 48 50 41 32 33 33 34 36 41 44 41 41 45 46 43 39 35 28 24 28 32 44 56 67 69 73 78 80 83
40 43 45 42 41 44 48 55 60 64 71 76 68 76 58 51 49 33 34 41 40 40 42 44 46 47 44 48 48 43 41 37 28 23 28 34 44 50 62 68 70 73 77 81
45 43 39 38 41 46 57 64 71 77 79 75 63 76 60 51 50 35 42 43 46 44 43 44 45 44 42 48 51 45 44 38 29 24 29 34 43 48 54 61 64 69 71 75
51 36 43 43 45 55 65 69 74 79 86 83 63 68 58 64 58 44 44 48 49 45 44 44 42 39 40 46 52 49 46 40 30 26 29 34 40 48 51 53 55 57 64 79
53 42 46 51 53 55 72 79 77 86 85 92 73 61 59 65 60 52 47 49 52 46 47 45 45 42 40 44 52 54 51 46 31 28 30 35 40 44 49 50 50 49 54 65
54 54 52 53 55 63 74 80 89 91 92 95 75 71 79 77 73 62 56 63 58 52 52 50 49 50 48 51 59 61 56 49 38 33 32 35 41 44 45 48 50 51 52 55
60 59 65 69 66 75 83 88 89 92 95 93 92 83 86 86 85 73 71 66 65 61 59 55 55 54 54 56 60 66 61 50 42 38 34 36 38 43 45 47 50 52 54 58
66 74 72 71 69 66 75 81 87 95 95 96 96 81 86 92 88 82 75 70 69 67 67 64 61 60 58 60 66 69 66 54 43 42 41 41 42 42 46 49 50 52 52 53
71 80 76 75 78 76 83 89 91 93 96 94 96 81 85 95 93 86 81 75 73 73 74 67 68 67 65 65 71 70 68 62 54 50 49 46 46 45 44 45 49 51 54 53
78 79 75 73 69 72 78 81 85 96 98 95 88 83 85 91 93 90 88 85 82 80 79 76 75 74 73 74 74 72 73 72 70 65 62 58 57 55 55 54 54 53 53 53
80 81 80 73 67 66 68 69 70 79 83 96 80 80 80 89 94 93 96 93 93 87 84 83 83 82 81 80 81 81 82 81 82 80 73 72 72 71 69 65 64 64 63 63
81 82 79 70 55 46 42 36 43 53 61 66 73 73 80 83 87 94 96 95 93 94 89 89 90 88 87 88 89 90 91 91 87 90 85 82 81 82 79 78 76 72 72 73
78 78 73 63 49 42 34 37 40 49 51 58 71 70 80 92 91 92 95 98 95 89 92 94 92 93 95 94 94 95 95 93 89 91 86 84 81 81 81 80 80 81 81 80
71 70 70 63 46 50 27 38 44 56 62 63 69 80 89 97 96 98 96 97 98 96 93 92 90 87 86 86 85 89 90 91 87 84 81 81 80 80 81 82 82 82 80 78
64 65 68 60 58 45 29 42 48 56 56 65 81 89 96 97 93 97 96 98 98 98 98 95 87 86 87 81 76 73 73 74 72 68 64 65 65 67 71 72 71 72 75 78
60 57 56 61 63 60 31 43 40 44 68 91 93 92 96 96 95 99 99 99 97 97 98 96 93 88 80 74 70 68 67 64 60 56 53 51 49 47 47 50 53 58 63 65
72 69 66 69 71 56 38 37 32 51 69 85 86 90 97 98 97 98 99 98 97 94 88 83 80 77 75 76 69 62 57 55 53 53 49 45 45 44 44 42 42 43 44 46
66 73 74 72 77 68 57 55 47 59 71 84 85 93 98 98 99 98 98 98 92 88 84 80 75 69 65 61 56 53 52 53 52 49 46 43 40 39 38 37 37 36 38 39
74 73 78 74 71 75 74 69 63 56 60 85 88 96 99 99 99 98 98 98 95 85 80 78 74 69 64 62 60 59 57 54 52 51 46 43 43 42 40 38 38 38 39 38
93 90 87 84 86 82 79 78 71 62 58 76 91 96 98 98 98 97 97 91 86 81 78 78 76 72 65 62 59 56 52 46 43 41 41 40 39 39 38 38 39 41 41 41
92 91 90 83 84 84 85 84 81 72 67 78 94 98 98 97 97 95 92 88 85 81 75 70 66 64 64 63 60 58 54 51 49 48 47 45 44 43 41 41 43 43 44 46
98 95 87 83 82 85 89 93 91 79 75 91 93 96 97 95 95 94 89 88 87 80 74 69 65 62 61 60 59 58 54 52 50 49 49 49 47 46 46 47 47 48 50 50

GFSCGP_prec_cthk_081.txt.gz
RH
26 30 30 21 23 21 23 25 28 26 26 27 24 23 24 28 28 29 28 28 26 21 25 29 29 29 37 41 45 45 49 51 42 34 28 28 31 34 40 46 54 59 66 79
40 35 28 26 26 27 29 31 30 30 30 32 29 26 27 28 28 29 30 30 28 24 23 28 28 30 37 39 45 47 49 46 42 34 26 29 33 36 45 54 59 68 73 84
48 38 39 35 29 31 35 40 39 40 36 36 34 28 22 26 28 30 31 33 33 27 22 22 25 27 33 37 44 46 47 42 42 34 29 30 35 39 52 64 70 72 85 95
43 29 31 35 38 41 46 39 42 44 49 51 44 43 31 31 32 33 33 37 36 28 24 21 21 26 32 39 47 45 44 42 41 37 30 31 35 45 59 72 76 73 90 96
42 50 47 42 37 48 50 43 46 48 55 58 51 56 37 38 41 40 41 43 38 30 28 21 25 34 42 45 48 47 40 44 40 36 29 32 37 49 59 69 74 76 79 89
49 50 56 55 53 51 48 45 47 52 57 62 48 57 45 46 48 49 46 46 41 39 31 25 36 44 45 48 46 48 41 44 41 36 28 31 38 48 55 68 76 83 82 79
61 57 50 49 48 47 45 51 53 59 65 53 52 61 55 57 65 62 53 44 45 44 33 36 45 44 46 45 47 47 43 47 44 36 27 32 40 47 54 60 68 75 79 81
57 50 53 48 43 41 56 54 55 64 66 66 60 63 60 73 69 67 62 46 50 47 42 43 44 49 48 44 50 51 49 50 48 35 29 33 41 46 51 54 57 60 65 75
64 54 58 63 59 53 64 64 62 72 68 78 59 57 69 70 68 65 64 54 54 54 50 48 46 50 51 52 54 55 55 56 52 34 29 34 40 45 49 49 53 51 53 59
60 61 62 63 60 61 64 71 82 83 78 76 63 71 76 77 72 74 68 57 64 64 59 51 51 53 56 55 54 58 58 60 55 37 31 33 40 41 45 47 49 48 52 54
62 64 74 73 70 71 80 86 82 85 85 78 77 71 88 86 82 83 77 67 69 69 68 64 60 61 60 59 56 59 62 63 59 40 36 36 37 41 43 44 47 49 51 53
68 71 68 69 73 73 76 84 81 83 85 92 89 78 88 93 91 88 86 76 67 71 73 68 69 68 66 65 62 63 66 69 69 42 37 40 39 41 43 44 47 51 53 54
86 81 80 75 77 83 85 91 90 85 86 83 89 76 87 87 85 93 91 80 74 76 78 76 73 75 72 70 68 72 71 74 69 50 41 44 48 45 46 47 48 51 53 55
92 86 80 69 68 77 83 76 75 83 92 93 90 77 74 79 85 92 97 87 83 84 83 81 82 80 76 73 71 70 73 76 76 65 54 53 55 52 50 51 51 50 52 54
91 97 89 78 69 69 72 66 63 61 65 75 62 62 60 65 80 88 96 91 88 89 86 87 84 81 77 79 80 80 83 84 81 77 68 66 66 64 61 62 61 61 61 60
97 96 94 82 71 57 49 38 37 42 47 55 61 58 65 67 83 90 93 95 94 92 89 88 88 84 83 83 83 87 89 88 89 86 86 81 76 76 76 77 78 77 75 73
91 86 83 71 64 55 41 38 35 40 51 57 61 63 65 76 92 92 93 97 97 92 92 93 92 88 90 90 91 92 94 94 91 91 90 89 88 83 81 82 82 83 85 85
87 79 77 63 55 46 33 36 40 36 43 43 51 69 71 81 95 98 95 97 98 97 94 98 96 96 92 95 95 95 97 98 97 97 94 93 88 88 85 83 84 84 84 84
76 77 72 60 59 42 37 41 46 36 43 74 81 79 84 96 95 98 97 96 98 99 98 97 94 90 90 90 89 90 92 91 91 94 92 90 85 84 83 82 82 82 82 80
67 66 65 66 57 43 42 49 48 44 46 69 78 88 91 95 98 98 98 97 96 97 98 99 96 92 90 89 86 82 79 78 77 77 77 76 72 69 66 61 57 56 57 62
69 66 64 66 64 48 52 52 48 35 53 62 71 85 85 94 98 98 98 98 98 98 97 96 96 95 93 86 79 74 74 72 71 68 64 61 60 57 55 53 51 47 45 46
66 69 71 67 66 58 63 63 62 64 59 59 71 81 88 97 98 98 98 98 97 94 91 88 86 83 80 80 78 75 75 72 67 64 61 57 58 56 53 51 48 45 43 41
82 77 80 70 64 69 74 75 74 70 64 59 66 84 89 98 98 98 98 98 98 98 94 90 87 83 80 79 77 74 71 67 65 63 62 61 60 58 55 50 47 44 42 40
91 88 90 78 73 74 76 76 75 73 69 64 64 94 97 98 98 98 98 98 97 93 89 86 86 85 81 78 71 64 64 63 59 54 53 52 49 46 43 43 42 42 40 39
87 87 85 78 77 78 79 81 83 82 75 67 69 92 98 98 97 97 96 95 93 90 86 83 81 79 76 72 71 68 65 65 64 61 59 55 51 48 45 43 44 45 43 43
95 97 88 79 80 82 84 91 92 88 81 76 80 97 98 98 97 97 95 94 94 90 87 83 77 73 69 65 62 59 58 58 56 54 52 50 49 47 45 45 45 45 45 45

GFSCGP_prec_cthk_084.txt.gz
RH
47 35 36 40 38 30 28 28 25 24 20 22 22 21 22 20 18 18 20 20 20 21 22 18 26 27 31 34 36 44 46 47 49 56 46 34 27 28 32 37 42 48 53 61
53 45 30 28 35 42 38 31 27 27 25 27 25 25 22 21 19 19 21 22 22 23 25 20 25 28 32 36 35 43 44 47 51 56 44 33 26 29 35 40 48 55 58 63
49 55 48 38 31 31 30 31 27 32 33 32 33 25 24 21 18 19 19 20 23 24 26 26 23 28 32 33 36 41 44 47 51 52 43 37 27 30 35 43 56 67 70 73
54 51 50 52 36 37 44 45 41 39 43 38 39 34 28 23 25 25 26 25 25 26 29 27 24 27 30 31 40 41 44 49 52 48 43 39 28 31 35 49 65 76 78 86
47 51 55 48 41 47 44 47 46 46 46 43 36 44 29 29 32 35 32 32 31 33 36 33 29 23 28 30 36 42 46 53 49 46 46 36 29 32 41 51 65 70 76 87
49 55 52 57 53 49 52 49 48 54 49 55 34 39 32 39 48 47 46 46 46 47 45 38 32 26 24 27 36 45 49 54 48 47 46 33 30 33 41 51 64 71 77 78
41 46 56 57 65 66 64 57 48 64 69 44 42 45 36 48 55 57 57 57 59 56 51 45 37 32 28 35 48 50 54 54 45 50 47 31 32 35 42 49 59 69 72 77
58 55 52 62 56 58 55 45 46 56 55 51 48 47 54 59 61 64 63 63 60 58 57 49 38 39 48 54 53 55 56 53 45 54 47 27 35 37 42 49 53 58 62 69
66 61 57 62 62 55 63 63 56 63 54 59 40 46 52 58 67 66 67 63 60 60 61 56 46 55 57 59 57 59 58 56 54 54 44 28 36 39 43 49 53 54 55 59
72 66 68 70 72 72 70 68 75 68 70 63 50 51 62 71 72 71 69 67 66 64 65 60 60 62 62 64 59 60 63 63 61 58 43 30 37 41 44 49 51 51 51 53
72 67 70 76 73 73 76 78 78 77 74 70 56 57 70 75 76 72 71 73 72 68 67 63 65 64 65 64 64 65 65 68 66 61 45 34 37 40 44 47 48 48 48 52
82 75 63 67 80 78 74 74 75 74 79 75 80 62 71 81 79 73 78 79 75 71 72 71 72 70 70 69 68 69 66 71 71 67 50 39 40 42 43 47 50 50 51 52
96 76 74 73 72 72 75 80 83 82 78 72 83 75 74 77 79 76 83 84 80 74 78 76 78 73 72 72 71 70 69 74 75 70 63 48 40 45 45 48 50 50 51 53
98 88 75 68 72 76 79 73 74 77 80 80 76 65 61 54 59 70 85 87 86 80 78 79 78 79 79 77 78 73 74 78 75 71 68 59 47 48 53 52 54 55 54 54
99 91 83 72 68 69 70 71 66 64 64 62 61 53 55 57 60 68 84 92 92 87 82 79 81 81 81 80 79 81 80 78 73 74 75 67 52 52 56 57 55 57 58 58
98 98 96 90 75 63 57 48 42 41 40 43 52 62 66 63 66 77 88 94 96 91 84 85 83 88 88 87 87 86 84 82 82 83 85 77 65 62 64 65 65 65 67 69
98 89 88 91 74 61 53 44 42 41 49 49 51 52 58 68 76 82 92 96 97 97 92 92 90 92 95 92 90 88 89 88 90 93 90 88 80 76 79 83 85 86 86 85
97 93 73 72 64 55 52 52 39 34 45 56 60 69 76 86 81 84 98 97 98 99 98 97 97 95 95 97 94 95 95 94 95 95 98 95 94 91 89 90 89 88 87 88
86 88 73 64 59 50 49 50 47 48 51 59 59 66 76 82 81 89 98 98 98 98 98 97 97 97 98 99 95 96 99 99 99 97 96 99 98 95 96 92 92 91 88 88
72 71 74 64 57 46 60 57 55 47 54 59 61 61 74 81 86 94 98 98 98 98 98 97 97 97 97 99 95 95 97 96 98 98 97 99 98 95 91 90 88 86 85 82
71 66 68 63 61 49 52 51 47 55 65 59 58 63 68 80 88 95 97 97 98 98 97 98 97 97 98 97 96 91 87 87 86 90 90 92 86 84 81 80 79 74 71 65
69 64 63 61 64 60 59 56 59 68 68 62 54 56 70 84 92 97 97 97 97 97 98 97 96 94 95 97 96 91 83 81 81 81 81 76 74 73 69 69 67 63 61 58
80 78 82 66 77 69 73 72 71 74 76 70 58 63 73 84 92 96 97 97 98 97 96 95 91 88 85 82 81 81 84 81 81 81 80 78 74 72 70 66 65 62 61 58
82 81 86 80 80 74 75 74 70 76 75 68 63 75 81 87 93 96 96 97 97 98 96 96 94 90 86 82 79 80 80 80 81 81 82 81 76 74 74 70 64 58 53 52
90 85 80 78 77 75 74 74 77 78 76 71 67 79 89 96 97 97 97 96 95 95 92 91 89 87 83 82 80 78 77 75 72 69 68 68 66 62 61 60 58 58 57 53
96 94 90 87 77 72 74 76 81 84 82 78 77 85 90 97 97 97 97 97 97 96 94 91 87 83 79 75 72 68 66 66 64 62 62 61 57 55 54 52 50 49 49 47

GFSCGP_prec_cthk_087.txt.gz
RH
41 41 42 44 48 50 49 44 38 37 32 26 29 28 24 17 16 17 14 14 18 21 21 23 21 21 30 36 40 43 37 40 46 52 49 56 51 35 27 25 27 32 38 43
42 42 43 44 46 39 43 51 39 31 35 35 30 34 33 20 17 15 16 18 19 21 21 24 23 25 30 35 37 40 36 41 49 48 52 58 54 38 28 26 29 34 40 46
42 46 51 45 48 44 35 32 42 43 38 40 32 32 27 30 23 21 20 20 20 21 24 29 29 27 31 35 36 38 37 43 50 54 55 59 52 39 29 28 31 39 50 59
35 43 48 50 51 53 49 38 36 40 42 40 47 44 32 32 26 25 25 26 24 23 25 32 32 30 32 34 36 39 41 45 48 54 56 59 48 39 29 30 40 49 64 70
32 43 44 49 54 51 53 52 53 56 57 50 42 39 29 35 33 42 41 39 37 34 32 33 34 34 34 37 38 40 41 44 50 54 58 58 46 38 33 33 41 53 59 71
30 38 45 50 55 57 54 58 59 48 51 52 39 39 28 46 58 51 54 53 53 50 46 41 41 41 41 41 42 43 40 48 50 56 62 56 43 35 31 35 44 54 65 71
42 35 38 46 55 61 58 63 66 64 67 58 48 50 38 62 54 56 60 59 57 58 55 58 59 50 47 47 44 45 38 46 45 57 62 53 41 29 29 41 44 52 63 67
52 52 52 39 49 65 68 68 67 58 54 63 60 54 48 56 52 55 59 57 58 57 57 57 61 54 48 46 47 42 38 42 50 65 62 48 41 28 32 43 44 50 54 59
64 58 54 62 54 53 63 67 60 61 50 57 57 43 58 56 56 59 61 58 59 61 58 58 55 55 51 50 43 38 42 50 62 67 58 50 39 29 34 44 46 50 48 51
54 61 67 66 60 55 61 67 77 70 72 63 46 44 59 81 69 59 57 60 63 61 60 61 62 60 59 52 48 54 61 68 70 69 61 54 39 31 36 40 47 51 49 49
67 72 67 69 67 69 68 77 81 75 72 70 64 68 77 77 66 61 57 64 64 66 64 70 68 68 67 61 66 65 71 72 74 69 67 60 43 34 37 40 45 47 48 50
88 84 67 73 66 70 82 74 73 75 66 63 68 71 81 70 64 64 63 67 68 68 68 72 76 73 69 74 73 74 74 74 74 72 70 62 53 40 40 44 45 48 48 50
86 92 79 65 77 67 69 79 79 82 82 82 78 71 84 68 58 67 65 73 72 70 71 74 80 80 77 79 80 79 78 77 78 76 73 65 59 48 45 48 47 50 50 51
79 87 79 71 68 75 65 64 71 80 85 71 69 64 62 55 58 62 66 70 75 77 75 77 83 84 83 80 78 80 82 81 79 78 73 70 66 61 54 50 54 53 55 55
90 91 86 69 84 82 76 79 75 76 75 75 64 54 52 64 56 63 64 70 81 85 82 80 86 88 84 82 82 83 83 82 80 77 71 72 71 68 62 55 58 58 55 56
90 84 91 88 69 67 65 62 61 57 51 45 45 56 71 77 67 77 71 75 86 91 92 86 88 90 88 84 84 83 83 85 83 79 77 76 75 70 67 59 58 61 60 60
94 94 97 90 70 56 57 57 51 51 54 60 70 75 72 66 76 79 75 80 89 97 98 94 89 92 92 86 87 90 89 89 87 85 82 81 80 77 74 70 64 65 67 71
88 96 97 84 67 75 73 62 53 47 60 56 61 59 66 74 76 80 77 85 95 98 98 96 93 89 92 93 93 91 93 95 92 89 89 87 85 84 83 77 74 80 86 90
91 97 89 81 91 63 65 69 60 55 77 65 57 57 61 68 72 77 77 87 96 97 98 98 94 95 96 95 93 95 98 98 99 97 99 96 94 95 94 91 90 90 93 95
82 83 90 66 64 66 86 67 55 50 67 67 62 56 59 64 73 78 81 93 97 97 97 97 97 98 98 98 95 98 99 99 98 98 99 98 97 97 97 97 99 98 97 97
77 77 77 71 63 65 71 55 49 61 86 77 60 55 55 60 69 82 88 94 97 97 97 97 98 97 97 97 99 97 99 98 99 98 98 99 98 97 97 96 98 98 97 94
71 73 69 65 61 70 61 55 63 73 69 65 64 60 60 64 68 79 90 93 95 95 97 95 97 97 97 97 98 95 93 95 98 96 97 97 98 97 96 95 97 96 93 88
86 87 92 85 87 75 67 68 67 67 70 72 68 67 71 70 74 81 89 93 95 95 95 97 96 97 97 96 97 96 96 98 97 97 98 93 95 92 90 87 85 81 80 75
78 73 76 83 82 72 67 65 62 66 70 72 70 74 79 75 77 83 86 92 95 97 97 95 96 96 95 96 96 96 99 95 98 98 96 95 95 92 91 89 90 89 86 84
88 77 74 81 80 76 66 66 69 72 71 73 72 80 81 84 85 93 95 94 96 98 97 97 96 96 95 93 91 90 87 87 88 87 88 85 88 84 81 81 78 76 75 71
87 86 82 80 76 71 70 68 71 76 78 79 77 83 87 90 94 97 97 97 97 97 97 97 96 95 92 90 87 86 83 81 81 77 76 75 74 72 69 66 63 63 62 59

GFSCGP_prec_cthk_090.txt.gz
RH
37 35 34 36 36 36 40 42 41 40 39 42 39 35 34 33 34 34 20 14 14 16 18 20 22 26 24 19 25 30 34 29 37 43 45 47 45 49 52 40 26 23 30 33
35 34 32 34 39 40 42 43 40 34 44 48 44 38 38 34 31 30 25 22 21 18 18 20 22 25 22 19 27 32 34 31 40 42 43 47 48 50 53 39 26 26 30 34
29 32 34 36 37 39 38 39 39 37 35 46 48 40 36 35 40 37 35 27 23 21 20 20 22 22 23 22 29 40 37 37 44 44 46 50 52 54 56 44 31 27 31 35
24 28 31 40 40 43 37 43 44 46 45 43 43 50 49 47 45 48 46 40 36 29 22 21 25 28 28 27 31 39 40 43 47 42 47 50 49 52 53 42 32 28 33 40
24 30 32 37 36 48 40 43 42 51 56 53 47 53 44 35 38 42 53 57 51 41 31 25 25 31 31 31 32 35 43 46 46 43 48 50 51 55 52 41 32 34 39 50
20 24 30 34 37 37 40 43 44 56 59 62 47 45 43 39 61 69 61 51 46 46 42 37 34 33 32 35 36 39 45 46 47 47 52 52 53 58 51 40 28 35 41 49
45 38 34 40 40 41 50 52 56 62 69 59 53 58 51 52 72 71 69 57 49 47 49 47 43 43 40 40 44 46 46 46 47 51 57 54 55 60 50 35 29 33 42 48
42 39 49 57 48 48 51 55 56 70 64 61 71 82 58 71 63 66 66 55 48 49 49 51 54 51 48 52 52 61 51 49 46 55 58 57 58 64 46 32 31 38 44 48
57 55 53 53 58 47 51 69 61 70 68 68 52 69 68 82 66 63 66 57 55 57 56 54 53 53 56 63 67 62 62 57 49 55 57 57 65 63 43 32 34 40 47 48
50 57 49 63 72 59 53 54 70 72 88 66 46 50 51 85 76 74 62 54 55 58 63 64 64 62 71 67 66 73 62 54 52 54 57 62 71 56 43 32 37 42 49 49
51 61 37 52 82 73 61 53 69 78 75 79 78 73 92 92 90 78 71 61 59 63 68 72 70 70 70 68 65 64 67 58 51 53 66 68 70 59 45 37 40 46 48 47
62 56 51 40 54 79 80 58 67 90 80 69 72 77 92 95 74 78 71 61 62 68 69 75 73 73 73 71 67 67 60 57 58 66 72 74 75 65 54 45 43 46 47 47
70 60 61 37 41 73 89 70 78 79 88 93 98 80 85 70 66 76 73 67 68 73 74 76 79 79 76 77 71 62 63 68 74 79 80 76 77 73 64 54 51 51 49 49
61 64 62 73 71 81 94 84 73 82 98 87 91 88 90 79 82 84 76 71 71 76 81 81 81 79 83 80 77 78 78 83 85 84 82 80 82 75 71 62 61 55 52 49
73 69 64 73 68 75 81 95 74 78 80 96 84 77 89 92 92 84 75 70 69 76 81 87 85 81 84 87 83 88 89 87 84 84 83 82 81 78 74 71 70 62 56 54
77 66 70 70 61 65 80 86 89 92 90 82 63 78 87 85 82 77 77 76 73 74 84 89 91 84 85 90 90 90 90 89 87 87 88 87 82 80 77 77 72 70 62 59
68 69 73 59 63 77 97 71 69 62 81 79 82 83 71 71 73 70 69 79 78 78 87 92 92 90 87 90 95 96 92 91 92 95 92 90 86 82 80 81 78 75 70 63
66 83 93 80 86 94 70 61 59 83 82 71 65 62 57 57 61 68 71 77 79 84 96 95 94 94 93 92 95 95 93 93 93 92 91 93 90 85 83 82 81 81 81 76
71 87 95 96 96 76 68 68 62 72 84 69 62 55 54 54 62 69 71 75 77 88 97 96 95 98 97 97 98 97 96 95 95 96 97 97 95 92 89 87 85 84 82 83
78 91 97 97 83 82 98 78 61 56 82 75 65 60 54 51 55 66 75 78 84 93 96 96 96 98 98 98 97 97 99 98 94 98 97 96 98 94 93 91 91 90 92 92
81 92 95 94 79 98 88 76 52 59 83 78 74 64 56 53 55 63 73 82 85 92 96 96 96 97 97 97 97 97 96 98 97 97 98 98 98 96 97 96 96 97 99 96
80 80 79 76 73 95 79 66 71 87 82 73 65 63 62 63 68 69 73 78 87 91 92 94 96 97 96 96 97 97 97 96 96 97 96 97 96 97 97 98 97 98 98 98
96 92 98 97 98 93 79 69 67 67 66 68 68 67 69 75 74 74 78 81 87 92 90 94 94 96 96 96 97 97 96 97 98 96 97 96 97 97 97 97 97 96 96 98
94 84 93 94 90 83 77 67 64 64 67 68 69 69 77 81 82 79 83 86 87 90 94 93 95 96 97 96 97 96 97 98 97 96 98 95 98 97 97 97 97 97 98 95
94 87 84 88 89 84 77 66 65 70 72 72 72 73 81 87 89 88 87 95 95 94 94 95 95 96 96 96 96 95 96 96 96 96 97 97 96 97 97 96 96 95 96 95
92 92 86 83 82 80 75 70 69 73 78 79 78 78 83 89 91 94 96 97 97 97 97 97 97 97 97 96 96 95 93 92 92 91 89 87 83 79 79 79 77 77 76 74

GFSCGP_prec_cthk_093.txt.gz
RH
30 32 32 31 32 34 35 37 34 34 34 40 37 37 32 33 34 30 34 35 32 30 25 27 22 24 23 21 19 20 23 36 34 36 34 38 38 43 43 44 50 48 35 23
31 34 28 29 29 29 33 35 34 31 33 36 31 32 34 38 35 34 31 34 32 31 25 17 17 20 23 24 20 22 22 32 35 36 32 32 40 48 45 48 51 53 35 25
28 26 32 36 35 35 31 36 33 30 31 31 36 30 29 34 40 40 40 43 37 33 29 32 29 20 25 24 21 22 23 32 34 36 35 37 46 47 47 49 50 53 38 28
27 19 23 32 35 42 35 38 34 37 43 42 41 39 37 34 37 45 53 50 48 46 43 33 36 30 31 28 25 23 23 30 36 36 35 38 40 43 45 47 51 51 40 32
27 26 28 28 27 35 35 43 41 42 43 46 41 54 38 36 42 40 57 61 58 54 48 39 32 31 30 29 25 27 29 37 36 33 36 41 42 46 50 52 54 51 40 31
25 24 23 24 25 30 32 34 41 42 45 50 39 56 40 37 36 56 62 74 67 59 51 45 36 33 34 33 34 31 34 36 38 34 35 41 42 49 53 54 57 52 37 31
29 28 35 35 36 36 41 51 60 61 57 49 51 65 53 56 56 67 75 69 78 66 59 56 44 37 39 39 39 46 38 37 36 36 41 42 45 53 55 58 61 51 32 36
42 35 36 50 46 52 51 62 78 70 62 57 63 76 60 70 83 86 73 71 74 73 63 51 53 49 46 39 39 45 50 47 47 49 47 47 53 58 58 58 66 44 33 38
58 44 35 46 55 59 53 57 58 87 72 70 54 50 56 67 78 94 87 76 73 63 51 53 57 58 54 46 50 51 49 51 55 66 56 53 57 59 62 63 65 37 38 43
56 56 36 38 60 55 64 55 71 85 94 90 56 53 86 84 88 95 86 73 70 63 55 59 59 61 61 57 58 67 83 85 76 77 73 59 60 62 65 69 60 37 41 44
58 61 44 36 44 58 67 74 65 69 83 83 85 85 96 90 97 96 83 77 73 68 62 63 66 66 62 62 64 69 91 85 93 85 72 63 61 61 67 72 54 40 44 47
63 71 69 43 27 33 70 93 97 96 80 81 86 79 88 87 91 96 88 83 76 74 73 70 70 72 70 69 72 74 79 80 86 81 72 62 65 66 71 72 60 46 47 47
59 67 68 38 28 40 64 91 97 97 83 81 89 98 92 95 93 94 90 83 75 72 71 72 74 76 76 71 73 75 76 72 78 74 67 68 68 71 76 73 66 54 53 49
62 64 58 53 52 65 61 71 82 97 98 86 97 98 95 97 98 94 87 79 75 69 73 76 79 78 80 78 77 79 77 72 72 76 70 70 73 79 84 76 73 64 62 57
67 64 65 58 56 72 65 64 75 91 97 96 93 98 96 97 93 87 84 81 74 73 73 75 80 87 84 81 83 85 82 80 72 74 76 82 81 90 87 81 78 77 70 64
70 74 71 65 48 55 75 73 90 92 98 98 90 98 96 92 85 77 77 72 68 72 69 70 79 85 89 85 87 92 92 90 86 86 91 95 96 98 93 85 84 85 81 73
59 67 74 64 59 68 73 76 81 92 98 96 98 93 87 84 76 71 69 68 69 75 74 77 80 87 93 88 90 96 94 95 96 95 94 96 96 98 97 92 89 92 85 82
46 62 82 79 79 89 87 72 91 92 94 90 90 83 75 70 64 65 67 67 68 73 74 80 87 88 93 94 92 95 98 95 96 95 93 97 96 97 98 96 91 91 90 86
46 64 96 93 85 96 94 95 90 90 97 89 78 67 62 59 56 60 63 67 68 72 75 89 95 91 96 98 93 98 97 97 98 98 97 97 98 98 98 97 97 92 91 88
72 82 97 96 97 97 98 86 76 74 86 84 75 68 62 57 56 56 61 62 69 75 81 92 95 94 96 97 98 99 96 95 99 98 95 97 94 99 96 97 98 96 94 91
85 94 96 96 96 96 93 75 70 71 81 75 72 69 60 59 59 60 62 62 69 79 84 90 95 97 97 97 98 97 97 97 96 94 98 92 99 96 97 97 96 98 98 94
80 95 98 97 97 95 87 72 78 84 78 77 75 68 64 63 67 67 68 71 74 81 85 88 93 96 96 97 97 98 96 98 98 97 96 97 95 96 96 97 97 98 98 99
98 99 97 98 98 98 87 76 85 85 82 73 69 67 64 69 73 74 74 75 78 81 86 93 95 96 97 97 97 97 96 97 97 97 97 97 96 97 97 98 95 98 97 98
94 94 98 94 97 93 85 78 73 71 67 66 68 68 69 75 75 78 79 82 86 87 89 91 95 96 97 98 97 96 97 97 96 96 96 96 97 97 97 97 97 96 97 97
95 90 95 93 92 85 82 78 69 66 67 69 69 70 71 75 80 85 88 86 89 96 97 95 96 98 97 97 98 98 97 97 97 96 96 97 96 96 96 97 96 97 96 96
89 91 90 89 85 83 75 70 69 69 71 72 70 70 71 77 87 87 91 92 95 97 97 98 97 96 96 96 97 96 93 92 91 89 90 88 88 89 90 91 90 89 89 88

GFSCGP_prec_cthk_099.txt.gz
RH
36 37 34 32 31 31 33 35 33 30 32 33 32 25 26 26 25 24 24 24 23 22 21 22 23 25 28 32 32 32 29 29 32 29 29 33 37 51 59 55 50 47 45 41
38 36 27 29 33 36 37 35 33 32 33 33 33 24 21 23 21 19 20 20 21 21 20 21 23 25 28 30 36 34 31 28 28 30 25 26 30 44 50 59 71 60 50 42
35 30 32 32 33 36 35 37 34 33 32 33 32 25 24 20 18 17 18 21 21 25 28 28 28 28 31 34 38 35 33 32 30 26 28 27 35 46 52 59 70 60 52 46
33 27 27 28 31 33 35 32 31 32 37 39 32 37 20 17 18 20 19 27 36 38 41 45 41 38 37 40 39 34 31 30 36 31 30 30 28 39 47 61 64 56 48 51
30 31 31 30 28 29 30 31 33 34 37 35 26 50 21 19 20 22 39 50 53 54 54 57 55 53 52 46 42 33 28 30 31 33 32 30 28 36 49 59 62 59 52 53
31 32 28 26 25 27 28 30 33 35 36 42 24 46 27 25 30 43 56 68 70 67 64 67 72 70 72 59 51 39 33 34 37 36 37 35 29 45 55 53 56 55 56 52
31 25 25 30 31 33 37 39 49 54 55 42 33 46 37 44 51 64 69 72 80 71 75 76 75 85 81 70 63 48 39 34 29 34 43 34 39 42 48 51 60 55 56 51
43 34 32 31 35 37 44 48 58 63 62 52 40 52 42 54 60 64 66 73 77 81 79 82 87 87 81 79 71 56 54 58 51 47 40 40 44 48 54 65 55 55 57 54
43 43 35 34 30 31 41 54 55 67 52 61 47 45 57 58 66 74 76 75 83 89 88 90 87 93 84 80 76 63 62 61 53 57 62 53 52 62 63 65 56 60 61 56
40 39 33 28 23 26 32 36 58 75 85 70 52 53 55 63 72 76 82 83 94 95 95 98 97 91 85 76 72 72 69 62 69 67 61 68 67 77 78 68 64 62 61 57
33 35 33 28 25 25 25 30 44 61 82 96 74 63 65 67 70 76 88 89 97 96 96 93 90 82 73 75 78 80 78 74 73 78 82 81 84 90 84 82 74 66 63 65
34 37 43 31 23 30 31 41 51 71 66 88 92 77 81 76 84 89 90 98 97 94 90 88 85 82 75 75 79 85 82 75 73 79 88 92 92 94 93 88 77 72 75 68
38 43 44 28 33 34 38 47 51 66 78 80 94 96 89 87 88 91 97 97 93 89 85 82 81 82 80 76 77 80 86 85 82 80 79 81 81 86 96 87 78 77 74 77
38 43 43 44 40 49 49 47 48 62 76 71 79 69 84 93 94 95 92 94 88 84 82 82 79 78 81 80 76 76 77 84 84 82 80 77 85 95 98 91 81 78 75 77
43 50 51 50 52 54 50 42 41 63 56 74 57 72 90 95 98 95 95 91 79 78 76 77 76 79 80 81 79 77 75 77 75 76 83 84 89 91 95 93 81 80 78 82
48 54 59 56 48 48 47 35 33 46 60 68 54 69 86 90 98 95 94 84 75 74 73 72 74 74 75 78 80 80 76 78 77 76 76 81 88 95 94 84 82 83 82 87
43 48 51 46 43 47 41 47 47 44 76 67 72 82 87 91 97 89 85 82 74 71 70 70 71 70 71 78 83 85 84 80 79 81 89 85 79 90 96 89 80 83 82 83
40 50 56 57 50 57 66 91 84 76 80 79 87 95 96 94 90 79 72 69 71 73 73 73 73 76 79 81 81 84 87 86 89 93 96 94 92 92 93 84 83 82 83 85
59 50 60 63 69 70 84 98 97 98 97 96 97 95 90 86 77 71 68 66 69 75 74 73 75 75 76 86 84 88 90 93 91 99 89 98 98 98 93 93 89 88 87 89
67 68 74 86 95 96 98 98 98 97 96 96 90 88 84 77 71 68 63 64 68 72 74 76 76 76 77 81 84 88 90 91 86 86 95 98 92 95 98 99 96 97 98 98
90 89 89 89 96 92 98 98 98 98 97 91 89 83 81 75 75 72 70 72 73 71 74 74 76 77 78 81 84 86 88 91 96 97 91 96 94 94 97 98 98 99 98 98
97 96 96 97 97 95 97 97 96 95 87 82 81 79 79 77 76 74 74 76 79 79 77 75 77 80 80 82 85 87 89 91 94 96 93 96 97 98 97 98 99 98 98 96
96 98 97 97 97 98 97 97 96 91 85 81 80 78 80 81 80 78 79 80 80 80 82 84 81 81 82 85 87 88 90 92 95 95 95 95 97 95 96 97 98 97 96 97
98 98 97 93 97 95 93 91 92 88 85 82 78 79 80 80 79 79 81 83 84 85 86 88 88 87 85 85 87 90 90 90 92 93 94 94 95 95 96 97 97 96 97 96
97 96 93 94 93 90 85 82 83 83 81 76 75 76 78 78 79 80 82 86 87 88 88 89 89 90 88 85 84 86 87 85 86 86 87 87 90 93 95 95 96 97 96 97
88 92 93 92 88 85 84 81 79 78 72 72 71 73 75 78 77 77 80 84 85 87 91 92 93 92 90 86 83 81 77 73 69 68 66 68 68 69 74 80 83 87 88 92

GFSCGP_prec_cthk_102.txt.gz
RH
42 43 42 40 39 38 39 39 39 35 31 32 30 29 29 29 29 28 26 24 22 22 22 23 22 24 26 27 28 30 30 31 34 35 39 43 52 47 44 45 62 63 45 45
42 39 35 35 36 38 39 37 38 37 36 36 32 27 27 26 23 23 21 19 19 19 20 20 20 21 24 24 25 27 28 30 30 32 33 33 38 43 39 43 56 71 61 47
40 37 36 35 36 38 37 38 37 37 33 31 29 24 21 20 19 20 21 25 30 32 34 32 29 28 26 26 27 28 29 29 32 34 35 36 37 44 44 44 52 61 65 61
36 32 33 36 37 36 39 34 35 36 37 39 32 35 23 20 20 20 31 36 38 39 41 42 42 39 37 35 31 28 31 31 32 37 34 35 35 34 39 40 44 49 59 75
39 40 39 40 36 34 33 30 30 32 37 37 38 40 23 20 21 36 39 39 39 41 42 45 44 45 44 44 42 40 36 35 36 40 37 36 35 33 35 32 41 52 60 77
42 40 40 40 36 32 30 30 31 33 37 44 36 41 24 23 36 38 41 43 44 43 45 48 49 50 52 50 54 52 49 47 42 48 39 34 33 35 38 32 37 50 64 73
44 36 35 33 33 35 38 42 47 48 54 43 38 44 27 35 38 43 45 48 49 49 47 49 55 60 60 63 70 67 62 56 49 45 38 30 33 39 45 39 39 51 63 70
48 44 46 42 39 33 39 40 51 57 57 50 39 41 35 42 42 44 48 55 61 62 60 63 67 73 76 80 85 76 70 70 59 50 46 44 45 43 46 40 43 58 69 69
55 51 45 41 36 31 34 46 46 58 53 60 45 40 46 50 53 55 58 62 65 65 71 78 82 87 85 87 87 81 77 75 66 67 60 51 54 53 53 47 56 69 80 72
50 42 40 37 30 30 28 28 43 58 66 64 43 49 53 64 66 64 66 66 69 75 86 91 91 95 94 90 87 85 80 77 75 73 71 64 56 65 63 56 58 65 73 77
34 34 42 28 23 22 23 24 29 50 57 68 65 65 74 75 75 73 73 75 79 93 93 91 93 96 95 91 88 84 83 86 86 79 73 70 69 67 63 64 67 72 78 80
34 39 42 28 24 26 28 41 45 53 51 62 68 55 59 70 69 78 84 89 95 95 92 92 91 92 90 86 79 82 87 88 82 84 78 79 80 72 76 80 72 81 80 83
34 41 41 33 41 36 38 37 42 56 60 58 70 52 59 73 76 78 91 96 98 94 91 87 87 86 86 87 81 81 88 93 92 86 89 92 86 84 84 91 88 88 91 90
35 38 33 34 34 41 43 39 41 52 66 50 54 47 43 65 82 81 94 97 97 94 87 87 85 82 81 83 86 81 85 93 95 95 90 86 86 87 93 94 88 98 96 92
36 43 41 41 42 44 45 44 42 45 43 58 40 46 44 61 75 88 93 96 97 91 81 82 82 81 78 84 85 85 81 87 90 94 94 90 89 85 86 97 98 98 98 93
44 43 45 42 39 42 38 30 32 38 39 42 39 39 59 61 79 86 91 96 97 88 80 79 77 79 78 78 81 82 84 81 84 83 84 87 84 83 90 99 98 98 97 91
43 43 47 49 34 36 36 34 47 51 55 48 42 48 65 76 83 89 91 93 94 78 80 76 77 77 78 77 81 85 87 84 84 84 83 81 79 81 89 93 91 98 94 92
45 47 50 55 48 54 33 53 82 86 74 64 68 71 86 84 93 97 92 85 79 78 81 79 77 76 78 81 86 84 86 87 84 83 82 82 84 93 95 91 94 98 92 91
34 48 61 62 62 47 59 90 98 98 94 90 95 92 89 96 89 84 83 75 73 76 80 80 78 77 78 80 84 88 87 88 87 86 87 95 97 94 85 90 98 97 89 91
77 71 77 78 82 94 91 93 98 98 97 97 97 98 96 92 84 78 73 70 73 76 81 79 78 79 78 79 81 84 88 90 91 92 98 98 98 98 98 98 98 98 96 87
96 94 84 81 90 87 93 90 98 98 97 97 98 95 91 85 79 77 76 73 74 76 77 78 77 78 79 80 80 81 87 88 91 92 93 95 93 98 97 98 98 98 98 94
95 94 96 97 97 95 95 94 97 97 97 97 95 92 89 87 86 84 82 81 82 80 79 79 78 78 80 81 82 81 81 87 89 91 92 93 96 95 97 97 97 98 98 98
97 98 97 97 97 97 97 98 97 97 93 92 89 88 88 87 84 83 82 82 82 81 82 83 82 80 80 81 81 81 82 85 90 91 88 89 92 94 95 97 97 97 97 96
97 98 97 97 97 97 97 97 96 95 92 87 87 87 87 85 84 84 85 86 86 87 87 87 85 84 82 81 80 78 76 77 82 84 85 89 92 94 95 94 93 94 94 93
97 97 97 97 97 96 91 95 95 91 89 85 83 84 84 83 83 82 82 83 83 85 86 86 85 83 79 76 72 70 66 63 64 65 67 69 73 78 82 84 87 90 91 91
93 96 94 95 93 90 88 86 86 86 80 80 78 78 80 79 79 78 79 81 81 82 83 81 81 81 79 74 71 68 67 63 60 58 57 54 52 51 54 59 62 65 67 70

GFSCGP_prec_cthk_105.txt.gz
RH
33 32 33 38 37 36 37 38 36 35 33 35 34 33 32 32 31 30 29 28 28 27 29 30 30 31 31 30 29 29 30 31 31 32 32 33 35 40 48 56 55 57 57 58
39 35 36 38 40 41 38 37 36 34 35 35 33 30 29 27 25 25 25 25 29 27 25 26 28 29 29 28 27 28 27 27 28 29 29 30 33 37 38 50 56 54 54 62
46 39 36 37 37 38 39 39 38 38 34 34 33 26 23 21 20 25 29 30 29 31 32 31 30 29 29 27 27 27 27 26 26 27 29 34 38 41 42 44 48 52 51 53
41 38 41 42 41 41 41 37 36 38 41 37 32 31 25 21 22 26 29 33 36 36 37 34 34 36 35 34 32 30 27 26 25 25 28 35 38 40 39 36 38 43 46 49
42 40 38 40 37 40 40 40 39 39 38 38 34 31 25 26 23 31 36 38 39 39 39 38 37 36 36 36 36 36 34 32 28 27 26 34 38 41 40 41 39 41 44 47
47 48 47 45 45 42 38 38 37 36 38 43 31 29 23 27 30 37 41 42 41 43 44 43 41 38 39 40 40 40 39 39 38 33 30 30 37 44 46 43 40 39 38 48
53 48 46 47 46 45 43 42 40 40 47 39 38 39 26 34 42 46 48 47 50 49 47 45 43 43 46 47 47 45 46 45 49 43 41 32 39 47 48 47 47 41 35 41
56 58 51 44 40 40 41 42 44 51 51 50 50 44 33 50 49 50 52 52 52 53 51 50 50 51 57 63 61 59 64 61 63 59 51 46 44 57 52 52 57 49 40 33
76 69 59 46 44 43 50 53 50 55 55 50 37 35 44 48 48 50 52 51 53 57 58 57 60 64 70 81 80 73 77 84 80 77 66 56 53 53 53 50 55 56 50 46
63 55 56 50 44 42 42 32 38 52 47 38 26 34 36 51 52 54 54 56 57 60 62 64 70 78 85 94 94 92 93 90 84 77 71 66 62 62 57 56 53 58 58 54
63 56 55 45 40 33 26 25 29 34 45 38 29 30 55 60 62 59 57 56 56 66 74 76 79 90 91 98 98 98 95 90 85 80 79 75 75 69 69 68 66 62 63 59
49 46 41 33 31 26 27 32 34 32 32 44 46 32 52 50 51 51 53 59 60 69 88 86 90 94 95 97 98 98 95 90 89 84 80 81 85 85 75 71 73 72 68 66
41 40 35 41 40 36 38 34 36 43 48 48 46 33 49 47 43 43 48 62 72 79 92 93 91 93 94 94 95 91 86 86 88 88 88 88 93 92 89 85 82 80 80 74
35 35 28 24 31 33 40 40 38 40 47 36 40 32 27 30 43 40 46 61 84 87 92 95 93 92 90 87 90 92 90 89 94 94 96 97 97 96 88 88 85 86 87 83
40 39 39 33 29 36 37 37 34 40 40 49 34 32 26 28 40 44 52 73 90 90 92 91 91 90 87 84 85 88 90 87 90 96 98 96 94 92 90 92 90 86 91 94
45 46 43 40 32 32 34 30 31 32 32 35 32 30 27 38 41 51 71 84 92 95 95 93 87 86 85 82 84 88 88 88 89 92 98 99 96 98 96 95 93 94 98 96
43 41 40 40 33 33 27 27 38 46 58 63 66 49 48 47 53 67 88 94 97 98 93 91 85 83 84 83 82 86 91 93 89 89 91 92 94 96 86 87 97 98 99 99
42 42 40 43 41 36 30 49 59 81 87 91 77 70 65 61 79 89 93 97 98 86 83 90 85 82 81 81 86 90 90 91 93 93 89 89 87 88 85 91 97 99 98 98
39 42 49 47 52 37 46 71 84 86 88 84 86 84 84 90 95 97 97 97 91 84 85 85 85 84 82 82 82 87 90 91 92 90 88 91 88 92 94 97 99 98 97 98
63 58 62 72 69 75 88 87 83 86 90 94 95 96 97 98 96 97 93 91 88 80 81 84 84 82 83 82 82 80 85 91 95 92 90 90 92 97 94 98 92 98 98 98
92 93 85 84 86 75 87 85 89 96 95 97 97 98 98 97 95 91 85 82 82 79 81 82 81 80 81 82 82 78 79 85 90 95 96 96 96 96 97 98 98 98 98 98
88 91 93 92 94 91 92 90 95 97 97 97 97 97 97 97 93 91 86 85 85 86 84 85 84 82 80 80 79 77 77 81 83 88 89 90 94 96 97 98 97 98 98 97
92 95 95 96 96 97 97 97 97 97 97 97 97 97 97 97 97 94 92 89 89 88 88 87 84 82 79 76 73 72 74 76 77 80 84 86 87 88 91 92 96 96 97 97
95 97 94 97 97 97 97 97 97 97 97 97 97 97 97 97 94 92 91 91 91 89 88 85 80 77 74 69 67 64 61 58 59 62 65 70 76 82 84 86 87 89 92 92
96 96 95 97 97 96 97 97 97 97 96 94 94 93 93 91 90 90 89 89 89 88 84 79 75 72 68 64 61 59 58 55 53 50 48 47 49 54 56 60 65 69 74 76
94 96 96 95 97 92 92 95 95 93 89 90 90 90 90 87 87 87 87 87 87 85 79 72 69 67 67 63 62 62 61 59 57 56 54 50 48 46 46 47 48 50 51 51

GFSCGP_prec_cthk_108.txt.gz
RH
42 38 31 34 35 35 29 29 30 31 34 31 31 31 32 31 30 29 29 30 32 35 38 37 34 34 35 34 32 30 30 31 32 34 40 41 38 36 43 44 46 53 50 50
43 43 36 33 34 33 31 32 32 34 36 36 34 31 29 28 28 28 28 29 35 33 33 34 34 34 35 35 35 33 32 31 32 34 33 42 43 41 41 44 44 42 50 51
54 54 51 48 43 41 38 38 36 37 36 35 33 28 26 25 24 25 30 33 32 32 32 32 32 31 31 32 32 32 32 31 29 28 28 29 38 41 40 36 38 33 38 46
66 61 60 53 49 47 39 39 40 37 36 35 35 28 27 27 26 30 34 36 35 36 36 33 30 30 29 29 30 30 30 30 31 30 29 30 34 37 36 34 34 31 33 40
68 58 50 52 46 49 42 40 40 38 38 40 36 35 24 29 28 33 40 40 38 39 36 36 35 33 32 31 30 30 29 29 30 31 30 29 28 33 38 37 36 38 35 36
62 57 54 50 48 48 46 45 43 42 45 45 34 31 21 32 34 43 45 41 42 40 41 43 40 36 34 33 32 30 30 31 32 32 34 34 31 29 39 38 39 40 41 40
62 60 59 54 55 52 51 51 52 50 51 36 37 32 26 40 47 48 48 44 42 42 43 41 38 36 34 35 36 35 36 38 38 36 39 39 35 35 31 41 42 49 43 41
64 70 60 52 51 54 53 57 54 49 41 42 47 39 44 56 57 55 49 48 47 45 45 43 41 40 40 41 42 44 47 51 51 45 41 46 46 41 35 35 45 52 49 41
69 68 65 55 49 47 53 52 53 55 49 53 41 43 56 58 59 56 51 47 45 46 47 49 48 47 46 48 53 56 61 68 67 60 54 56 57 55 43 44 50 57 55 49
76 77 72 72 65 57 56 56 59 60 58 43 29 28 35 63 63 55 52 46 46 46 44 43 46 53 55 59 64 73 81 87 82 72 72 74 75 73 59 58 55 62 65 61
81 75 67 64 61 58 52 48 49 51 48 39 29 23 54 60 56 51 46 43 42 41 42 46 52 57 61 68 79 85 91 95 94 90 90 88 87 84 78 71 62 66 68 62
70 63 63 61 55 49 43 37 28 32 27 34 33 31 53 50 40 35 33 34 34 36 41 52 61 62 73 78 89 93 95 97 98 98 95 91 87 86 95 84 74 68 63 58
64 59 53 46 46 42 38 31 34 39 36 34 36 33 53 44 34 35 33 31 34 37 41 55 64 78 80 89 93 95 98 98 98 95 91 90 92 89 89 87 74 72 69 67
57 50 38 29 42 38 38 35 30 32 41 29 28 25 34 40 34 38 36 34 37 42 48 68 75 83 87 92 93 95 97 97 96 97 95 97 96 95 92 91 79 78 79 79
54 48 38 31 30 30 28 31 32 33 33 38 28 33 29 28 28 39 37 35 40 50 66 86 87 89 92 93 91 90 91 94 91 94 97 96 97 97 90 96 91 85 88 93
46 45 39 35 32 30 32 27 25 28 32 32 30 29 25 36 41 41 40 42 54 74 92 93 94 93 95 92 91 91 94 92 92 87 95 98 99 96 98 98 96 95 94 94
44 44 40 38 30 30 30 25 24 27 35 42 53 49 66 68 60 51 47 56 81 93 97 96 96 96 94 90 92 91 93 96 96 90 94 96 98 98 98 98 98 96 97 97
41 47 41 39 44 40 48 42 43 46 58 73 83 86 74 72 73 59 63 86 94 97 95 97 95 95 94 90 89 95 93 96 97 98 98 95 98 99 96 97 98 97 98 99
36 42 49 49 47 38 43 56 59 71 84 87 88 95 88 73 70 80 92 96 97 95 92 97 95 92 89 88 89 95 97 96 96 97 97 96 96 97 90 92 92 98 99 99
56 47 54 62 68 65 83 83 85 89 85 90 92 95 95 96 96 97 97 97 97 95 91 93 91 88 87 87 86 86 91 92 94 94 94 96 95 94 90 95 95 98 98 98
83 82 83 81 87 82 83 88 92 91 95 95 96 97 97 97 97 97 97 96 96 93 89 89 88 87 87 85 85 83 82 86 91 95 96 97 95 95 93 95 95 97 98 98
81 85 89 92 93 91 90 90 95 97 97 97 97 98 97 97 97 96 95 94 92 92 91 91 90 84 80 78 77 78 78 80 82 85 88 90 93 94 96 97 97 96 97 97
91 93 96 96 96 97 97 97 98 97 97 97 97 97 97 97 97 97 97 97 95 92 91 89 86 83 75 66 61 59 60 61 63 66 69 75 80 84 85 89 92 96 96 96
93 95 95 93 97 97 97 97 97 97 97 97 97 97 97 97 97 97 97 95 93 92 89 84 79 75 70 65 58 56 51 47 47 47 47 46 46 48 53 58 64 70 76 84
93 94 92 96 96 97 97 97 97 97 97 97 97 97 97 97 97 97 97 95 94 89 82 78 73 68 64 60 56 54 53 53 49 47 48 48 47 48 43 40 41 44 47 49
91 94 95 96 96 94 96 97 97 97 97 97 97 97 96 95 94 94 93 89 86 80 77 73 69 63 56 50 48 46 44 42 43 44 43 42 42 42 46 48 39 36 36 36

GFSCGP_prec_cthk_111.txt.gz
RH
44 43 34 35 37 35 37 36 33 30 37 34 32 27 27 28 29 29 29 29 31 34 38 47 46 41 40 37 35 36 36 36 38 39 38 39 53 63 65 66 68 65 62 60
46 42 33 39 39 40 38 38 36 33 32 38 33 31 30 31 32 32 33 32 33 37 51 50 43 38 37 37 34 34 36 37 37 37 38 41 40 49 52 55 60 57 57 55
44 37 31 36 37 40 37 43 42 43 40 43 38 34 29 29 29 30 34 34 41 49 47 42 36 34 34 33 31 31 30 32 33 33 35 36 36 36 43 50 47 46 48 48
56 52 53 61 53 46 53 48 52 53 48 45 37 35 34 33 32 29 35 45 49 44 38 37 35 34 33 33 30 29 29 29 29 31 30 29 30 31 31 40 45 42 42 42
53 61 63 61 52 62 59 54 55 51 52 48 40 41 31 35 37 44 56 54 49 41 39 34 32 32 32 32 30 29 29 28 27 28 30 30 30 29 28 28 42 43 40 36
54 64 66 57 51 51 54 56 55 51 49 52 40 43 37 33 35 50 68 59 50 42 38 34 33 33 33 32 31 30 32 31 29 28 27 28 28 30 32 29 33 50 42 38
62 63 69 63 64 63 59 60 62 58 58 53 42 39 37 43 55 65 67 60 49 44 42 40 38 37 35 33 32 32 32 31 31 31 31 31 32 30 31 31 31 34 53 46
81 88 68 66 62 65 62 60 65 83 68 62 48 45 47 63 62 65 63 52 48 41 39 39 38 38 37 35 35 36 37 34 36 38 38 39 38 36 33 31 34 36 39 46
70 69 69 63 60 57 57 67 59 68 64 64 58 55 71 70 69 68 62 54 43 37 35 35 37 36 35 36 37 39 39 41 44 46 48 50 52 49 41 35 38 40 38 43
72 87 74 67 62 54 51 64 73 61 63 57 46 46 47 80 81 74 64 51 44 41 39 36 32 33 33 35 40 43 43 45 51 55 61 70 72 66 55 41 47 48 44 45
73 72 74 67 62 62 62 59 61 60 67 71 65 54 73 86 86 78 61 49 41 37 35 32 28 30 35 34 42 48 50 54 61 70 78 86 78 71 64 59 60 60 60 57
80 80 82 73 63 58 62 63 62 67 61 55 48 42 68 67 62 53 48 38 32 30 30 29 31 35 40 42 51 57 60 65 80 82 83 93 92 85 84 80 79 81 80 75
80 82 77 66 58 54 53 48 49 50 48 48 46 51 68 57 50 46 39 38 33 29 25 28 36 47 46 52 59 64 71 85 91 94 96 95 91 89 90 88 89 93 96 88
71 69 62 56 53 55 57 47 43 42 52 35 30 30 42 61 53 41 47 46 33 29 30 39 49 55 55 65 73 81 91 94 93 97 96 93 94 94 98 98 97 96 94 97
72 66 56 48 45 42 41 43 39 36 37 37 29 31 30 26 31 37 37 35 32 32 38 49 63 62 74 80 89 95 97 95 93 93 92 98 98 96 97 99 99 98 94 86
65 64 57 48 38 36 39 31 28 26 27 32 30 31 29 29 39 40 46 46 41 41 46 66 70 85 96 97 95 97 95 97 92 93 88 88 98 98 99 98 97 96 94 93
62 54 54 49 37 32 34 27 23 22 26 30 40 34 57 60 69 61 63 58 46 50 68 76 95 97 97 97 97 97 96 98 97 95 90 88 89 95 97 98 97 98 98 97
46 44 43 46 42 40 40 49 41 39 36 38 48 57 70 81 79 70 72 62 56 70 86 96 97 97 97 97 95 95 97 94 97 98 97 97 97 97 97 98 98 98 99 97
34 37 51 52 49 45 51 55 46 49 45 52 67 81 85 92 87 69 69 67 87 91 97 97 97 97 97 97 96 95 97 97 97 97 97 98 97 97 98 96 98 97 98 98
43 40 51 58 55 63 83 74 71 75 74 77 81 89 92 92 85 89 90 95 97 97 97 97 97 98 98 97 95 96 98 97 96 96 94 96 97 97 97 96 92 96 98 98
68 67 68 69 80 91 85 81 83 92 90 92 93 95 92 94 96 97 97 97 97 97 97 97 94 90 90 92 91 90 89 91 92 95 97 97 97 97 97 98 95 96 97 97
72 76 84 84 94 91 90 88 92 95 96 96 97 97 96 96 97 97 97 97 97 97 97 97 93 84 76 69 65 63 67 69 68 71 76 82 88 93 95 97 97 97 97 97
85 88 96 91 94 95 93 95 97 97 97 97 97 97 97 97 97 97 97 97 97 97 95 91 84 76 71 68 63 54 50 47 45 43 43 43 46 49 54 59 65 78 90 95
82 81 90 90 93 96 96 97 97 97 97 97 97 97 97 97 97 97 97 97 97 96 92 85 77 72 69 64 61 57 53 50 48 46 45 43 39 35 35 36 38 42 45 49
87 87 88 91 92 96 96 97 97 97 97 97 97 97 97 97 97 97 97 97 96 91 88 80 74 68 65 61 56 53 51 49 46 44 44 43 42 42 38 31 30 29 29 32
90 92 93 96 94 94 96 97 97 97 97 97 97 97 97 97 97 97 97 97 93 84 76 70 65 59 52 45 39 34 30 26 29 31 32 32 32 32 32 34 32 25 25 23

GFSCGP_prec_cthk_114.txt.gz
RH
30 33 32 35 39 40 38 37 35 28 26 40 44 39 33 35 34 30 28 28 28 33 42 42 45 45 45 44 44 42 41 40 38 37 37 39 38 54 65 72 77 84 78 69
32 30 32 38 38 42 40 41 40 40 34 37 36 41 30 33 31 28 30 33 32 37 45 46 47 46 44 41 40 38 37 38 39 40 39 37 37 37 45 54 64 66 69 79
45 31 35 38 39 42 39 44 42 41 36 38 43 44 38 34 33 32 33 36 44 47 49 53 54 48 40 41 37 35 34 33 32 32 34 38 37 34 33 43 49 56 68 74
43 38 40 47 44 47 52 46 56 54 53 58 46 53 47 34 30 34 33 45 49 51 56 58 54 44 40 37 34 32 31 31 30 27 26 26 27 29 32 34 38 49 58 54
41 50 47 56 51 56 62 62 66 57 60 64 56 56 44 38 36 41 45 55 55 53 60 55 48 41 39 36 33 32 31 29 28 26 25 25 23 23 22 22 25 27 38 47
54 54 60 66 65 65 54 47 55 64 63 70 43 53 48 40 43 41 66 65 59 56 55 47 45 40 37 37 35 34 32 30 28 26 26 26 26 24 23 22 21 22 23 33
58 54 54 69 66 61 57 59 66 84 74 60 51 53 43 72 63 70 74 80 65 64 46 40 37 36 35 35 34 33 33 32 32 30 29 28 28 28 27 26 24 23 23 26
65 62 58 66 62 61 65 67 85 83 76 64 80 69 69 78 85 86 84 78 74 62 55 46 40 36 33 31 31 30 28 27 28 29 30 31 31 32 31 31 30 26 23 24
68 68 57 58 63 61 61 64 68 79 74 72 63 72 90 85 84 82 82 83 77 70 63 54 44 36 33 30 28 27 26 26 28 33 34 34 35 37 38 39 38 36 30 24
63 68 66 70 58 55 55 58 70 90 94 73 56 54 84 84 85 85 82 77 72 68 59 44 33 30 29 30 28 28 31 34 36 39 40 41 43 44 46 49 52 53 45 38
66 76 77 75 65 66 66 60 57 62 67 87 67 59 76 84 88 86 81 77 70 61 49 30 21 22 23 25 31 34 37 38 41 44 45 47 51 56 59 68 73 71 65 53
76 79 85 75 69 63 58 61 64 66 63 66 65 62 70 75 78 70 62 58 56 45 37 30 23 25 27 32 38 39 40 42 45 48 51 56 66 74 77 80 84 78 71 62
80 88 81 72 76 62 60 57 59 66 70 72 75 65 80 76 76 74 68 65 56 44 37 33 28 32 38 42 44 43 47 51 55 59 61 70 95 94 90 89 87 89 85 76
77 78 78 85 75 65 69 57 50 56 68 60 61 54 53 76 72 61 58 59 50 43 37 34 33 38 44 51 51 50 58 61 68 74 80 90 97 94 92 96 94 90 91 86
76 74 74 68 64 63 52 51 56 54 51 58 47 50 39 44 50 53 51 47 47 40 40 38 41 47 55 58 64 69 75 80 92 93 96 93 94 93 97 96 98 95 98 95
76 78 71 65 58 53 50 46 45 39 41 37 37 42 36 34 45 46 46 41 47 49 51 46 49 56 65 74 88 94 91 96 97 97 97 98 95 92 93 96 98 97 98 98
78 75 69 63 52 45 45 37 37 35 31 30 38 41 49 50 52 52 56 63 65 64 58 54 59 73 95 96 97 96 97 97 97 98 97 96 96 94 95 96 98 97 98 98
68 66 62 65 55 50 31 46 41 42 41 43 44 53 52 52 56 65 77 74 66 64 63 63 81 95 97 97 97 97 97 97 98 98 97 97 97 97 97 97 98 98 98 98
54 52 56 53 46 39 45 61 56 60 50 45 44 50 51 54 71 85 88 68 68 71 73 87 97 97 97 96 97 97 97 97 97 97 97 97 97 97 97 97 97 97 98 98
34 38 45 48 53 56 72 70 68 66 66 68 75 70 73 81 91 86 85 81 81 93 97 97 97 97 97 97 97 97 97 97 97 97 97 97 96 97 97 96 96 96 97 97
46 48 50 56 68 79 80 80 80 85 82 85 88 91 96 96 95 94 97 97 97 97 97 97 95 90 88 85 83 78 74 72 73 75 80 86 93 96 97 97 97 97 97 97
61 67 73 74 86 87 85 86 85 87 88 92 96 97 98 95 97 97 97 97 97 97 97 97 92 83 77 72 67 61 57 55 50 45 43 44 45 47 51 59 71 88 95 97
79 80 97 88 93 88 88 88 89 91 94 97 97 97 98 97 97 97 97 97 97 97 96 92 85 79 74 69 66 63 59 54 51 48 45 41 35 33 32 34 38 40 41 47
73 76 81 85 87 87 91 92 94 96 96 97 97 97 97 97 97 97 97 97 97 97 94 87 80 77 75 70 63 58 54 48 40 37 34 32 34 28 24 22 23 23 24 26
81 75 84 88 88 88 93 94 96 96 97 97 97 97 97 97 97 97 97 97 97 95 87 80 73 68 64 56 48 40 30 27 26 23 21 21 21 25 25 22 20 19 18 17
82 90 88 94 90 91 94 96 96 97 96 97 97 97 97 97 97 97 97 97 95 88 80 68 63 57 49 40 30 24 21 20 21 21 22 25 24 24 24 26 25 22 21 16

GFSCGP_prec_cthk_117.txt.gz
RH
27 30 31 26 27 28 30 32 32 28 27 38 33 27 34 37 39 38 37 35 33 43 43 38 34 33 31 31 35 36 34 33 34 35 33 33 37 45 48 51 62 71 81 87
28 25 25 27 30 34 36 36 32 28 25 31 29 30 28 33 40 43 42 43 41 50 54 52 40 40 39 36 40 37 37 35 35 35 37 37 34 32 34 37 46 56 70 77
32 29 33 37 40 45 43 46 44 42 39 38 38 36 28 28 28 27 32 33 36 53 58 57 46 43 43 41 45 40 36 34 33 31 31 31 32 34 33 32 37 44 47 52
40 41 43 44 45 45 42 47 57 57 61 61 45 61 46 37 33 33 40 51 55 67 70 61 50 47 47 50 45 38 33 34 32 29 28 27 27 27 28 29 30 31 40 44
30 38 44 52 49 49 50 58 56 55 61 71 52 68 41 36 39 48 65 71 76 70 77 68 62 58 56 51 46 32 31 30 29 28 27 26 24 23 21 21 22 25 27 33
38 37 47 47 51 57 60 66 60 61 62 70 41 65 41 42 50 68 72 82 79 80 75 70 69 65 61 53 43 29 29 29 27 27 26 26 26 25 23 21 19 18 18 19
46 42 46 56 62 59 68 70 76 74 73 59 54 57 45 62 71 80 70 75 84 82 77 76 70 62 55 45 29 28 26 24 24 24 24 24 24 25 26 25 23 21 19 17
54 60 56 61 61 69 72 69 83 82 77 69 61 65 82 90 83 87 88 79 76 78 76 72 65 49 41 38 34 28 27 27 27 26 23 23 24 25 26 26 26 24 23 21
59 59 52 53 56 63 63 70 68 72 71 78 60 62 82 83 96 91 95 95 94 90 90 78 58 50 45 39 31 26 24 24 23 23 24 24 25 27 28 28 28 27 26 24
61 66 58 55 51 55 64 64 77 89 92 84 66 63 94 98 96 95 91 88 84 82 74 69 65 59 51 41 31 28 28 26 26 26 28 29 30 32 34 35 35 36 36 36
56 60 63 62 62 60 65 66 67 76 84 91 84 71 74 84 90 82 82 73 65 60 61 60 57 53 43 35 29 26 26 30 30 31 35 39 39 39 41 42 42 45 46 47
62 70 81 75 68 64 65 65 70 81 68 70 73 67 67 75 87 77 69 62 60 61 62 58 54 45 35 26 25 26 29 33 36 37 40 43 45 48 49 52 54 59 65 70
67 81 83 77 76 71 75 67 70 72 73 77 84 80 71 75 77 78 72 70 66 62 58 52 45 38 30 26 29 33 38 41 43 45 49 52 55 57 59 63 67 85 83 82
67 80 80 79 85 78 75 70 65 66 79 66 66 64 61 73 75 80 78 72 64 58 50 48 43 37 33 34 38 45 49 52 54 57 60 65 70 75 77 81 91 88 86 89
74 77 76 77 74 76 82 66 57 61 61 68 60 65 55 64 71 70 65 63 62 55 54 46 40 40 40 45 52 57 60 62 70 75 83 88 95 97 96 96 94 91 90 92
74 81 77 77 72 71 70 60 56 54 56 59 54 53 68 67 67 65 64 61 55 53 47 49 49 49 49 58 67 70 76 85 89 93 94 97 97 97 98 95 94 93 93 93
78 81 82 82 67 63 61 53 54 50 53 55 66 68 62 60 61 61 60 55 50 48 56 57 56 56 62 74 82 92 92 92 95 96 97 97 97 98 99 98 96 95 95 95
77 80 82 80 67 70 62 58 53 49 52 53 58 60 59 59 60 58 56 50 51 64 66 63 61 66 80 93 95 96 96 96 97 97 97 97 98 98 98 98 97 98 98 99
68 69 72 71 65 52 56 54 52 52 59 61 63 65 60 58 54 54 50 56 80 74 62 67 73 91 97 97 97 97 96 97 97 96 97 97 97 98 97 97 97 97 98 98
53 57 62 59 59 58 57 57 61 67 71 69 74 80 77 79 73 65 82 90 84 73 80 95 97 97 97 91 86 80 75 71 70 68 70 81 93 96 97 97 97 97 97 97
52 54 48 55 60 63 64 72 75 83 76 77 83 86 92 95 94 95 96 95 94 96 97 97 96 93 89 82 73 68 64 60 56 54 48 44 43 43 44 53 69 89 96 96
54 56 65 62 69 76 74 80 87 88 85 83 87 93 95 97 96 95 97 97 97 97 97 97 93 85 79 75 70 68 62 57 51 45 40 33 28 27 28 29 32 36 37 44
70 66 79 81 81 82 85 87 87 90 90 93 96 97 98 97 97 97 97 97 97 97 97 96 87 82 78 75 72 66 57 45 34 29 27 25 22 18 15 14 15 17 17 20
69 68 78 82 86 87 84 86 93 93 95 96 97 97 97 97 97 97 97 97 97 97 97 91 86 79 72 65 55 46 35 29 24 22 21 19 18 19 16 14 13 12 12 12
75 72 77 84 85 86 86 90 94 95 96 96 97 97 97 97 97 97 97 97 97 97 93 84 74 68 56 43 34 30 25 22 20 20 19 20 19 19 20 19 19 17 16 17
79 84 86 89 83 86 90 93 94 96 96 97 97 97 97 97 97 97 97 97 97 93 83 73 59 47 38 30 26 25 25 24 23 21 21 23 23 23 23 23 23 23 19 14

GFSCGP_prec_cthk_120.txt.gz
RH
32 35 35 26 28 28 32 35 34 31 33 29 28 24 21 21 21 25 34 35 42 44 52 38 39 37 35 32 31 31 32 32 34 33 31 29 28 32 42 46 54 57 72 91
36 38 29 28 29 32 36 39 37 29 34 39 35 30 29 24 23 22 33 43 51 58 59 53 55 44 40 38 36 34 33 33 37 35 34 32 30 30 32 34 42 50 52 55
35 33 31 34 36 38 36 42 39 38 38 41 45 37 36 24 30 30 32 39 56 69 67 61 61 57 51 46 40 39 39 38 42 38 36 32 32 32 31 31 32 34 36 43
44 37 34 35 42 42 42 46 46 47 47 49 42 59 36 26 35 34 41 43 54 65 69 73 68 62 57 49 51 53 52 48 46 39 31 28 28 28 28 29 29 30 31 32
40 39 42 47 38 52 42 54 58 53 55 63 36 75 41 40 34 47 53 57 59 64 69 63 69 68 67 61 60 58 54 53 52 44 29 24 24 24 23 22 22 24 25 28
39 36 42 39 40 49 52 56 61 62 61 72 48 63 43 64 70 69 72 78 82 75 76 77 80 80 71 63 59 57 52 51 49 40 27 22 22 21 19 18 18 18 19 19
34 34 36 43 45 55 63 71 89 82 76 74 55 59 71 80 82 84 85 79 89 83 78 79 82 78 68 63 60 53 49 44 39 27 22 22 23 23 22 19 18 18 18 18
50 46 41 46 51 56 63 70 91 91 81 67 56 59 73 81 81 82 90 95 87 97 92 84 88 81 74 67 58 51 45 38 25 22 21 22 23 22 22 23 22 21 21 21
52 47 43 45 49 53 61 67 67 76 76 84 62 69 78 79 87 96 96 97 98 93 97 92 90 92 77 64 60 52 45 38 32 30 29 28 27 26 27 28 28 26 26 25
51 52 54 53 51 50 59 64 73 87 92 89 69 65 80 84 78 85 90 94 94 88 81 79 78 76 77 74 68 56 45 37 33 29 27 28 31 31 31 31 31 31 31 31
60 66 64 60 56 57 57 61 61 75 85 91 85 68 69 69 74 76 78 78 80 78 75 72 68 65 62 57 48 41 35 31 31 32 33 35 34 33 34 35 37 38 38 39
71 79 76 68 64 57 59 62 68 86 84 80 80 64 63 66 70 76 78 78 78 77 72 65 58 58 56 47 40 37 37 37 38 35 34 34 35 37 37 39 42 43 43 44
71 79 80 74 71 67 69 67 69 75 79 79 89 68 66 72 77 78 84 83 86 80 72 64 60 54 52 47 44 42 40 39 38 38 39 41 44 46 49 51 52 53 53 53
65 77 78 71 68 68 72 76 74 77 89 85 82 68 65 73 77 76 81 86 78 75 67 62 61 56 50 48 47 48 45 44 44 47 49 52 56 58 60 64 67 67 68 68
78 79 78 77 74 77 90 91 81 75 69 74 66 70 75 72 76 79 77 72 73 70 65 62 57 50 48 50 53 48 47 50 53 59 62 67 68 77 83 87 91 91 88 85
80 85 79 76 73 73 81 79 69 61 59 61 60 79 78 76 74 74 74 73 71 67 62 56 50 46 49 51 50 50 56 63 68 73 79 85 89 92 95 97 97 98 97 95
85 85 83 83 70 70 73 68 62 63 71 68 71 73 75 74 75 77 80 75 67 59 54 48 46 50 52 53 55 64 73 78 86 89 93 94 95 96 96 97 97 97 97 97
84 80 83 85 73 83 71 69 63 64 66 66 66 64 64 63 66 66 66 65 63 57 52 51 62 61 62 63 74 81 86 90 93 96 97 96 96 97 97 97 97 97 97 97
77 81 83 83 82 72 71 67 63 54 55 53 55 60 63 66 65 61 59 61 57 53 61 77 67 67 71 79 82 80 78 75 72 72 72 72 85 95 97 97 97 97 97 97
80 79 80 80 77 75 53 50 47 53 58 63 69 72 73 80 86 84 82 73 66 81 90 77 74 88 91 87 81 75 72 70 66 57 51 47 44 43 44 50 67 89 96 97
79 77 71 73 70 59 51 53 59 73 68 73 76 77 81 85 88 90 93 95 97 97 89 95 97 94 91 83 77 72 66 58 50 43 35 30 28 29 28 29 30 32 38 42
60 67 69 63 61 58 56 69 76 76 78 84 85 82 86 93 96 97 96 97 98 97 97 97 96 90 85 81 76 67 58 46 38 28 23 19 16 14 14 14 13 18 19 21
68 57 61 60 59 65 71 76 77 78 84 89 90 93 97 97 97 97 97 97 97 97 97 97 91 87 88 81 70 51 42 33 24 20 19 18 17 15 14 13 12 12 12 12
65 64 66 67 72 74 76 77 75 81 85 90 93 96 94 96 95 97 97 97 97 97 97 96 92 84 76 67 48 33 28 26 22 21 20 19 17 16 14 14 12 12 13 15
68 68 72 74 74 76 76 77 80 87 89 91 95 96 95 95 96 97 97 97 97 97 97 91 79 72 59 38 28 27 26 24 23 21 19 17 17 17 18 18 17 14 17 19
71 71 74 76 73 72 78 83 86 90 91 94 96 97 97 97 97 97 97 97 97 96 88 79 71 54 35 28 27 28 29 25 21 20 19 20 20 21 21 21 22 22 20 19